[[{"header":{"parameterUnit":"m.s-1","parameterCategory":1,"la1":31.0,"la2":29.5877,"lo1":-88.7671,"lo2":-86.6584,"dy":0.0162,"dx":0.0185,"nx":115,"ny":88,"refTime":"2023-08-11T18:00:00:Z","depth":0,"parameterNumber":2,"parameterNumberName":"U-component_of_WINDS"},"data":[0.0,0.0,0.0,0.0,0.0,0.0,0.0,0.0,0.0,0.0,0.0,0.0,0.0,0.0,0.0,0.0,0.0,0.0,0.0,0.0,0.0,0.0,0.0,0.0,0.0,0.0,0.0,0.0,0.0,0.0,0.0,0.0,0.0,0.0,0.0,0.0,0.0,0.0,0.0,0.0,0.0,0.0,0.0,0.0,0.0,0.0,0.0,0.0,0.0,0.0,0.0,0.0,0.0,0.0,0.0,0.0,0.0,0.0,0.0,0.0,0.0,0.0,0.0,0.0,0.0,0.0,0.0,0.0,0.0,0.0,0.0,0.0,0.0,0.0,0.0,0.0,0.0,0.0,0.0,0.0,0.0,0.0,0.0,0.0,0.0,0.0,0.0,0.0,0.0,0.0,0.0,0.0,0.0,0.0,0.0,0.0,0.0,0.0,0.0,0.0,0.0,0.0,0.0,0.0,0.0,0.0,0.0,0.0,0.0,0.0,0.0,0.0,0.0,0.0,0.0,0.0,0.0,0.0,0.0,0.0,0.0,0.0,0.0,0.0,0.0,0.0,0.0,0.0,0.0,0.0,0.0,0.0,0.0,0.0,0.0,0.0,0.0,0.0,0.0,0.0,0.0,0.0,0.0,0.0,0.0,0.0,0.0,0.0,0.0,0.0,0.0,0.0,0.0,0.0,0.0,0.0,0.0,0.0,0.0,0.0,0.0,0.0,0.0,0.0,0.0,0.0,0.0,0.0,0.0,0.0,0.0,0.0,0.0,0.0,0.0,0.0,0.0,0.0,0.0,0.0,0.0,0.0,0.0,0.0,0.0,0.0,0.0,0.0,0.0,0.0,0.0,0.0,0.0,0.0,0.0,0.0,0.0,0.0,0.0,0.0,0.0,0.0,0.0,0.0,0.0,0.0,0.0,0.0,0.0,0.0,0.0,0.0,0.0,0.0,0.0,0.0,0.0,0.0,0.0,0.0,0.0,0.0,0.0,0.0,0.0,0.0,0.0,0.0,0.0,0.0,0.0,0.0,0.0,0.0,0.0,0.0,0.0,0.0,0.0,0.0,0.0,0.0,0.0,0.0,0.0,0.0,0.0,0.0,0.0,0.0,0.0,0.0,0.0,0.0,0.0,0.0,0.0,0.0,0.0,0.0,0.0,0.0,0.0,0.0,0.0,0.0,0.0,0.0,0.0,0.0,0.0,0.0,0.0,0.0,0.0,0.0,0.0,0.0,0.0,0.0,0.0,0.0,0.0,0.0,0.0,0.0,0.0,0.0,0.0,0.0,0.0,0.0,0.0,0.0,0.0,0.0,0.0,0.0,0.0,0.0,0.0,0.0,0.0,0.0,0.0,0.0,0.0,0.0,0.0,0.0,0.0,0.0,0.0,0.0,0.0,0.0,0.0,0.0,0.0,0.0,0.0,0.0,0.0,0.0,0.0,0.0,0.0,0.0,0.0,0.0,0.0,0.0,0.0,0.0,0.0,0.0,0.0,0.0,0.0,0.0,0.0,0.0,0.0,0.0,0.0,0.0,0.0,0.0,0.0,0.0,0.0,0.0,0.0,0.0,0.0,0.0,0.0,0.0,0.0,0.0,0.0,0.0,0.0,0.0,0.0,0.0,0.0,0.0,0.0,0.0,0.0,0.0,0.0,0.0,0.0,0.0,0.0,0.0,0.0,0.0,0.0,0.0,0.0,0.0,0.0,0.0,0.0,0.0,0.0,0.0,0.0,0.0,0.0,0.0,0.0,0.0,0.0,0.0,0.0,0.0,0.0,0.0,0.0,0.0,0.0,0.0,0.0,0.0,0.0,0.0,0.0,0.0,0.0,0.0,0.0,0.0,0.0,0.0,0.0,0.0,0.0,0.0,0.0,0.0,0.0,0.0,0.0,0.0,0.0,0.0,0.0,0.0,0.0,0.0,0.0,0.0,0.0,0.0,0.0,0.0,0.0,0.0,0.0,0.0,0.0,0.0,0.0,0.0,0.0,0.0,0.0,0.0,0.0,0.0,0.0,0.0,0.0,0.0,0.0,0.0,0.0,0.0,0.0,0.0,0.0,0.0,0.0,0.0,0.0,0.0,0.0,0.0,0.0,0.0,0.0,0.0,0.0,0.0,0.0,0.0,0.0,0.0,0.0,0.0,0.0,0.0,0.0,0.0,0.0,0.0,0.0,0.0,0.0,0.0,0.0,0.0,0.0,0.0,0.0,0.0,0.0,0.0,0.0,0.0,0.0,0.0,0.0,0.0,0.0,0.0,0.0,0.0,0.0,0.0,0.0,0.0,0.0,0.0,0.0,0.0,0.0,0.0,0.0,0.0,0.0,0.0,0.0,0.0,0.0,0.0,0.0,0.0,0.0,0.0,0.0,0.0,0.0,0.0,0.0,0.0,0.0,0.0,0.0,0.0,0.0,0.0,0.0,0.0,0.0,0.0,0.0,0.0,0.0,0.0,0.0,0.0,0.0,0.0,0.0,0.0,0.0,0.0,0.0,0.0,0.0,0.0,0.0,0.0,0.0,0.0,0.0,0.0,0.0,0.0,0.0,0.0,0.0,0.0,0.0,0.0,0.0,0.0,0.0,0.0,0.0,0.0,0.0,0.0,0.0,0.0,0.0,0.0,0.0,0.0,0.0,0.0,0.0,0.0,0.0,0.0,0.0,0.0,0.0,0.0,0.0,0.0,0.0,0.0,0.0,0.0,0.0,0.0,0.0,0.0,0.0,0.0,0.0,0.0,0.0,0.0,0.0,0.0,0.0,0.0,0.0,0.0,0.0,0.0,0.0,0.0,0.0,0.0,0.0,0.0,0.0,0.0,0.0,0.0,0.0,0.0,0.0,0.0,0.0,0.0,0.0,0.0,0.0,0.0,0.0,0.0,0.0,0.0,0.0,0.0,0.0,0.0,0.0,0.0,0.0,0.0,0.0,0.0,0.0,0.0,0.0,0.0,0.0,0.0,0.0,0.0,0.0,0.0,0.0,0.0,0.0,0.0,0.0,0.0,0.0,0.0,0.0,0.0,0.0,0.0,0.0,0.0,0.0,0.0,0.0,0.0,0.0,0.0,0.0,0.0,0.0,0.0,0.0,0.0,0.0,0.0,0.0,0.0,0.0,0.0,0.0,0.0,0.0,0.0,0.0,0.0,0.0,0.0,0.0,0.0,0.0,0.0,0.0,0.0,0.0,0.0,0.0,0.0,0.0,0.0,0.0,0.0,0.0,0.0,0.0,0.0,0.0,0.0,0.0,0.0,0.0,0.0,0.0,0.0,0.0,0.0,0.0,0.0,0.0,0.0,0.0,0.0,0.0,0.0,0.0,0.0,0.0,0.0,0.0,0.0,0.0,0.0,0.0,0.0,0.0,0.0,0.0,0.0,0.0,0.0,0.0,0.0,0.0,0.0,0.0,0.0,0.0,0.0,0.0,0.0,0.0,0.0,0.0,0.0,0.0,0.0,0.0,0.0,0.0,0.0,0.0,0.0,0.0,0.0,0.0,0.0,0.0,0.0,0.0,0.0,0.0,0.0,0.0,0.0,0.0,0.0,0.0,0.0,0.0,0.0,0.0,0.0,0.0,0.0,0.0,0.0,0.0,0.0,0.0,0.0,0.0,0.0,0.0,0.0,0.0,0.0,0.0,0.0,0.0,0.0,0.0,0.0,0.0,0.0,0.0,0.0,0.0,0.0,0.0,0.0,0.0,0.0,0.0,0.0,0.0,0.0,0.0,0.0,0.0,0.0,0.0,0.0,0.0,0.0,0.0,0.0,0.0,0.0,0.0,0.0,0.0,0.0,0.0,0.0,0.0,0.0,0.0,0.0,0.0,0.0,0.0,0.0,0.0,0.0,0.0,0.0,0.0,0.0,0.0,0.0,0.0,0.0,0.0,0.0,0.0,0.0,0.0,0.0,0.0,0.0,0.0,0.0,0.0,0.0,0.0,0.0,0.0,0.0,0.0,0.0,0.0,0.0,0.0,0.0,0.0,0.0,0.0,0.0,0.0,0.0,0.0,0.0,0.0,0.0,0.0,0.0,0.0,0.0,0.0,0.0,0.0,0.0,0.0,0.0,0.0,0.0,0.0,0.0,0.0,0.0,0.0,0.0,0.0,0.0,0.0,0.0,0.0,0.0,0.0,0.0,0.0,0.0,0.0,0.0,0.0,0.0,0.0,0.0,0.0,0.0,0.0,0.0,0.0,0.0,0.0,0.0,0.0,0.0,0.0,0.0,0.0,0.0,0.0,0.0,0.0,0.0,0.0,0.0,0.0,0.0,0.0,0.0,-1.3421,0.0,0.0,0.0,0.0,0.0,0.0,0.0,0.0,0.0,0.0,0.0,0.0,0.0,0.0,0.0,0.0,0.0,0.0,0.0,0.0,0.0,0.0,0.0,0.0,0.0,0.0,0.0,0.0,0.0,0.0,0.0,0.0,0.0,0.0,0.0,0.0,0.0,0.0,0.0,0.0,0.0,0.0,0.0,0.0,0.0,0.0,0.0,0.0,0.0,0.0,0.0,0.0,0.0,0.0,0.0,0.0,0.0,0.0,0.0,0.0,0.0,0.0,0.0,0.0,0.0,0.0,0.0,0.0,0.0,0.0,0.0,0.0,0.0,0.0,0.0,0.0,0.0,0.0,0.0,0.0,0.0,0.0,0.0,0.0,0.0,0.0,0.0,0.0,0.0,0.0,0.0,0.0,0.0,0.0,0.0,0.0,0.0,0.0,0.0,0.0,0.0,0.0,0.0,0.0,0.0,0.0,0.0,0.0,0.0,0.0,-1.3396,-1.3396,-1.3388,-1.3396,-1.3396,0.0,0.0,0.0,0.0,0.0,0.0,0.0,0.0,0.0,0.0,0.0,0.0,0.0,0.0,0.0,0.0,0.0,0.0,0.0,0.0,0.0,0.0,0.0,0.0,0.0,0.0,0.0,0.0,0.0,0.0,0.0,0.0,0.0,0.0,0.0,0.0,0.0,0.0,0.0,0.0,0.0,0.0,0.0,0.0,0.0,0.0,0.0,0.0,0.0,0.0,0.0,0.0,0.0,0.0,0.0,0.0,0.0,0.0,0.0,0.0,0.0,0.0,0.0,0.0,0.0,0.0,0.0,0.0,0.0,0.0,0.0,0.0,0.0,0.0,0.0,0.0,0.0,0.0,0.0,0.0,0.0,0.0,0.0,0.0,0.0,0.0,0.0,0.0,0.0,0.0,0.0,0.0,0.0,0.0,0.0,0.0,0.0,0.0,0.0,0.0,0.0,0.0,0.0,0.0,0.0,0.0,0.0,0.0,0.0,0.0,0.0,0.0,-1.3726,-1.3574,-1.3413,0.0,0.0,0.0,0.0,0.0,0.0,0.0,0.0,0.0,0.0,0.0,0.0,0.0,0.0,0.0,0.0,0.0,0.0,0.0,0.0,0.0,0.0,0.0,0.0,0.0,0.0,0.0,0.0,0.0,0.0,0.0,0.0,0.0,0.0,0.0,0.0,0.0,0.0,0.0,0.0,0.0,0.0,0.0,0.0,0.0,0.0,0.0,0.0,0.0,0.0,0.0,0.0,0.0,0.0,0.0,0.0,0.0,0.0,0.0,0.0,0.0,0.0,0.0,0.0,0.0,0.0,0.0,0.0,0.0,0.0,0.0,0.0,0.0,0.0,0.0,0.0,0.0,0.0,0.0,0.0,0.0,0.0,0.0,0.0,0.0,0.0,0.0,0.0,0.0,0.0,0.0,0.0,0.0,0.0,0.0,0.0,0.0,0.0,0.0,0.0,0.0,0.0,0.0,0.0,0.0,0.0,0.0,0.0,0.0,0.0,-1.5392,-1.5392,-1.4749,0.0,-1.3464,0.0,0.0,0.0,0.0,0.0,0.0,0.0,0.0,0.0,0.0,0.0,0.0,0.0,0.0,0.0,0.0,0.0,0.0,0.0,0.0,0.0,0.0,0.0,0.0,0.0,0.0,0.0,0.0,0.0,0.0,0.0,0.0,0.0,0.0,0.0,0.0,0.0,0.0,0.0,0.0,0.0,0.0,0.0,0.0,0.0,0.0,0.0,0.0,0.0,0.0,0.0,0.0,0.0,0.0,0.0,0.0,0.0,0.0,0.0,0.0,0.0,0.0,0.0,0.0,0.0,0.0,0.0,0.0,0.0,0.0,0.0,0.0,0.0,0.0,0.0,0.0,0.0,0.0,0.0,0.0,0.0,0.0,0.0,0.0,0.0,0.0,0.0,0.0,0.0,0.0,0.0,0.0,0.0,0.0,0.0,0.0,0.0,0.0,0.0,0.0,0.0,0.0,0.0,0.0,0.0,0.0,0.0,0.0,0.0,0.0,-1.5595,-1.5595,-1.4875,-1.4368,0.0,0.0,0.0,0.0,0.0,0.0,0.0,0.0,0.0,0.0,0.0,0.0,0.0,0.0,0.0,0.0,0.0,0.0,0.0,0.0,0.0,0.0,0.0,0.0,0.0,0.0,0.0,0.0,0.0,0.0,0.0,0.0,0.0,0.0,0.0,0.0,0.0,0.0,0.0,0.0,0.0,0.0,0.0,0.0,0.0,0.0,0.0,0.0,0.0,0.0,0.0,0.0,0.0,0.0,0.0,0.0,0.0,0.0,0.0,0.0,0.0,0.0,0.0,0.0,0.0,0.0,0.0,0.0,0.0,0.0,0.0,0.0,0.0,0.0,0.0,0.0,0.0,0.0,0.0,0.0,0.0,0.0,0.0,0.0,0.0,0.0,0.0,0.0,0.0,0.0,0.0,0.0,0.0,0.0,0.0,0.0,0.0,0.0,0.0,0.0,0.0,0.0,0.0,0.0,0.0,0.0,0.0,0.0,0.0,0.0,-1.6103,-1.612,-1.591,-1.5392,-1.4926,-1.452,0.0,0.0,0.0,0.0,0.0,0.0,0.0,0.0,0.0,0.0,0.0,0.0,0.0,0.0,0.0,0.0,0.0,0.0,0.0,0.0,0.0,0.0,0.0,0.0,0.0,0.0,0.0,0.0,0.0,0.0,0.0,0.0,0.0,0.0,0.0,0.0,0.0,0.0,0.0,0.0,0.0,0.0,0.0,0.0,0.0,0.0,0.0,0.0,0.0,0.0,0.0,0.0,0.0,0.0,0.0,0.0,0.0,0.0,0.0,0.0,0.0,0.0,0.0,0.0,0.0,0.0,0.0,0.0,0.0,0.0,0.0,0.0,0.0,0.0,0.0,0.0,0.0,0.0,0.0,0.0,0.0,0.0,0.0,0.0,0.0,0.0,0.0,0.0,0.0,0.0,0.0,0.0,0.0,0.0,0.0,0.0,0.0,0.0,0.0,0.0,0.0,0.0,0.0,0.0,0.0,0.0,0.0,0.0,-1.6699,-1.7337,-1.7371,-1.6699,-1.6621,-1.5933,0.0,0.0,0.0,0.0,0.0,0.0,0.0,0.0,0.0,0.0,0.0,0.0,0.0,0.0,0.0,0.0,0.0,0.0,0.0,0.0,0.0,0.0,0.0,0.0,0.0,0.0,0.0,0.0,0.0,0.0,0.0,0.0,0.0,0.0,0.0,0.0,0.0,0.0,0.0,0.0,0.0,0.0,0.0,0.0,0.0,0.0,0.0,0.0,0.0,0.0,0.0,0.0,0.0,0.0,0.0,0.0,0.0,0.0,0.0,0.0,0.0,0.0,0.0,0.0,0.0,0.0,0.0,0.0,0.0,0.0,0.0,0.0,0.0,0.0,0.0,0.0,0.0,0.0,0.0,0.0,0.0,0.0,0.0,0.0,0.0,0.0,0.0,0.0,0.0,0.0,0.0,0.0,0.0,0.0,0.0,0.0,0.0,0.0,0.0,0.0,0.0,0.0,0.0,0.0,0.0,0.0,0.0,0.0,0.0,-1.8093,-1.8814,-1.8865,-1.8144,-1.7659,-1.6712,0.0,0.0,0.0,0.0,0.0,0.0,0.0,0.0,0.0,0.0,0.0,0.0,0.0,0.0,0.0,0.0,0.0,0.0,0.0,0.0,0.0,0.0,0.0,0.0,0.0,0.0,0.0,0.0,0.0,0.0,0.0,0.0,0.0,0.0,0.0,0.0,0.0,0.0,0.0,0.0,0.0,0.0,0.0,0.0,0.0,0.0,0.0,0.0,0.0,0.0,0.0,0.0,0.0,0.0,0.0,0.0,0.0,0.0,0.0,0.0,0.0,0.0,0.0,0.0,0.0,0.0,0.0,0.0,0.0,0.0,0.0,0.0,0.0,0.0,0.0,0.0,0.0,0.0,0.0,0.0,0.0,0.0,0.0,0.0,0.0,0.0,0.0,0.0,0.0,0.0,0.0,0.0,0.0,0.0,0.0,0.0,0.0,0.0,0.0,0.0,0.0,0.0,0.0,0.0,0.0,0.0,0.0,0.0,0.0,-1.9195,0.0,-1.9685,-1.9192,-1.8491,-1.7547,0.0,0.0,0.0,0.0,0.0,0.0,0.0,0.0,0.0,0.0,0.0,0.0,0.0,0.0,0.0,0.0,0.0,0.0,0.0,0.0,0.0,0.0,0.0,0.0,0.0,0.0,0.0,0.0,0.0,0.0,0.0,0.0,0.0,0.0,0.0,0.0,0.0,0.0,0.0,0.0,0.0,0.0,0.0,0.0,0.0,0.0,0.0,0.0,0.0,0.0,0.0,0.0,0.0,0.0,0.0,0.0,0.0,0.0,0.0,0.0,0.0,0.0,0.0,0.0,0.0,0.0,0.0,0.0,0.0,0.0,0.0,0.0,0.0,0.0,0.0,0.0,0.0,0.0,0.0,0.0,0.0,0.0,0.0,0.0,0.0,0.0,0.0,0.0,0.0,0.0,0.0,0.0,0.0,0.0,0.0,0.0,0.0,0.0,0.0,0.0,0.0,0.0,0.0,0.0,0.0,0.0,0.0,0.0,-1.9284,-1.9903,-1.9973,-2.0033,-1.985,-1.929,-1.8516,0.0,0.0,0.0,0.0,0.0,0.0,0.0,0.0,0.0,0.0,0.0,0.0,0.0,0.0,0.0,0.0,0.0,0.0,0.0,0.0,0.0,0.0,0.0,0.0,0.0,0.0,0.0,0.0,0.0,0.0,0.0,0.0,0.0,0.0,0.0,0.0,0.0,0.0,0.0,0.0,0.0,0.0,0.0,0.0,0.0,0.0,0.0,0.0,0.0,0.0,0.0,0.0,0.0,0.0,0.0,0.0,0.0,0.0,0.0,0.0,0.0,0.0,0.0,0.0,0.0,0.0,0.0,0.0,0.0,0.0,0.0,0.0,0.0,0.0,0.0,0.0,0.0,0.0,0.0,0.0,0.0,0.0,0.0,0.0,0.0,0.0,0.0,0.0,0.0,0.0,0.0,0.0,0.0,0.0,0.0,0.0,0.0,0.0,0.0,0.0,0.0,0.0,0.0,0.0,0.0,0.0,0.0,0.0,0.0,-2.2118,-2.309,-2.3342,-2.2839,-2.2151,-2.0709,0.0,0.0,0.0,0.0,0.0,0.0,0.0,0.0,0.0,0.0,0.0,0.0,0.0,0.0,0.0,0.0,0.0,0.0,0.0,0.0,0.0,0.0,0.0,0.0,0.0,0.0,0.0,0.0,0.0,0.0,0.0,0.0,0.0,0.0,0.0,0.0,0.0,0.0,0.0,0.0,0.0,0.0,0.0,0.0,0.0,0.0,0.0,0.0,0.0,0.0,0.0,0.0,0.0,0.0,0.0,0.0,0.0,0.0,0.0,0.0,0.0,0.0,0.0,0.0,0.0,0.0,0.0,0.0,0.0,0.0,0.0,0.0,0.0,0.0,0.0,0.0,0.0,0.0,0.0,0.0,0.0,0.0,0.0,0.0,0.0,0.0,0.0,0.0,0.0,0.0,0.0,0.0,0.0,0.0,0.0,0.0,0.0,0.0,0.0,0.0,0.0,0.0,0.0,0.0,0.0,0.0,0.0,0.0,0.0,-2.5759,-2.6141,-2.6124,-2.5659,-2.4697,-2.2981,-2.0451,0.0,0.0,0.0,0.0,0.0,0.0,0.0,0.0,0.0,0.0,0.0,0.0,0.0,0.0,0.0,0.0,0.0,0.0,0.0,0.0,0.0,0.0,0.0,0.0,0.0,0.0,0.0,0.0,0.0,0.0,0.0,0.0,0.0,0.0,0.0,0.0,0.0,0.0,0.0,0.0,0.0,0.0,0.0,0.0,0.0,0.0,0.0,0.0,0.0,0.0,0.0,0.0,0.0,0.0,0.0,0.0,0.0,0.0,0.0,0.0,0.0,0.0,0.0,0.0,0.0,0.0,0.0,0.0,0.0,0.0,0.0,0.0,0.0,0.0,0.0,0.0,0.0,0.0,0.0,0.0,0.0,0.0,0.0,0.0,0.0,0.0,0.0,0.0,0.0,0.0,0.0,0.0,0.0,0.0,0.0,0.0,0.0,0.0,0.0,0.0,0.0,0.0,0.0,0.0,0.0,0.0,0.0,0.0,-3.0476,-2.9305,-2.8578,-2.8316,-2.698,-2.524,0.0,0.0,0.0,0.0,0.0,0.0,0.0,0.0,0.0,0.0,0.0,0.0,0.0,0.0,0.0,0.0,0.0,0.0,0.0,0.0,0.0,0.0,0.0,0.0,0.0,0.0,0.0,0.0,0.0,0.0,0.0,0.0,0.0,0.0,0.0,0.0,0.0,0.0,0.0,0.0,0.0,0.0,0.0,0.0,0.0,0.0,0.0,0.0,0.0,0.0,0.0,0.0,0.0,0.0,0.0,0.0,0.0,0.0,0.0,0.0,0.0,0.0,0.0,0.0,0.0,0.0,0.0,0.0,0.0,0.0,0.0,0.0,0.0,0.0,0.0,0.0,0.0,0.0,0.0,0.0,0.0,0.0,0.0,0.0,0.0,0.0,0.0,0.0,0.0,0.0,0.0,0.0,0.0,0.0,0.0,0.0,0.0,0.0,0.0,0.0,0.0,0.0,0.0,0.0,0.0,0.0,0.0,0.0,0.0,-3.3196,-3.4439,-3.3803,-3.1297,-2.9796,-2.7597,0.0,0.0,0.0,0.0,0.0,0.0,0.0,0.0,0.0,0.0,0.0,0.0,0.0,0.0,0.0,0.0,0.0,0.0,0.0,0.0,0.0,0.0,0.0,0.0,0.0,0.0,0.0,0.0,0.0,0.0,0.0,0.0,0.0,0.0,0.0,0.0,0.0,0.0,0.0,0.0,0.0,0.0,0.0,0.0,0.0,0.0,0.0,0.0,0.0,0.0,0.0,0.0,0.0,0.0,0.0,0.0,0.0,0.0,0.0,0.0,0.0,0.0,0.0,0.0,0.0,0.0,0.0,0.0,0.0,0.0,0.0,0.0,0.0,0.0,0.0,0.0,0.0,0.0,0.0,0.0,0.0,0.0,0.0,0.0,0.0,0.0,0.0,0.0,0.0,0.0,0.0,0.0,0.0,0.0,0.0,0.0,0.0,0.0,0.0,0.0,0.0,0.0,0.0,0.0,0.0,0.0,0.0,0.0,-3.205,-3.5165,-3.6832,-3.6691,-3.4716,-3.2835,-3.0212,0.0,0.0,0.0,0.0,0.0,0.0,0.0,0.0,0.0,0.0,0.0,0.0,0.0,0.0,0.0,0.0,0.0,0.0,0.0,0.0,0.0,0.0,0.0,0.0,0.0,0.0,0.0,0.0,0.0,0.0,0.0,0.0,0.0,0.0,0.0,0.0,0.0,0.0,0.0,0.0,0.0,0.0,0.0,0.0,0.0,0.0,0.0,0.0,0.0,0.0,0.0,0.0,0.0,0.0,0.0,0.0,0.0,0.0,0.0,0.0,0.0,0.0,0.0,0.0,0.0,0.0,0.0,0.0,0.0,0.0,0.0,0.0,0.0,0.0,0.0,0.0,0.0,0.0,0.0,0.0,0.0,0.0,0.0,0.0,0.0,0.0,0.0,0.0,0.0,0.0,0.0,0.0,0.0,0.0,0.0,0.0,0.0,0.0,0.0,0.0,0.0,0.0,0.0,0.0,0.0,0.0,0.0,0.0,-3.3868,-3.656,-3.7685,-3.8222,-3.8059,-3.5647,-3.261,0.0,0.0,0.0,0.0,0.0,0.0,0.0,0.0,0.0,0.0,0.0,0.0,0.0,0.0,0.0,0.0,0.0,0.0,0.0,0.0,0.0,0.0,0.0,0.0,0.0,0.0,0.0,0.0,0.0,0.0,0.0,0.0,0.0,0.0,0.0,0.0,0.0,0.0,0.0,0.0,0.0,0.0,0.0,0.0,0.0,0.0,0.0,0.0,0.0,0.0,0.0,0.0,0.0,0.0,0.0,0.0,0.0,0.0,0.0,0.0,0.0,0.0,0.0,0.0,0.0,0.0,0.0,0.0,0.0,0.0,0.0,0.0,0.0,0.0,0.0,0.0,0.0,0.0,0.0,0.0,0.0,0.0,0.0,0.0,0.0,0.0,0.0,0.0,0.0,0.0,0.0,0.0,0.0,0.0,0.0,0.0,0.0,0.0,0.0,0.0,0.0,0.0,0.0,0.0,0.0,0.0,0.0,0.0,-3.5304,-3.8067,-3.9631,-4.0158,-3.955,-3.6246,-3.2853,0.0,0.0,0.0,0.0,0.0,0.0,0.0,0.0,0.0,0.0,0.0,0.0,0.0,0.0,0.0,0.0,0.0,0.0,0.0,0.0,0.0,0.0,0.0,0.0,0.0,0.0,0.0,0.0,0.0,0.0,0.0,0.0,0.0,0.0,0.0,0.0,0.0,0.0,0.0,0.0,0.0,0.0,0.0,0.0,0.0,0.0,0.0,0.0,-1.7752,0.0,0.0,0.0,0.0,0.0,0.0,0.0,0.0,0.0,0.0,0.0,0.0,0.0,0.0,0.0,0.0,0.0,0.0,0.0,0.0,0.0,0.0,0.0,0.0,0.0,0.0,0.0,0.0,0.0,0.0,0.0,0.0,0.0,0.0,0.0,0.0,0.0,0.0,0.0,0.0,0.0,0.0,0.0,0.0,0.0,0.0,0.0,0.0,0.0,0.0,0.0,0.0,0.0,0.0,0.0,0.0,0.0,0.0,0.0,-3.6548,-3.8959,-4.0373,-4.075,-3.9934,-3.7058,-3.3921,0.0,0.0,0.0,0.0,0.0,0.0,0.0,0.0,0.0,0.0,0.0,0.0,0.0,0.0,0.0,0.0,0.0,0.0,0.0,0.0,0.0,0.0,0.0,0.0,0.0,0.0,0.0,0.0,0.0,0.0,0.0,0.0,0.0,0.0,0.0,0.0,0.0,0.0,0.0,0.0,0.0,0.0,0.0,0.0,0.0,0.0,0.0,0.0,0.0,0.0,0.0,0.0,0.0,0.0,0.0,0.0,0.0,0.0,0.0,0.0,0.0,0.0,0.0,0.0,0.0,0.0,0.0,0.0,0.0,0.0,0.0,0.0,0.0,0.0,0.0,0.0,0.0,0.0,0.0,0.0,0.0,0.0,0.0,0.0,0.0,0.0,0.0,0.0,0.0,0.0,0.0,0.0,0.0,0.0,0.0,0.0,0.0,0.0,0.0,0.0,0.0,0.0,0.0,0.0,0.0,0.0,0.0,-3.4479,-3.7562,-3.9573,-4.0696,-4.0862,-3.9998,-3.7857,-3.5109,-3.1758,0.0,0.0,0.0,0.0,0.0,0.0,0.0,0.0,0.0,0.0,0.0,0.0,0.0,0.0,0.0,0.0,0.0,0.0,0.0,0.0,0.0,0.0,0.0,0.0,0.0,0.0,0.0,0.0,0.0,0.0,0.0,0.0,0.0,0.0,0.0,0.0,0.0,0.0,-1.5757,-1.7265,0.0,0.0,0.0,0.0,0.0,0.0,0.0,0.0,-2.0302,0.0,0.0,0.0,0.0,0.0,0.0,0.0,0.0,0.0,0.0,0.0,0.0,0.0,0.0,0.0,0.0,0.0,0.0,0.0,0.0,0.0,0.0,0.0,0.0,0.0,0.0,0.0,0.0,0.0,0.0,0.0,0.0,0.0,0.0,0.0,0.0,0.0,0.0,0.0,0.0,0.0,0.0,0.0,0.0,0.0,0.0,0.0,0.0,0.0,0.0,0.0,0.0,0.0,0.0,0.0,0.0,-3.1929,-3.5498,-3.8321,-4.0286,-4.137,-4.1325,-4.0014,-3.8093,-3.5347,-3.1678,0.0,0.0,0.0,0.0,0.0,0.0,0.0,0.0,0.0,0.0,0.0,0.0,0.0,0.0,0.0,0.0,0.0,0.0,0.0,0.0,0.0,0.0,0.0,0.0,0.0,0.0,0.0,0.0,0.0,0.0,0.0,0.0,0.0,0.0,0.0,0.0,0.0,0.0,0.0,-1.8241,-1.9314,0.0,0.0,0.0,0.0,0.0,0.0,0.0,0.0,-2.0842,0.0,0.0,0.0,0.0,0.0,0.0,0.0,0.0,0.0,0.0,0.0,0.0,0.0,0.0,0.0,0.0,0.0,0.0,0.0,0.0,0.0,0.0,0.0,0.0,0.0,0.0,0.0,0.0,0.0,0.0,0.0,0.0,0.0,0.0,0.0,0.0,0.0,0.0,0.0,0.0,0.0,0.0,0.0,0.0,0.0,0.0,0.0,0.0,0.0,0.0,0.0,0.0,0.0,0.0,0.0,-3.2784,-3.6566,-3.919,-4.0464,-4.1363,-4.1257,-3.9998,-3.8168,-3.537,0.0,0.0,0.0,0.0,0.0,0.0,0.0,0.0,0.0,0.0,0.0,0.0,0.0,0.0,0.0,0.0,0.0,0.0,0.0,0.0,0.0,0.0,0.0,0.0,0.0,0.0,0.0,0.0,0.0,0.0,0.0,0.0,0.0,0.0,0.0,0.0,0.0,0.0,0.0,0.0,-1.9655,-2.0741,-2.1955,0.0,0.0,0.0,0.0,0.0,0.0,-2.2797,-2.1988,0.0,0.0,0.0,0.0,0.0,0.0,0.0,0.0,0.0,0.0,0.0,0.0,0.0,0.0,0.0,0.0,0.0,0.0,0.0,0.0,0.0,0.0,0.0,0.0,0.0,0.0,0.0,0.0,0.0,0.0,0.0,0.0,0.0,0.0,0.0,0.0,0.0,0.0,0.0,0.0,0.0,0.0,0.0,0.0,0.0,0.0,0.0,0.0,0.0,0.0,0.0,0.0,0.0,0.0,0.0,-3.3242,-3.7199,-3.959,-4.027,-4.1029,-4.0847,-3.982,-3.8046,-3.5348,0.0,0.0,0.0,0.0,0.0,0.0,0.0,0.0,0.0,0.0,0.0,0.0,0.0,0.0,0.0,0.0,0.0,0.0,0.0,0.0,0.0,0.0,0.0,0.0,0.0,0.0,0.0,0.0,0.0,0.0,0.0,0.0,0.0,0.0,0.0,0.0,0.0,0.0,0.0,0.0,0.0,-2.1772,-2.2765,-2.2693,0.0,0.0,0.0,0.0,-2.4281,-2.3792,0.0,0.0,0.0,0.0,0.0,0.0,0.0,0.0,0.0,0.0,0.0,0.0,0.0,0.0,0.0,0.0,0.0,0.0,0.0,0.0,0.0,0.0,0.0,0.0,0.0,0.0,0.0,0.0,0.0,0.0,0.0,0.0,0.0,0.0,0.0,0.0,0.0,0.0,0.0,0.0,0.0,0.0,0.0,0.0,0.0,0.0,0.0,0.0,0.0,0.0,0.0,0.0,0.0,0.0,0.0,0.0,-3.321,-3.6729,-3.8877,-3.9603,-4.0254,-4.0137,-3.9147,-3.7805,-3.5332,0.0,0.0,0.0,0.0,0.0,0.0,0.0,0.0,0.0,0.0,0.0,0.0,0.0,0.0,0.0,0.0,0.0,0.0,0.0,0.0,0.0,0.0,0.0,0.0,0.0,0.0,0.0,0.0,0.0,0.0,0.0,0.0,0.0,0.0,0.0,0.0,0.0,0.0,0.0,0.0,0.0,-2.1433,-2.3094,-2.3155,-2.3128,0.0,0.0,0.0,-2.4313,-2.4458,0.0,0.0,0.0,0.0,0.0,0.0,0.0,0.0,0.0,0.0,0.0,0.0,0.0,0.0,0.0,0.0,0.0,0.0,0.0,0.0,0.0,0.0,0.0,0.0,0.0,0.0,0.0,0.0,0.0,0.0,0.0,0.0,0.0,0.0,0.0,0.0,0.0,0.0,0.0,0.0,0.0,0.0,0.0,0.0,0.0,0.0,0.0,0.0,0.0,0.0,0.0,0.0,0.0,0.0,0.0,-3.059,-3.3573,-3.6885,-3.8875,-3.9476,-3.9797,-3.9621,-3.9035,-3.7339,-3.4898,0.0,0.0,0.0,0.0,0.0,0.0,0.0,0.0,0.0,0.0,0.0,0.0,0.0,0.0,0.0,0.0,0.0,0.0,0.0,0.0,0.0,0.0,0.0,0.0,0.0,0.0,0.0,0.0,0.0,0.0,0.0,0.0,0.0,0.0,0.0,0.0,0.0,0.0,0.0,0.0,0.0,0.0,-2.2907,-2.3312,0.0,0.0,0.0,-2.4081,-2.4349,0.0,0.0,0.0,0.0,0.0,0.0,0.0,0.0,0.0,0.0,0.0,0.0,0.0,0.0,0.0,0.0,0.0,0.0,0.0,0.0,0.0,0.0,0.0,0.0,0.0,0.0,0.0,0.0,0.0,0.0,0.0,0.0,0.0,0.0,0.0,0.0,0.0,0.0,0.0,0.0,0.0,0.0,0.0,0.0,0.0,0.0,0.0,0.0,0.0,0.0,0.0,0.0,0.0,0.0,0.0,0.0,0.0,-3.3857,-3.6905,-3.8702,-3.9201,-3.923,-3.9101,-3.8803,-3.6993,0.0,0.0,0.0,0.0,0.0,0.0,0.0,0.0,0.0,0.0,0.0,0.0,0.0,0.0,0.0,0.0,0.0,0.0,0.0,0.0,0.0,0.0,0.0,0.0,0.0,0.0,0.0,-1.2318,0.0,0.0,0.0,0.0,0.0,0.0,0.0,0.0,0.0,0.0,0.0,0.0,0.0,0.0,-2.1988,-2.2831,-2.34,-2.3889,0.0,0.0,-2.3932,-2.4328,-2.4234,-2.3743,0.0,0.0,0.0,0.0,0.0,0.0,0.0,0.0,0.0,0.0,0.0,0.0,0.0,0.0,0.0,0.0,0.0,0.0,0.0,0.0,0.0,0.0,0.0,0.0,0.0,0.0,0.0,0.0,0.0,0.0,0.0,0.0,0.0,0.0,0.0,0.0,0.0,0.0,0.0,0.0,0.0,0.0,0.0,0.0,0.0,0.0,0.0,0.0,0.0,0.0,0.0,0.0,0.0,0.0,0.0,-3.3889,-3.6442,-3.7998,-3.8444,-3.8472,-3.8472,-3.8412,-3.6862,-3.5055,0.0,0.0,0.0,0.0,0.0,0.0,0.0,0.0,0.0,0.0,0.0,0.0,0.0,0.0,0.0,0.0,0.0,0.0,0.0,0.0,0.0,0.0,0.0,0.0,0.0,0.0,0.0,0.0,0.0,0.0,0.0,0.0,0.0,0.0,0.0,0.0,0.0,0.0,0.0,0.0,0.0,-2.2049,-2.3196,-2.3511,-2.3741,0.0,0.0,-2.4224,-2.4134,-2.4567,-2.446,-2.3151,0.0,0.0,0.0,0.0,0.0,0.0,0.0,0.0,0.0,0.0,0.0,0.0,0.0,0.0,0.0,0.0,0.0,0.0,0.0,0.0,0.0,0.0,0.0,0.0,0.0,0.0,0.0,0.0,0.0,0.0,0.0,0.0,0.0,0.0,0.0,0.0,0.0,0.0,0.0,0.0,0.0,0.0,0.0,0.0,0.0,0.0,0.0,0.0,0.0,0.0,0.0,0.0,0.0,-3.0733,-3.3308,-3.5668,-3.7239,-3.7947,-3.825,-3.8391,-3.8391,-3.683,-3.5088,0.0,0.0,0.0,0.0,0.0,0.0,0.0,0.0,0.0,0.0,0.0,0.0,0.0,0.0,0.0,0.0,0.0,0.0,0.0,0.0,0.0,0.0,0.0,0.0,0.0,0.0,0.0,0.0,-1.7306,-1.8196,-1.8086,0.0,0.0,0.0,0.0,0.0,0.0,0.0,0.0,0.0,0.0,-2.1823,-2.2704,-2.3198,0.0,0.0,-2.3704,-2.3776,-2.3793,-2.4086,-2.3949,-2.2856,-2.2493,0.0,0.0,0.0,0.0,0.0,0.0,0.0,0.0,0.0,0.0,0.0,0.0,0.0,0.0,0.0,0.0,0.0,0.0,0.0,0.0,0.0,0.0,0.0,0.0,0.0,0.0,0.0,0.0,0.0,0.0,0.0,0.0,0.0,0.0,0.0,0.0,0.0,0.0,0.0,0.0,0.0,0.0,0.0,0.0,0.0,0.0,0.0,0.0,0.0,0.0,0.0,0.0,-3.0545,-3.2922,-3.5193,-3.6721,-3.7462,-3.7786,-3.8033,-3.816,-3.6565,-3.4958,0.0,0.0,0.0,0.0,0.0,0.0,0.0,0.0,0.0,0.0,0.0,0.0,0.0,0.0,0.0,0.0,0.0,0.0,0.0,0.0,0.0,0.0,0.0,0.0,0.0,0.0,0.0,0.0,-1.8243,-1.9044,-1.8679,0.0,0.0,0.0,0.0,0.0,0.0,0.0,0.0,0.0,0.0,-2.2019,-2.2683,-2.3077,-2.3313,-2.3313,-2.33,-2.333,-2.345,-2.3671,-2.3512,-2.2696,0.0,0.0,0.0,0.0,0.0,0.0,0.0,0.0,0.0,0.0,0.0,0.0,0.0,0.0,0.0,0.0,0.0,0.0,0.0,0.0,0.0,0.0,0.0,0.0,0.0,0.0,0.0,0.0,0.0,0.0,0.0,0.0,0.0,0.0,0.0,0.0,0.0,0.0,0.0,0.0,0.0,0.0,0.0,0.0,0.0,0.0,0.0,0.0,0.0,0.0,0.0,0.0,0.0,0.0,-3.2803,-3.5044,-3.643,-3.6906,-3.6936,-3.7222,-3.7669,-3.6045,-3.4722,-3.3809,0.0,0.0,0.0,0.0,0.0,0.0,0.0,0.0,0.0,0.0,0.0,0.0,0.0,0.0,0.0,0.0,0.0,0.0,0.0,0.0,0.0,0.0,0.0,0.0,0.0,0.0,-1.7644,-1.8579,-1.9176,0.0,0.0,0.0,0.0,0.0,0.0,0.0,0.0,0.0,0.0,-2.2194,-2.2837,-2.3289,-2.3241,-2.3108,-2.3095,-2.3108,-2.3108,-2.3138,-2.3407,-2.3394,0.0,0.0,0.0,0.0,0.0,0.0,0.0,0.0,0.0,0.0,0.0,0.0,0.0,0.0,0.0,0.0,0.0,0.0,0.0,0.0,0.0,0.0,0.0,0.0,0.0,0.0,0.0,-2.133,-2.2716,0.0,0.0,0.0,0.0,0.0,0.0,0.0,0.0,0.0,0.0,0.0,-2.9112,-2.9177,0.0,0.0,0.0,0.0,0.0,0.0,0.0,0.0,0.0,0.0,0.0,0.0,-3.1391,-3.2988,-3.489,-3.6213,-3.6874,-3.7238,-3.7655,-3.8135,-3.647,-3.4303,-3.1581,0.0,0.0,0.0,0.0,0.0,0.0,0.0,0.0,0.0,0.0,0.0,0.0,0.0,0.0,0.0,0.0,0.0,0.0,0.0,0.0,0.0,0.0,0.0,0.0,0.0,-1.8697,0.0,0.0,0.0,0.0,0.0,0.0,0.0,0.0,0.0,0.0,0.0,-2.1564,-2.2258,-2.2457,-2.2731,-2.3122,-2.3138,-2.3095,0.0,0.0,0.0,0.0,0.0,0.0,0.0,0.0,0.0,0.0,0.0,0.0,0.0,0.0,-1.8617,-1.7569,-1.7419,-1.7313,-1.6883,0.0,0.0,0.0,0.0,0.0,0.0,0.0,0.0,0.0,0.0,0.0,0.0,0.0,0.0,0.0,0.0,-2.6397,0.0,0.0,0.0,0.0,0.0,0.0,0.0,0.0,-3.1155,-3.1966,-3.1925,-3.1866,-3.1576,0.0,-3.0095,-2.8202,0.0,0.0,0.0,0.0,0.0,0.0,0.0,0.0,-3.1777,-3.2982,-3.4864,-3.6137,-3.6662,-3.7148,-3.7655,-3.8119,-3.6412,-3.4048,-3.1092,-2.9548,-2.7844,0.0,0.0,0.0,0.0,0.0,0.0,0.0,0.0,0.0,0.0,0.0,0.0,0.0,0.0,0.0,0.0,0.0,0.0,0.0,0.0,0.0,0.0,0.0,-1.9922,0.0,0.0,0.0,0.0,0.0,0.0,0.0,0.0,0.0,-2.1015,-2.1838,-2.2575,-2.2901,-2.3162,-2.3392,-2.3678,0.0,0.0,0.0,0.0,0.0,0.0,0.0,-2.3799,-2.3552,-2.3488,-2.3276,-2.2553,-2.2191,-2.1902,-2.1491,0.0,0.0,-1.8957,-1.8648,-1.8521,-1.8025,-1.8324,-1.8684,-1.8709,-1.9029,-1.9294,0.0,0.0,0.0,0.0,0.0,0.0,0.0,0.0,-2.7964,-2.8612,0.0,-2.9295,0.0,0.0,0.0,0.0,0.0,0.0,0.0,0.0,-3.4239,-3.5234,-3.5182,-3.4605,-3.4262,-3.4042,-3.2585,-3.123,-2.9871,-2.7072,0.0,0.0,0.0,0.0,0.0,0.0,-3.2317,-3.2839,-3.5018,-3.6196,-3.6258,-3.6677,-3.7147,-3.7557,-3.5831,-3.4037,-3.2333,-3.0426,-2.9028,-2.8211,-2.5849,0.0,0.0,0.0,0.0,0.0,0.0,0.0,0.0,0.0,0.0,0.0,0.0,0.0,0.0,0.0,0.0,0.0,0.0,0.0,0.0,-1.9725,0.0,0.0,0.0,0.0,0.0,0.0,0.0,0.0,0.0,0.0,-2.0887,-2.2858,-2.416,-2.3517,0.0,0.0,0.0,0.0,-2.4788,-2.4763,-2.4788,-2.4775,-2.4808,-2.4775,-2.4795,-2.4795,0.0,0.0,-2.3614,-2.3518,-2.3211,-2.2201,-2.2267,-2.1905,-1.9996,-2.004,-2.0129,-1.961,-1.991,-2.0417,-2.0703,-2.0717,-2.0884,-3.3491,0.0,0.0,0.0,0.0,-2.8834,-2.9946,-3.2259,-3.1932,-3.2141,-3.269,-3.2778,0.0,0.0,0.0,0.0,0.0,0.0,-3.4313,-3.4378,-3.5594,-3.621,-3.6198,-3.5829,-3.5397,-3.4874,-3.409,-3.3291,-3.2435,-3.1138,-2.9516,-2.7684,0.0,0.0,0.0,0.0,-3.3035,-3.412,-3.5174,-3.6022,-3.6708,-3.6814,-3.6705,-3.6358,-3.5806,-3.4526,-3.2355,-3.1731,-3.0672,-2.9044,-2.779,0.0,0.0,0.0,0.0,0.0,0.0,0.0,0.0,0.0,0.0,0.0,0.0,0.0,0.0,0.0,0.0,0.0,0.0,0.0,-2.0216,-2.0617,-2.0843,0.0,0.0,0.0,0.0,0.0,0.0,0.0,0.0,0.0,-2.2855,-2.3539,-2.4173,0.0,0.0,-2.48,-2.48,-2.48,-2.48,-2.48,0.0,0.0,0.0,-2.48,-2.48,-2.48,-2.48,-2.4707,-2.4457,-2.411,-2.3775,-2.3435,-2.3135,-2.2688,-2.2092,-2.1656,-2.1205,-2.058,-2.076,-2.1092,-2.1208,-2.1526,-2.181,-3.9059,-3.6169,-3.4074,-3.349,-3.3821,-3.3087,-3.3998,-3.5942,-3.5519,-3.5328,-3.538,-3.5448,-3.4477,-3.2747,-3.3063,0.0,0.0,0.0,-3.6637,-3.6902,-3.7175,-3.7463,-3.7694,-3.707,-3.6476,-3.5845,-3.5324,-3.4667,-3.3873,-3.3382,-3.2173,-3.031,0.0,0.0,-3.1741,-3.3103,-3.4152,-3.4894,-3.5656,-3.6445,-3.7193,-3.7401,-3.6969,-3.5849,-3.5785,-3.4819,-3.2782,-3.2139,-3.132,-3.0085,-2.8878,-2.6994,0.0,0.0,0.0,0.0,0.0,0.0,0.0,0.0,0.0,0.0,0.0,-1.7413,0.0,0.0,0.0,0.0,-1.9196,-1.9996,-2.156,-2.1684,0.0,0.0,0.0,0.0,0.0,0.0,0.0,-2.3888,-2.4521,-2.4836,-2.4548,-2.4577,-2.4757,-2.5084,-2.5322,-2.5473,-2.5473,0.0,-2.5473,-2.5473,-2.5473,-2.5473,-2.5473,-2.5473,-2.5473,-2.5473,-2.5473,-2.5372,-2.5146,-2.4682,-2.4205,-2.386,-2.3474,-2.3102,-2.2755,-2.2515,-2.223,-2.1647,-2.1698,-2.1958,-2.2151,-2.2433,-2.2728,-4.3227,-4.2232,-3.7753,-3.6438,-3.7265,-3.6944,-3.747,-3.8553,-3.857,-3.8165,-3.7473,-3.7485,-3.6724,-3.5519,-3.6222,0.0,0.0,-3.823,-3.8893,-3.9554,-3.8877,-3.8893,-3.9428,-3.8318,-3.748,-3.6951,-3.6252,-3.5507,-3.4643,-3.4364,-3.4016,-3.3649,-3.3141,-3.2915,-3.296,-3.45,-3.5339,-3.5309,-3.6321,-3.7148,-3.77,-3.8164,-3.7572,-3.5833,-3.5753,-3.493,-3.3288,-3.1934,-3.1167,-3.1016,-2.931,-2.7557,-2.5916,0.0,0.0,0.0,0.0,0.0,0.0,0.0,0.0,0.0,0.0,0.0,0.0,0.0,0.0,0.0,-2.1057,0.0,-2.2581,-2.2837,0.0,0.0,0.0,-2.3925,-2.4772,-2.4914,-2.507,-2.5369,0.0,0.0,0.0,0.0,-2.5661,-2.5661,-2.616,-2.6487,-2.6487,-2.6449,-2.6487,-2.6424,-2.6474,-2.6474,-2.6373,-2.6399,-2.6386,-2.6386,-2.6487,-2.626,-2.5737,-2.5146,-2.4516,-2.3832,-2.3545,-2.3286,-2.2669,-2.2996,-2.3218,-2.2925,-2.2799,-2.288,-2.3224,-2.3372,-2.3544,-4.3881,-4.3585,-4.2209,-4.0976,-3.9942,-3.9662,-3.97,-3.9994,-3.9994,-3.9606,-3.8974,-3.8958,-3.8489,-3.7679,-3.8391,-3.8812,-3.9007,-3.9671,-4.0092,-4.0267,-4.0075,-3.98,-3.9476,-3.8798,-3.8134,-3.7478,-3.6568,-3.6029,-3.5778,-3.5358,-3.5106,-3.5026,-3.4893,-3.4643,-3.4256,-3.4805,-3.5462,-3.6183,-3.6554,-3.7043,-3.7687,-3.8164,-3.7556,-3.5833,-3.5289,-3.4245,-3.2618,-3.1665,-3.0872,-3.0165,-2.9664,-2.8443,-2.6298,-2.5361,0.0,0.0,0.0,0.0,0.0,0.0,0.0,0.0,0.0,-2.0672,-2.1923,0.0,-2.2163,0.0,-2.2106,-2.2358,-2.3275,-2.3395,0.0,0.0,-2.4937,-2.5232,-2.5398,-2.5966,-2.6103,-2.5532,-2.5927,-2.6155,-2.593,-2.6135,-2.6298,-2.6285,-2.6399,-2.6487,-2.6487,-2.6487,-2.6487,-2.6487,-2.6487,-2.6487,-2.6487,-2.6487,-2.6487,-2.6487,-2.6487,-2.6436,-2.6311,-2.5448,-2.4705,-2.4491,-2.4129,-2.3852,-2.3745,-2.3998,-2.4208,-2.4249,-2.3757,-2.3258,-2.3384,-2.3705,-2.4051,-4.4405,-4.4356,-4.3859,-4.3068,-4.2118,-4.1642,-4.1452,-4.1436,-4.1421,-4.1063,-4.0429,-4.0105,-3.9703,-3.9379,-4.0121,-4.0445,-4.0494,-4.1128,-4.1436,-4.1419,-4.1128,-4.0802,-4.0383,-3.9486,-3.8631,-3.7785,-3.6924,-3.629,-3.5878,-3.5619,-3.5489,-3.5489,-3.5489,-3.5392,-3.516,-3.5474,-3.5952,-3.6476,-3.6983,-3.7389,-3.77,-3.818,-3.7556,-3.5892,-3.5433,-3.4452,-3.2797,-3.1694,-3.0869,-3.0369,-2.9652,-2.8488,-2.6803,-2.585,-2.4506,0.0,0.0,0.0,0.0,0.0,0.0,0.0,0.0,0.0,0.0,0.0,-2.3521,0.0,-2.3093,0.0,-2.4802,-2.469,-2.4979,-2.6022,-2.6259,-2.6402,-2.6576,-2.6819,-2.6774,-2.6324,-2.6557,-2.6598,-2.6236,-2.6354,-2.6487,-2.6487,-2.6487,-2.6487,-2.6487,-2.6487,-2.6487,-2.6487,-2.6487,-2.6487,-2.6487,-2.6487,-2.6487,-2.6487,-2.6487,-2.6487,-2.6474,-2.5749,-2.5094,-2.4937,-2.4693,-2.4386,-2.4183,-2.4415,-2.4625,-2.4458,-2.4126,-2.3798,-2.3751,-2.4005,-2.4189,-4.4853,-4.4788,-4.4172,-4.3832,-4.3638,-4.3007,-4.2683,-4.2602,-4.2602,-4.2278,-4.1662,-4.1031,-4.0756,-4.0804,-4.145,-4.1742,-4.1759,-4.2359,-4.2602,-4.257,-4.1986,-4.1693,-4.1563,-4.0348,-3.9163,-3.8075,-3.7372,-3.6538,-3.5602,-3.5537,-3.5522,-3.5602,-3.5602,-3.5636,-3.5784,-3.6242,-3.6492,-3.6523,-3.7358,-3.7756,-3.7671,-3.8078,-3.75,-3.587,-3.5678,-3.4856,-3.324,-3.1785,-3.097,-3.077,-2.9479,-2.8268,-2.7306,-2.61,-2.5035,0.0,-2.3005,0.0,0.0,0.0,0.0,0.0,0.0,0.0,0.0,-2.4314,-2.4901,-2.4955,-2.4364,-2.4722,-2.6552,-2.6246,-2.6469,-2.7734,-2.7565,-2.7487,-2.794,-2.771,-2.7466,-2.7311,-2.7364,-2.7196,-2.6667,-2.6589,-2.6589,-2.6521,-2.6487,-2.6487,-2.6487,-2.6487,-2.6487,-2.6487,-2.6487,-2.6487,-2.6487,-2.6487,-2.6487,-2.6487,-2.6487,-2.6487,-2.6487,-2.6009,-2.5473,-2.5185,-2.5059,-2.4847,-2.4186,-2.4484,-2.4647,-2.437,-2.425,-2.4154,-2.4154,-2.4166,-2.4189,-4.5195,-4.5195,-4.5048,-4.4496,-4.3702,-4.3557,-4.3153,-4.2602,-4.2602,-4.2538,-4.2392,-4.2246,-4.2182,-4.2214,-4.2344,-4.2408,-4.2408,-4.2538,-4.2602,-4.2602,-4.2457,-4.2132,-4.1596,-4.132,-4.0275,-3.8613,-3.8058,-3.7188,-3.6053,-3.5683,-3.5716,-3.6053,-3.6053,-3.6085,-3.6101,0.0,0.0,0.0,-3.7088,-3.7373,-3.7447,-3.77,-3.7148,-3.5689,-3.5099,0.0,-3.2544,-3.164,-3.0741,-2.9897,-2.9583,0.0,0.0,0.0,0.0,0.0,0.0,0.0,0.0,0.0,0.0,0.0,-2.5055,-2.5229,-2.5372,-2.6329,-2.6883,-2.6782,-2.667,-2.6797,-2.729,-2.725,-2.7545,-2.8378,-2.8446,-2.8458,-2.8606,-2.8892,-2.8834,-2.7947,-2.8208,-2.8111,-2.7209,-2.7061,-2.6905,-2.6568,-2.6487,-2.6487,-2.6487,-2.6487,-2.6487,-2.6487,-2.6487,-2.6487,-2.6487,-2.6487,-2.6487,-2.6487,-2.6487,-2.6487,-2.6449,-2.6034,-2.5523,-2.5213,-2.5099,-2.501,-2.452,-2.4625,-2.4801,-2.4682,-2.4418,-2.4189,-2.4189,-2.4189,-2.4189,-4.6075,0.0,-4.5701,-4.5228,0.0,-4.3994,-4.3492,-4.312,-4.2748,-4.2602,-4.2602,-4.2602,-4.2602,-4.2602,-4.2602,-4.2602,-4.2602,-4.2602,-4.2602,-4.2602,-4.2602,-4.2408,-4.2083,-4.1774,-4.0963,-3.9767,-3.8822,-3.8106,-3.7574,-3.6405,-3.6252,-3.7079,-3.649,-3.6321,-3.6538,-3.6646,-3.6677,-3.66,-3.6754,-3.6937,-3.7163,-3.7508,-3.7163,-3.6042,0.0,0.0,0.0,0.0,0.0,0.0,0.0,0.0,0.0,0.0,0.0,-2.6669,-2.5761,-2.5394,-2.5655,-2.5623,-2.5631,-2.5734,-2.6226,-2.6454,-2.6274,-2.6956,-2.7535,-2.7857,-2.7591,-2.7706,-2.8426,-2.826,-2.8374,-2.9055,-2.9139,-2.908,-2.8844,-2.8817,-2.8495,-2.7762,-2.763,-2.743,-2.6939,-2.6837,-2.6769,-2.6555,-2.6487,-2.6487,-2.6487,-2.6487,-2.6487,-2.6487,-2.6487,-2.6487,-2.6487,-2.6487,-2.6487,-2.6487,-2.6487,-2.6487,-2.6487,-2.626,-2.5991,-2.5834,-2.5813,-2.5617,-2.5031,-2.498,-2.4945,-2.4598,-2.4334,-2.4189,-2.4189,-2.4189,-2.4189,-4.6911,-4.6828,-4.6245,-4.5921,-4.571,-4.4577,-4.3929,-4.3622,0.0,0.0,0.0,-4.2602,-4.2602,-4.2602,-4.2602,-4.2602,-4.2602,-4.2602,-4.2602,-4.2602,-4.2602,-4.2602,-4.257,-4.2035,-4.1479,-4.0848,-3.9655,-3.9028,-3.8841,-3.728,-3.6971,-3.7778,-3.6956,-3.6646,-3.7012,-3.6936,-3.6799,-3.66,-3.6507,-3.6616,-3.6845,-3.7254,-3.7087,-3.6377,-3.6047,-3.5482,-3.4689,-3.3054,-3.1894,-3.1318,-3.0038,-2.928,-2.9271,-2.7936,-2.733,-2.769,-2.6737,-2.6318,-2.6761,-2.6767,-2.6787,-2.6799,-2.7414,-2.7505,-2.6817,-2.7343,-2.7968,-2.8663,-2.8088,-2.826,-2.9445,-2.9055,-2.8928,-2.9532,-2.9602,-2.9401,-2.9008,-2.856,-2.8235,-2.7663,-2.7343,-2.685,-2.6863,-2.6726,-2.6589,-2.6521,-2.6487,-2.6487,-2.6487,-2.6487,-2.6487,-2.6487,-2.6487,-2.6487,-2.6487,-2.6487,-2.6487,-2.6487,-2.6487,-2.6487,-2.6487,-2.6487,-2.6465,-2.6264,-2.6383,-2.6,-2.5382,-2.517,-2.4969,-2.4334,-2.4189,-2.4189,-2.4189,-2.4189,-2.4189,-4.6911,-4.6911,-4.6763,-4.6374,-4.5791,-4.5597,-4.482,-4.367,-4.291,-4.2602,-4.2602,-4.2602,-4.2602,-4.2602,-4.2602,-4.2602,-4.2602,-4.2602,-4.2602,0.0,-4.2602,-4.2602,-4.2602,-4.2489,-4.1914,-4.0928,-4.0673,-3.9739,-3.8263,-3.7904,-3.7761,-3.7743,-3.7555,-3.7508,-3.7537,-3.7133,-3.6906,-3.6845,-3.6616,-3.6569,-3.6708,-3.6507,-3.6352,-3.6236,-3.6182,-3.5804,-3.5052,-3.4474,-3.3693,-3.2665,-3.1745,-3.0742,-2.9784,-2.9478,-2.9072,-2.8528,-2.8278,-2.7964,-2.7495,-2.7465,-2.7607,-2.7965,-2.8569,-2.8533,-2.7516,-2.8554,-2.9316,-2.9417,-2.887,-2.8799,-2.9476,-2.9069,-2.897,-2.9518,-2.9602,-2.9571,-2.9477,-2.9306,-2.9194,-2.9071,-2.8817,-2.8157,-2.7643,-2.7276,-2.6871,-2.6589,-2.6487,-2.6487,-2.6487,-2.6487,-2.6487,-2.6487,-2.6487,-2.6487,-2.6487,-2.6487,-2.6487,-2.6487,-2.6487,-2.6487,-2.6487,-2.6487,-2.6396,-2.6072,-2.6084,-2.5758,-2.5099,-2.4861,-2.4742,-2.437,-2.4273,-2.4236,-2.4236,-2.4236,-2.42,-4.6911,-4.6911,-4.6911,-4.6698,-4.6358,-4.5969,-4.5225,-4.4285,-4.3945,-4.3314,-4.2635,-4.2602,-4.2602,-4.2602,-4.2602,-4.2602,-4.2602,-4.2602,-4.2602,-4.2602,-4.2602,-4.2602,-4.2602,-4.2602,-4.233,-4.1803,-4.1434,-4.1003,-4.0434,-3.9486,-3.9085,-3.9124,-3.8479,-3.7963,-3.77,-3.7682,-3.746,-3.692,-3.6784,-3.6754,-3.6799,-3.6937,-3.6857,-3.6604,-3.6407,-3.6032,-3.5441,-3.4641,-3.4014,-3.3552,-3.2281,-3.1485,-3.1316,-3.0295,-2.969,-2.9609,-2.931,-2.8873,-2.8158,-2.8025,-2.7851,-2.7694,-2.8751,-2.8986,-2.7951,-2.8933,-2.9602,-2.9602,-2.9336,-2.9293,-2.9588,-2.935,-2.9307,-2.9588,-2.9602,-2.9602,-2.954,-2.9008,-2.8753,-2.8656,-2.8026,-2.7464,-2.7222,-2.6973,-2.6748,-2.6521,-2.6487,-2.6487,-2.6487,-2.6487,-2.6487,-2.6487,-2.6487,-2.6487,-2.6487,-2.6487,-2.6487,-2.6487,-2.6487,-2.6487,-2.6487,-2.6487,-2.6418,-2.628,-2.6223,-2.6015,-2.5454,-2.5383,-2.523,-2.4897,-2.4634,-2.4574,-2.4538,-2.4393,-2.42,-4.7056,-4.6911,-4.6911,-4.6911,-4.6828,-4.6277,-4.5646,-4.5046,-4.4998,-4.4302,-4.3185,-4.3072,-4.3007,-4.2845,-4.2845,-4.2748,-4.2619,-4.2602,-4.2602,-4.2602,-4.2602,-4.2602,-4.2602,-4.2602,-4.2602,-4.2538,-4.2067,-4.2019,-4.2151,-4.089,-4.02,-4.0143,-3.9023,-3.8221,-3.7876,-3.8221,-3.8033,-3.7282,-3.7237,-3.7177,-3.7087,-3.7373,-3.7328,-3.6919,-3.6644,-3.6289,-3.5812,-3.4834,-3.431,-3.4294,-3.2872,-3.2187,-3.2456,-3.1112,-3.0328,-3.0462,-3.0058,-2.9517,-2.8906,-2.8765,-2.8495,-2.8009,-2.9034,-2.945,-2.8886,-2.9158,-2.9524,-2.956,-2.9462,-2.942,-2.9546,-2.9448,-2.9448,-2.9574,-2.9602,-2.9602,-2.9509,-2.8849,-2.83,-2.8124,-2.7377,-2.6863,-2.6679,-2.6555,-2.6487,-2.6487,-2.6487,-2.6487,-2.6487,-2.6487,-2.6487,-2.6487,-2.6487,-2.6487,-2.6487,-2.6487,-2.6487,-2.6487,-2.6487,-2.6487,-2.6487,-2.6487,-2.6487,-2.6452,-2.6487,-2.6292,-2.598,-2.5888,-2.5688,-2.5324,-2.5052,-2.4849,-2.4682,-2.4309,-2.4116,-4.7508,-4.6959,-4.6927,-4.6911,-4.6911,-4.6795,-4.6358,-4.5759,-4.571,-4.5305,-4.4625,-4.4593,-4.4221,-4.367,-4.3573,-4.3217,-4.2651,-4.2602,-4.2602,-4.2602,-4.2602,-4.2602,-4.2602,-4.2602,-4.2602,-4.2602,-4.2505,-4.2213,-4.1792,-4.1518,-4.0806,-3.9651,-3.878,-3.8379,-3.8335,-3.8363,-3.8335,-3.8234,-3.8278,-3.8078,-3.7642,-3.7208,-3.6966,-3.689,-3.6873,-3.663,-3.6105,-3.5752,-3.5382,-3.5064,-3.4136,-3.3276,-3.2615,-3.2302,-3.1704,-3.0612,-3.0447,-3.0163,-2.9594,-3.0013,-3.0182,-3.0197,-3.0051,-3.0133,-3.0234,-2.9618,-2.9302,-2.9484,-2.9125,-2.9111,-2.949,-2.9167,-2.9111,-2.9546,-2.9602,-2.9602,-2.9571,-2.954,-2.9289,-2.8771,-2.8059,-2.7676,-2.7142,-2.6748,-2.6533,-2.6589,-2.6521,-2.6487,-2.6487,-2.6487,-2.6487,-2.6487,-2.6487,-2.6487,-2.6487,-2.6487,-2.6487,-2.6487,-2.6499,-2.6549,-2.6587,-2.6587,-2.6499,-2.6663,-2.6562,-2.6436,-2.6097,-2.5923,-2.5793,-2.5571,-2.5359,-2.5111,-2.4634,-2.4164,-2.3861,-4.7831,-4.7508,-4.707,-4.6911,-4.6911,-4.6911,-4.6714,-4.6455,-4.6455,-4.6277,-4.605,-4.6034,-4.5419,-4.435,-4.3897,-4.3509,-4.3217,-4.2797,-4.2602,-4.2602,-4.2602,-4.2602,-4.2602,-4.2602,-4.2602,-4.2602,-4.2602,-4.2457,-4.218,-4.1806,-4.1077,-4.0137,-3.9379,-3.8829,-3.844,-3.8391,-3.8391,-3.8391,-3.8391,-3.8323,-3.8107,-3.7902,-3.7506,-3.6951,-3.689,-3.6523,-3.5878,-3.5652,-3.5459,-3.5171,-3.4228,-3.3442,-3.2939,-3.2284,-3.166,-3.1107,-3.0717,-3.0402,-3.0133,-3.0372,-3.0357,-2.9983,-3.0589,-3.0761,-3.0338,-3.025,-3.0143,-2.9858,-2.9515,-2.9364,-2.9546,-2.9378,-2.935,-2.9574,-2.9602,-2.9602,-2.9602,-2.9053,-2.8656,-2.8661,-2.7809,-2.7175,-2.7129,-2.6782,-2.6658,-2.6794,-2.6726,-2.6521,-2.6487,-2.6487,-2.6487,-2.6487,-2.6487,-2.6487,-2.6487,-2.6487,-2.6499,-2.6549,-2.6776,-2.6977,-2.7002,-2.7268,-2.7379,-2.704,-2.6952,-2.6753,-2.6352,-2.627,-2.6176,-2.5955,-2.5723,-2.543,-2.467,-2.4309,-2.4043,-4.8333,-4.7929,-4.72,-4.6911,-4.6911,-4.6911,-4.6911,-4.6911,-4.6911,-4.6911,-4.6911,-4.6911,-4.6342,-4.5354,-4.4609,-4.4107,-4.3686,-4.312,-4.278,-4.2635,-4.2602,-4.2602,-4.2602,-4.2602,-4.2602,-4.2602,-4.2602,-4.2602,-4.2522,-4.1921,-4.1239,-4.048,-3.9816,-3.912,-3.8472,-3.8391,-3.8335,-3.8221,-3.8209,-3.8112,-3.7919,-3.7785,-3.7446,-3.6951,-3.689,-3.6384,-3.5284,-3.5205,-3.5065,-3.4744,-3.3923,-3.3367,-3.2997,-3.2208,-3.169,-3.1481,-3.1047,-3.0763,-3.0791,-3.0776,-3.0597,-3.0238,-3.0881,-3.0964,-3.0541,-3.0601,-3.0587,-3.031,-2.9927,-2.9713,-2.9602,-2.9602,-2.9602,-2.9602,-2.9602,-2.9602,-2.954,-2.8849,-2.8592,-2.8629,-2.796,-2.7175,-2.733,-2.7188,-2.7074,-2.7095,-2.6905,-2.6611,-2.6533,-2.6487,-2.6487,-2.6487,-2.6487,-2.6487,-2.6487,-2.6487,-2.6512,-2.6776,-2.709,-2.7281,-2.7444,-2.7883,-2.8059,-2.7532,-2.7454,-2.7193,-2.6819,-2.6703,-2.6452,-2.6396,-2.6119,-2.5653,-2.5052,-2.473,-2.4358,-4.924,-4.7961,-4.7216,-4.6943,-4.6911,-4.6911,-4.6911,-4.6911,-4.6911,-4.6911,-4.6911,-4.6911,-4.6878,-4.67,-4.5971,-4.4965,-4.3848,-4.3654,-4.3201,-4.2651,-4.2602,-4.2602,-4.2602,-4.2602,-4.2602,-4.2602,-4.2602,-4.2602,-4.2554,-4.1938,-4.1239,-4.048,-3.9849,-3.9153,-3.8448,-3.8307,-3.8164,-3.7759,-3.7759,-3.7427,-3.6794,-3.6337,-3.6415,-3.6751,-3.6859,-3.6045,-3.4764,-3.4548,-3.4249,-3.359,-3.3515,-3.3186,-3.2587,-3.2452,-3.2093,-3.1585,-3.1451,-3.1436,-3.1421,-3.1391,-3.1361,-3.1301,-3.0926,-3.0695,-3.0895,-3.0586,-3.0441,-3.0554,-3.031,-2.9988,-2.9665,-2.9602,-2.9602,-2.9602,-2.9602,-2.9602,-2.9602,-2.9432,-2.9261,-2.8962,-2.8643,-2.832,-2.8006,-2.7973,-2.763,-2.7397,-2.7196,-2.6994,-2.6658,-2.6521,-2.6487,-2.6487,-2.6487,-2.6487,-2.6487,-2.6487,-2.6725,-2.6939,-2.7102,-2.7442,-2.7795,-2.8097,-2.8059,-2.7934,-2.758,-2.7316,-2.719,-2.6952,-2.66,-2.6349,-2.6072,-2.5653,-2.5359,-2.4981,-2.4647,-4.9273,-4.7993,-4.7718,-4.733,-4.6943,-4.6911,-4.6911,-4.6911,-4.6911,-4.6911,-4.6911,-4.6911,-4.7014,-4.7186,-4.6925,-4.5911,-4.4431,-4.3929,-4.3282,-4.2667,-4.2602,-4.2602,-4.2602,-4.2602,-4.2602,-4.2602,-4.2602,-4.2602,-4.2586,-4.2359,-4.1646,-4.0582,-3.9939,-3.9115,-3.8097,-3.7623,-3.7342,-3.7238,-3.7508,-3.7395,-3.6766,-3.6537,-3.6268,-3.5798,-3.5367,-3.4789,-3.3889,-3.3858,-3.3544,-3.2901,-3.2871,-3.2572,-3.1944,-3.1854,-3.175,-3.154,-3.1496,-3.1496,-3.1496,-3.1496,-3.1496,-3.1481,-3.1286,-3.1168,-3.1246,-3.1113,-3.0968,-3.0866,-3.0762,-3.0477,-2.9974,-2.9741,-2.9602,-2.9602,-2.9602,-2.9602,-2.954,-2.9338,-2.9135,-2.9198,-2.904,-2.8707,-2.8481,-2.7927,-2.7683,-2.8045,-2.7397,-2.6918,-2.6884,-2.6726,-2.6487,-2.6487,-2.6487,-2.6487,-2.6487,-2.6487,-2.66,-2.6788,-2.7002,-2.7278,-2.763,-2.7984,-2.8059,-2.777,-2.7467,-2.7178,-2.7002,-2.6776,-2.6487,-2.6418,-2.6141,-2.5933,-2.5676,-2.5418,-2.5123,-4.9548,-4.8738,-4.8431,-4.7912,-4.7297,-4.7249,-4.7103,-4.6943,-4.6911,-4.6911,-4.6927,-4.7014,-4.7168,-4.7404,-4.7555,-4.6865,-4.5489,-4.4706,-4.3972,-4.3287,-4.3027,-4.2929,-4.2898,-4.2805,-4.2759,-4.2743,-4.2618,-4.2602,-4.2602,-4.2602,-4.1873,-4.0561,-4.015,-3.9294,-3.807,-3.7417,-3.7103,-3.6996,-3.7118,-3.6856,-3.6132,-3.6002,-3.5431,-3.436,-3.3846,-3.3501,-3.3216,-3.317,-3.2871,-3.2273,-3.2168,-3.1959,-3.1555,-3.1496,-3.1496,-3.1496,-3.1496,-3.1496,-3.1496,-3.1496,-3.1496,-3.1496,-3.1496,-3.1496,-3.1496,-3.1496,-3.138,-3.1219,-3.1014,-3.0792,-3.0447,-3.0127,-2.9851,-2.9665,-2.9602,-2.9602,-2.9571,-2.9275,-2.9275,-2.9446,-2.9306,-2.9103,-2.8994,-2.8436,-2.8241,-2.8546,-2.7577,-2.7108,-2.6952,-2.676,-2.6487,-2.6487,-2.6487,-2.6487,-2.6487,-2.6487,-2.67,-2.6901,-2.6964,-2.7203,-2.7442,-2.7795,-2.7908,-2.7595,-2.7341,-2.704,-2.6776,-2.6562,-2.6487,-2.6487,-2.6418,-2.6245,-2.6072,-2.5968,-2.5699,-5.0115,-4.9904,-4.9285,-4.8544,-4.7929,-4.7831,-4.7508,-4.6941,-4.6911,-4.6911,-4.6945,-4.7218,-4.7371,-4.7521,-4.7853,-4.7587,-4.6874,-4.6046,-4.5253,-4.4464,-4.3803,-4.3489,-4.3429,-4.3127,-4.299,-4.299,-4.2743,-4.2602,-4.2602,-4.257,-4.1874,-4.0739,-4.0407,-3.9608,-3.8351,-3.7772,-3.7373,-3.6982,-3.6616,-3.5769,-3.4378,-3.4668,-3.4182,-3.2779,-3.2627,-3.2617,-3.2557,-3.2497,-3.2228,-3.166,-3.1555,-3.1511,-3.1511,-3.1496,-3.1496,-3.1496,-3.1496,-3.1496,-3.1496,-3.1496,-3.1496,-3.1496,-3.1496,-3.1496,-3.1496,-3.1496,-3.1467,-3.1409,-3.1219,-3.097,-3.0911,-3.0687,-3.031,-2.9741,-2.9665,-2.9665,-2.9602,-2.9602,-2.9602,-2.9602,-2.954,-2.9571,-2.9571,-2.9306,-2.8944,-2.843,-2.7941,-2.751,-2.6952,-2.6692,-2.6521,-2.6487,-2.6487,-2.6487,-2.6487,-2.6524,-2.6826,-2.7042,-2.709,-2.7203,-2.7366,-2.7632,-2.7708,-2.753,-2.7429,-2.7128,-2.6675,-2.6487,-2.6487,-2.6487,-2.6499,-2.6499,-2.6349,-2.6245,-2.6314,-5.0568,-5.0034,-4.9337,-4.8605,-4.7977,-4.7475,-4.7087,-4.6892,-4.6911,-4.6911,-4.6945,-4.7236,-4.7555,-4.7853,-4.8179,-4.8334,-4.8236,-4.7093,-4.5858,-4.4749,-4.3746,-4.3279,-4.3235,-4.2929,-4.2759,-4.2759,-4.2649,-4.2602,-4.2602,-4.2602,-4.1874,-4.0709,-4.018,-3.9308,-3.8014,-3.7417,-3.7027,-3.6936,-3.7118,-3.6657,-3.5661,-3.5461,-3.4896,-3.3849,-3.2976,-3.2497,-3.2467,-3.2049,-3.172,-3.1496,-3.1496,-3.1496,-3.1496,-3.1496,-3.1496,-3.1496,-3.1496,-3.1496,-3.1496,-3.1496,-3.1496,-3.1496,-3.1496,-3.1496,-3.1496,-3.1496,-3.1496,-3.1496,-3.1365,-3.1278,-3.1029,-3.094,-3.0598,-3.0005,-2.9958,-2.9834,-2.9634,-2.9602,-2.9602,-2.9602,-2.9602,-2.9602,-2.954,-2.9369,-2.9103,-2.8958,-2.8189,-2.743,-2.7443,-2.6918,-2.6521,-2.6487,-2.6487,-2.6555,-2.6611,-2.6645,-2.6788,-2.693,-2.6958,-2.6939,-2.7153,-2.7266,-2.7354,-2.7404,-2.7316,-2.7102,-2.6663,-2.6487,-2.6487,-2.6487,-2.6487,-2.6487,-2.6487,-2.6487,-2.6487,-5.0924,-5.0438,-4.9726,-4.9013,-4.8333,-4.7605,-4.7135,-4.6943,-4.6911,-4.6961,-4.715,-4.7471,-4.7836,-4.8212,-4.8547,-4.8815,-4.8849,-4.7462,-4.6309,-4.5334,-4.4039,-4.3492,-4.3416,-4.3143,-4.2805,-4.2649,-4.2728,-4.2728,-4.2602,-4.2554,-4.1905,-4.0647,-4.018,-3.937,-3.8033,-3.7462,-3.7208,-3.7193,-3.7134,-3.6691,-3.5999,-3.5769,-3.5125,-3.3876,-3.317,-3.2662,-3.2198,-3.1705,-3.1496,-3.1496,-3.1496,-3.1496,-3.1496,-3.1496,-3.1496,-3.1496,-3.1496,-3.1496,-3.1496,-3.1496,-3.1496,-3.1496,-3.1496,-3.1496,-3.1496,-3.1496,-3.1496,-3.1496,-3.1496,-3.1409,-3.1263,-3.119,-3.0896,-3.0355,-3.0142,-2.9958,-2.9665,-2.9602,-2.9602,-2.9602,-2.9602,-2.9602,-2.9509,-2.9369,-2.9135,-2.9135,-2.8449,-2.7683,-2.7875,-2.7456,-2.7121,-2.685,-2.6816,-2.685,-2.6769,-2.6782,-2.6782,-2.6777,-2.6746,-2.6694,-2.6725,-2.6763,-2.6826,-2.6927,-2.6901,-2.6864,-2.6499,-2.6487,-2.6487,-2.6487,-2.6436,-2.6487,-2.6487,-2.6487,-2.6487,-5.1221,-5.1124,-5.0341,-4.9564,-4.8884,-4.8139,-4.7443,-4.6941,-4.6911,-4.7082,-4.7421,-4.7754,-4.8147,-4.8483,-4.8815,-4.897,-4.8748,-4.7479,-4.6769,-4.6165,-4.4938,-4.3964,-4.3848,-4.3578,-4.3188,-4.2774,-4.2929,-4.2898,-4.2602,-4.2602,-4.1874,-4.0642,-4.0418,-3.98,-3.8508,-3.7934,-3.773,-3.7626,-3.6937,-3.6261,-3.563,-3.5549,-3.4919,-3.3201,-3.3337,-3.3006,-3.2283,-3.1834,-3.1568,-3.1496,-3.1496,-3.1496,-3.1496,-3.1496,-3.1496,-3.1496,-3.1496,-3.1496,-3.1496,-3.1496,-3.1496,-3.1496,-3.1496,-3.1496,-3.1496,-3.1496,-3.1496,-3.1496,-3.1496,-3.1511,-3.1482,-3.1467,-3.1176,-3.0702,-3.0264,-2.9896,-2.9665,-2.9602,-2.9602,-2.9602,-2.9602,-2.9602,-2.9602,-2.954,-2.9338,-2.9071,-2.8803,-2.8481,-2.8203,-2.7908,-2.7729,-2.7497,-2.7276,-2.7276,-2.7276,-2.7276,-2.7255,-2.6939,-2.6778,-2.6591,-2.6445,-2.6424,-2.6336,-2.6424,-2.6675,-2.66,-2.6399,-2.6285,-2.6273,-2.6248,-2.6285,-2.6424,-2.6487,-2.6487,-2.6487,-5.1221,-5.1054,-4.9839,-4.9155,-4.8799,-4.7718,-4.7087,-4.6927,-4.6911,-4.71,-4.7454,-4.782,-4.8212,-4.8498,-4.8829,-4.9018,-4.8646,-4.7462,-4.6786,-4.6503,-4.493,-4.4015,-4.3772,-4.3654,-4.3369,-4.3021,-4.3052,-4.2945,-4.2634,-4.2602,-4.1842,-4.0545,-4.048,-3.9784,-3.8574,-3.8266,-3.8237,-3.8193,-3.7976,-3.7517,-3.6971,-3.6462,-3.6174,-3.5781,-3.4412,-3.3829,-3.3779,-3.2695,-3.1824,-3.1524,-3.1496,-3.1496,-3.1496,-3.1496,-3.1496,-3.1496,-3.1496,-3.1496,-3.1496,-3.1496,-3.1496,-3.1496,-3.1496,-3.1496,-3.1496,-3.1496,-3.1496,-3.1496,-3.1496,-3.1496,-3.1496,-3.1496,-3.1248,-3.0881,-3.028,-2.9758,-2.9665,-2.9602,-2.9602,-2.9602,-2.9602,-2.9602,-2.9602,-2.9602,-2.9526,-2.9338,-2.9071,-2.8789,-2.861,-2.8333,-2.8091,-2.7973,-2.7809,-2.7809,-2.7796,-2.7809,-2.7643,-2.7229,-2.6938,-2.6582,-2.6405,-2.626,-2.6097,-2.5996,-2.6663,-2.6788,-2.6197,-2.5762,-2.5845,-2.6009,-2.6172,-2.6311,-2.6436,-2.6487,-2.6487,-5.1221,-5.107,-4.9629,-4.8994,-4.8799,-4.7508,-4.6979,-4.7082,-4.7116,-4.7404,-4.782,-4.8098,-4.8405,-4.8704,-4.8909,-4.9001,-4.8815,-4.7462,-4.6819,-4.6519,-4.5091,-4.4118,-4.3726,-4.3713,-4.3565,-4.3157,-4.3248,-4.3052,-4.2696,-4.2602,-4.181,-4.0739,-4.0496,-3.9768,-3.8489,-3.8391,-3.8391,-3.8335,-3.8221,-3.7934,-3.7653,-3.7067,-3.6258,-3.5823,-3.4496,-3.399,-3.3422,-3.2418,-3.184,-3.1754,-3.1611,-3.1496,-3.1496,-3.1496,-3.1496,-3.1496,-3.1496,-3.1496,-3.1496,-3.1496,-3.1496,-3.1496,-3.1496,-3.1496,-3.1496,-3.1496,-3.1496,-3.1496,-3.1496,-3.1496,-3.1482,-3.138,-3.1219,-3.097,-3.0417,-2.996,-2.9834,-2.9696,-2.9602,-2.9602,-2.9602,-2.9602,-2.9602,-2.9602,-2.9602,-2.954,-2.9369,-2.923,-2.9117,-2.8785,-2.8527,-2.8398,-2.8333,-2.832,-2.8352,-2.8352,-2.8137,-2.7729,-2.6982,-2.6614,-2.6536,-2.6299,-2.5996,-2.6055,-2.66,-2.6688,-2.5904,-2.5451,-2.5674,-2.585,-2.6025,-2.6197,-2.6323,-2.626,-2.6285,-5.1221,-5.1054,-4.9694,-4.9094,-4.8871,-4.7659,-4.7282,-4.7421,-4.7471,-4.782,-4.8356,-4.8483,-4.8642,-4.9001,-4.897,-4.9001,-4.8917,-4.7462,-4.6718,-4.6109,-4.5122,-4.4281,-4.3873,-4.3964,-4.3671,-4.3235,-4.3446,-4.3143,-4.2728,-4.2602,-4.184,-4.0894,-4.0569,-3.9778,-3.878,-3.8476,-3.842,-3.8335,-3.8078,-3.7934,-3.777,-3.7252,-3.6423,-3.5363,-3.457,-3.3537,-3.2492,-3.1783,-3.1783,-3.2191,-3.1739,-3.1524,-3.1496,-3.1496,-3.1496,-3.1496,-3.1496,-3.1496,-3.1496,-3.1496,-3.1496,-3.1496,-3.1496,-3.1496,-3.1496,-3.1496,-3.1496,-3.1496,-3.1496,-3.1496,-3.1482,-3.1263,-3.1146,-3.1058,-3.0777,-3.0447,-3.0172,-2.9865,-2.9634,-2.9634,-2.9634,-2.9602,-2.9602,-2.9602,-2.9602,-2.9602,-2.9477,-2.9446,-2.9415,-2.9275,-2.9053,-2.8912,-2.8881,-2.8881,-2.8867,-2.8899,-2.8578,-2.8163,-2.7203,-2.6721,-2.6814,-2.6587,-2.619,-2.6186,-2.6722,-2.6303,-2.5293,-2.5178,-2.5547,-2.5498,-2.5511,-2.5824,-2.6147,-2.5887,-2.5824,-5.1221,-5.1102,-5.0228,-4.9729,-4.9377,-4.8546,-4.8047,-4.7869,-4.7869,-4.8115,-4.8452,-4.8515,-4.8704,-4.9001,-4.9018,-4.9018,-4.8815,-4.7462,-4.6244,-4.5026,-4.4852,-4.4542,-4.4281,-4.4184,-4.373,-4.3325,-4.3188,-4.3021,-4.2728,-4.2567,-4.2012,-4.0985,-4.0707,-4.0116,-3.8879,-3.8655,-3.86,-3.842,-3.825,-3.8221,-3.808,-3.758,-3.6961,-3.6218,-3.5051,-3.3983,-3.3161,-3.2413,-3.2135,-3.2051,-3.1768,-3.1496,-3.1496,-3.1496,-3.1496,-3.1496,-3.1496,-3.1496,-3.1496,-3.1496,-3.1496,-3.1496,-3.1496,-3.1496,-3.1496,-3.1496,-3.1496,-3.1496,-3.1496,-3.1496,-3.1467,-3.1453,-3.138,-3.1248,-3.0955,-3.0628,-3.0462,-3.0189,-2.9958,-2.9896,-2.9741,-2.9602,-2.9602,-2.9602,-2.9602,-2.9602,-2.9602,-2.9602,-2.9602,-2.9602,-2.9477,-2.9275,-2.9275,-2.9243,-2.9212,-2.9135,-2.8803,-2.8481,-2.7617,-2.7025,-2.7121,-2.6902,-2.6478,-2.6511,-2.6778,-2.6051,-2.5027,-2.5326,-2.581,-2.5418,-2.5021,-2.531,-2.5498,-2.5398,-2.541,-5.0988,-5.132,-4.9968,-4.951,-4.9646,-4.8758,-4.8266,-4.8229,-4.8244,-4.8436,-4.869,-4.8736,-4.8829,-4.9001,-4.9018,-4.9018,-4.8663,-4.7462,-4.6036,-4.4919,-4.4598,-4.4514,-4.4372,-4.4184,-4.3894,-4.3565,-4.3582,-4.3402,-4.3127,-4.2921,-4.2376,-4.1036,-4.0951,-4.005,-3.8823,-3.8628,-3.8516,-3.842,-3.8391,-3.8391,-3.8294,-3.8051,-3.7062,-3.611,-3.4535,-3.3243,-3.2502,-3.2107,-3.1896,-3.1811,-3.164,-3.1496,-3.1496,-3.1496,-3.1496,-3.1496,-3.1496,-3.1496,-3.1496,-3.1496,-3.1496,-3.1496,-3.1496,-3.1496,-3.1496,-3.1496,-3.1496,-3.1496,-3.1496,-3.1496,-3.1496,-3.1496,-3.1496,-3.1467,-3.1234,-3.1029,-3.091,-3.0371,-2.9865,-2.9834,-2.9696,-2.9634,-2.9602,-2.9634,-2.9602,-2.9602,-2.9602,-2.9602,-2.9602,-2.9602,-2.9602,-2.9509,-2.954,-2.954,-2.9477,-2.9306,-2.8962,-2.861,-2.8103,-2.7729,-2.7677,-2.7262,-2.6784,-2.6894,-2.6966,-2.5942,-2.5154,-2.5608,-2.5614,-2.4842,-2.4531,-2.477,-2.4996,-2.5184,-2.5159,-5.0823,-5.1559,-4.9555,-4.9236,-4.9741,-4.8763,-4.8443,-4.8547,-4.8578,-4.8704,-4.897,-4.9018,-4.897,-4.9018,-4.9018,-4.8934,-4.8308,-4.7462,-4.602,-4.475,-4.4598,-4.4485,-4.4315,-4.4258,-4.42,-4.4172,-4.3981,-4.3743,-4.3578,-4.3479,-4.264,-4.1329,-4.107,-4.0152,-3.8869,-3.8476,-3.8476,-3.842,-3.8391,-3.8391,-3.8391,-3.8282,-3.7267,-3.5452,-3.3684,-3.2556,-3.1972,-3.1668,-3.1524,-3.1496,-3.1496,-3.1496,-3.1496,-3.1496,-3.1496,-3.1496,-3.1496,-3.1496,-3.1496,-3.1496,-3.1496,-3.1496,-3.1496,-3.1496,-3.1496,-3.1496,-3.1496,-3.1496,-3.1496,-3.1496,-3.1496,-3.1496,-3.1496,-3.1482,-3.1482,-3.1438,-3.1219,-3.0417,-2.9974,-2.9943,-3.0005,-2.9943,-2.982,-2.9772,-2.9665,-2.9602,-2.9602,-2.9602,-2.9602,-2.9602,-2.9602,-2.9602,-2.9602,-2.9602,-2.9571,-2.954,-2.9198,-2.8976,-2.856,-2.8463,-2.832,-2.8198,-2.7849,-2.7223,-2.6831,-2.6039,-2.5561,-2.5751,-2.5405,-2.438,-2.406,-2.4305,-2.4653,-2.4991,-2.4795,-5.1102,-5.1206,-5.0231,-4.9774,-4.9642,-4.9391,-4.9132,-4.8928,-4.8877,-4.894,-4.9001,-4.9018,-4.9018,-4.9018,-4.9018,-4.8359,-4.7479,-4.6769,-4.5969,-4.4801,-4.4598,-4.4514,-4.4485,-4.4457,-4.4502,-4.4327,-4.408,-4.3772,-4.3667,-4.3525,-4.285,-4.1654,-4.1312,-4.0412,-3.9208,-3.8722,-3.8544,-3.842,-3.8391,-3.8391,-3.8294,-3.8056,-3.7275,-3.5331,-3.3622,-3.2583,-3.2057,-3.1697,-3.1496,-3.1496,-3.1496,-3.1496,-3.1496,-3.1496,-3.1496,-3.1496,-3.1496,-3.1496,-3.1496,-3.1496,-3.1496,-3.1496,-3.1496,-3.1496,-3.1496,-3.1496,-3.1496,-3.1496,-3.1496,-3.1496,-3.1496,-3.1496,-3.1496,-3.1438,-3.1322,-3.1161,-3.1073,-3.0777,-3.0477,-3.0523,-3.0447,-3.0249,-3.0036,-2.9834,-2.9741,-2.9634,-2.9602,-2.9602,-2.9602,-2.9602,-2.9602,-2.9602,-2.9602,-2.9602,-2.9602,-2.9571,-2.9477,-2.9432,-2.9212,-2.9212,-2.9149,-2.9306,-2.8975,-2.7924,-2.7461,-2.7128,-2.6698,-2.6153,-2.5266,-2.4349,-2.4088,-2.3931,-2.4108,-2.4293,-2.3923,-5.0609,-5.0808,-4.9759,-4.9523,-4.9747,-4.9443,-4.92,-4.9021,-4.9018,-4.9018,-4.9018,-4.9018,-4.9018,-4.9018,-4.9018,-4.8173,-4.7039,-4.6346,-4.5618,-4.4767,-4.4598,-4.4598,-4.4598,-4.4598,-4.4598,-4.4514,-4.427,-4.3977,-4.3889,-4.4051,-4.3215,-4.2072,-4.1572,-4.0666,-3.9413,-3.8767,-3.8565,-3.8391,-3.8391,-3.8197,-3.7806,-3.7459,-3.6251,-3.4848,-3.3754,-3.2779,-3.1913,-3.1668,-3.1496,-3.1496,-3.1496,-3.1496,-3.1496,-3.1496,-3.1496,-3.1496,-3.1496,-3.1496,-3.1496,-3.1496,-3.1496,-3.1496,-3.1496,-3.1496,-3.1496,-3.1496,-3.1496,-3.1496,-3.1496,-3.1496,-3.1496,-3.1496,-3.1496,-3.1467,-3.1351,-3.1263,-3.1234,-3.1117,-3.1073,-3.097,-3.0538,-3.0249,-3.008,-2.9927,-2.9772,-2.9665,-2.9602,-2.9602,-2.9602,-2.9602,-2.9602,-2.9602,-2.9602,-2.9532,-2.9546,-2.9574,-2.949,-2.9476,-2.9602,-2.9602,-2.9602,-2.9571,-2.8993,-2.8053,-2.7823,-2.7818,-2.6823,-2.595,-2.5136,-2.44,-2.4082,-2.3838,-2.3634,-2.3446,-2.3296,-5.0381,-5.0588,-4.9196,-4.9072,-4.968,-4.9272,-4.9018,-4.9018,-4.9018,-4.9018,-4.9018,-4.9018,-4.9018,-4.8968,-4.8663,-4.7953,-4.6616,-4.594,-4.5331,-4.475,-4.4598,-4.4598,-4.4598,-4.4598,-4.4598,-4.457,-4.4542,-4.444,-4.427,-4.4384,-4.365,-4.2555,-4.1801,-4.088,-3.9716,-3.8813,-3.8517,-3.8391,-3.8375,-3.8035,-3.7247,-3.6257,-3.5193,-3.4017,-3.3523,-3.2747,-3.1687,-3.1524,-3.1496,-3.1496,-3.1496,-3.1496,-3.1496,-3.1496,-3.1496,-3.1496,-3.1496,-3.1496,-3.1496,-3.1496,-3.1496,-3.1496,-3.1496,-3.1496,-3.1496,-3.1496,-3.1496,-3.1496,-3.1496,-3.1496,-3.1496,-3.1496,-3.1496,-3.1496,-3.1496,-3.1496,-3.1467,-3.138,-3.1292,-3.1043,-3.0552,-3.028,-3.0142,-3.0019,-2.9865,-2.9665,-2.9602,-2.9602,-2.9602,-2.9602,-2.9602,-2.9602,-2.9574,-2.9476,-2.9462,-2.9518,-2.9378,-2.9209,-2.9448,-2.9602,-2.9602,-2.9602,-2.8938,-2.8367,-2.8209,-2.7982,-2.6857,-2.5912,-2.5299,-2.4721,-2.4138,-2.3713,-2.3452,-2.3389,-2.3308,-5.1367,-5.0693,-4.9463,-4.9021,-4.9137,-4.9052,-4.9018,-4.9018,-4.9018,-4.9018,-4.9018,-4.9001,-4.9001,-4.8781,-4.8206,-4.7175,-4.621,-4.5652,-4.5229,-4.4666,-4.4598,-4.4598,-4.4598,-4.4598,-4.4598,-4.4598,-4.4598,-4.457,-4.4514,-4.4542,-4.4047,-4.2946,-4.1941,-4.0998,-4.0062,-3.8979,-3.8424,-3.8391,-3.8375,-3.8003,-3.7171,-3.5986,-3.4902,-3.3964,-3.328,-3.2609,-3.1799,-3.164,-3.1582,-3.1553,-3.1524,-3.1496,-3.1496,-3.1496,-3.1496,-3.1496,-3.1496,-3.1496,-3.1496,-3.1496,-3.1496,-3.1496,-3.1496,-3.1496,-3.1496,-3.1496,-3.1496,-3.1496,-3.1496,-3.1496,-3.1496,-3.1496,-3.1496,-3.1496,-3.1496,-3.1496,-3.1496,-3.1496,-3.1424,-3.1263,-3.0807,-3.0462,-3.0264,-3.0111,-2.9958,-2.9772,-2.9602,-2.9602,-2.9602,-2.9634,-2.9602,-2.9602,-2.9588,-2.949,-2.9462,-2.9504,-2.9392,-2.9111,-2.9307,-2.9588,-2.956,-2.9532,-2.942,-2.8954,-2.8619,-2.8033,-2.707,-2.6223,-2.5627,-2.5113,-2.4613,-2.3931,-2.3241,-2.3226,-2.3392,-5.1109,-5.0142,-4.9607,-4.9229,-4.9001,-4.9018,-4.9018,-4.9018,-4.9018,-4.9018,-4.9018,-4.9001,-4.8798,-4.8193,-4.7212,-4.6346,-4.5703,-4.5297,-4.4925,-4.4682,-4.4598,-4.4598,-4.4598,-4.4598,-4.4598,-4.4598,-4.4598,-4.4598,-4.4598,-4.4525,-4.4136,-4.3335,-4.2294,-4.1466,-4.0578,-3.9317,-3.877,-3.8486,-3.8098,-3.7436,-3.6675,-3.5808,-3.4819,-3.3745,-3.3459,-3.29,-3.232,-3.1994,-3.191,-3.184,-3.1697,-3.1496,-3.1496,-3.1496,-3.1496,-3.1496,-3.1496,-3.1496,-3.1496,-3.1496,-3.1496,-3.1496,-3.1496,-3.1496,-3.1496,-3.1496,-3.1496,-3.1496,-3.1496,-3.1496,-3.1496,-3.1496,-3.1496,-3.1496,-3.1496,-3.1496,-3.1496,-3.1511,-3.1453,-3.1263,-3.1102,-3.0777,-3.0492,-3.028,-3.0189,-3.0066,-2.9851,-2.9665,-2.9696,-2.9696,-2.9665,-2.9602,-2.9574,-2.9532,-2.9518,-2.9532,-2.9532,-2.935,-2.935,-2.9546,-2.949,-2.9434,-2.9139,-2.8591,-2.7858,-2.7357,-2.6987,-2.663,-2.6072,-2.5563,-2.5127,-2.4367,-2.3637,-2.3501,-2.3535,-5.08,-4.9854,-4.9619,-4.932,-4.9018,-4.9018,-4.9018,-4.9018,-4.9018,-4.89,-4.8697,-4.8477,-4.7986,-4.728,-4.6295,-4.5686,-4.5348,-4.4852,-4.4649,-4.4598,-4.4598,-4.4598,-4.4598,-4.4598,-4.4598,-4.4598,-4.4598,-4.4598,-4.4598,-4.4542,-4.4355,-4.3794,-4.2785,-4.1994,-4.1222,-4.0128,-3.921,-3.8821,-3.7987,-3.7297,-3.668,-3.5857,-3.4808,-3.3988,-3.3513,-3.3212,-3.2557,-3.2176,-3.1994,-3.1896,-3.1668,-3.1496,-3.1496,-3.1496,-3.1496,-3.1496,-3.1496,-3.1496,-3.1496,-3.1496,-3.1496,-3.1496,-3.1496,-3.1496,-3.1496,-3.1496,-3.1496,-3.1496,-3.1496,-3.1496,-3.1496,-3.1496,-3.1496,-3.1496,-3.1496,-3.1496,-3.1496,-3.1511,-3.1482,-3.138,-3.1248,-3.1161,-3.0836,-3.0538,-3.0417,-3.0371,-3.0158,-2.982,-2.9758,-2.9758,-2.9696,-2.9602,-2.9588,-2.949,-2.9307,-2.935,-2.942,-2.9448,-2.9448,-2.935,-2.9195,-2.8844,-2.8436,-2.779,-2.7214,-2.7338,-2.7397,-2.6955,-2.6515,-2.6042,-2.5534,-2.4773,-2.422,-2.3982,-2.3636,-5.0757,-5.0285,-4.9411,-4.9049,-4.9018,-4.9018,-4.9001,-4.89,-4.8951,-4.8562,-4.7906,-4.7293,-4.6667,-4.6024,-4.5754,-4.5246,-4.4733,-4.4632,-4.4598,-4.4598,-4.4598,-4.4598,-4.4598,-4.4598,-4.4598,-4.4598,-4.4598,-4.4598,-4.4598,-4.4598,-4.4542,-4.4345,-4.316,-4.2512,-4.166,-4.0514,-3.9577,-3.9034,-3.8139,-3.7671,-3.7047,-3.6141,-3.4872,-3.4038,-3.3236,-3.248,-3.171,-3.1768,-3.1796,-3.1796,-3.1582,-3.1496,-3.1496,-3.1496,-3.1496,-3.1496,-3.1496,-3.1496,-3.1496,-3.1496,-3.1496,-3.1496,-3.1496,-3.1496,-3.1496,-3.1496,-3.1496,-3.1496,-3.1496,-3.1436,-3.1451,-3.1496,-3.1481,-3.1331,-3.1346,-3.1496,-3.1496,-3.1496,-3.1496,-3.1467,-3.1409,-3.1278,-3.1161,-3.0866,-3.0717,-3.0702,-3.031,-2.9974,-2.982,-2.9789,-2.9696,-2.9634,-2.9602,-2.942,-2.8998,-2.9069,-2.935,-2.9195,-2.9026,-2.89,-2.8731,-2.8326,-2.7777,-2.7579,-2.72,-2.7538,-2.7579,-2.6759,-2.6264,-2.6331,-2.5899,-2.501,-2.4347,-2.3956,-2.3649,-5.0397,-4.9913,-4.9277,-4.9018,-4.9018,-4.9018,-4.8748,-4.8376,-4.8294,-4.7919,-4.7175,-4.6464,-4.5974,-4.5635,-4.5162,-4.4891,-4.4632,-4.4598,-4.4598,-4.4598,-4.4598,-4.4598,-4.4598,-4.4598,-4.4598,-4.4598,-4.4598,-4.4598,-4.4598,-4.4598,-4.4598,-4.422,-4.3215,-4.2608,-4.1765,-4.0621,-3.9603,-3.9051,-3.8439,-3.8002,-3.7265,-3.6529,-3.5481,-3.4728,-3.3994,-3.3513,-3.3113,-3.2574,-3.2382,-3.2132,-3.1739,-3.1553,-3.1496,-3.1496,-3.1496,-3.1496,-3.1496,-3.1496,-3.1496,-3.1496,-3.1496,-3.1496,-3.1496,-3.1496,-3.1496,-3.1496,-3.1496,-3.1496,-3.1496,-3.1421,-3.0957,-3.1212,-3.1406,-3.1152,-3.1137,-3.1346,-3.1406,-3.1361,-3.1481,-3.1466,-3.1481,-3.1438,-3.1307,-3.1146,-3.1073,-3.0999,-3.0538,-3.0144,-2.9974,-2.9789,-2.9696,-2.9665,-2.9634,-2.9602,-2.9237,-2.9265,-2.935,-2.9012,-2.8647,-2.8366,-2.8127,-2.7579,-2.713,-2.7088,-2.7003,-2.6947,-2.6708,-2.619,-2.6077,-2.642,-2.5914,-2.502,-2.4481,-2.4015,-2.3767,-5.0004,-4.9353,-4.8893,-4.8663,-4.868,-4.868,-4.8274,-4.7648,-4.7581,-4.7158,-4.643,-4.572,-4.5365,-4.5196,-4.4891,-4.4649,-4.4598,-4.4598,-4.4598,-4.4598,-4.4598,-4.4598,-4.4598,-4.4598,-4.4598,-4.4598,-4.4598,-4.4598,-4.4598,-4.4598,-4.4367,-4.3859,-4.3031,-4.2455,-4.1885,-4.0527,-3.9382,-3.9169,-3.8892,-3.8614,-3.8019,-3.7166,-3.6115,-3.5305,-3.4404,-3.3509,-3.302,-3.2382,-3.2244,-3.2048,-3.1809,-3.1553,-3.1496,-3.1496,-3.1496,-3.1496,-3.1496,-3.1496,-3.1496,-3.1496,-3.1496,-3.1496,-3.1496,-3.1496,-3.1496,-3.1496,-3.1496,-3.1496,-3.1481,-3.1286,-3.0763,-3.1241,-3.1197,-3.0913,-3.0868,-3.1017,-3.1032,-3.1032,-3.1271,-3.1436,-3.1361,-3.1197,-3.1423,-3.1263,-3.1073,-3.0911,-3.0462,-3.0158,-3.0097,-2.9882,-2.9696,-2.9665,-2.9665,-2.9634,-2.9588,-2.9307,-2.9043,-2.8717,-2.8324,-2.7804,-2.7425,-2.6905,-2.6568,-2.6497,-2.6385,-2.6231,-2.6105,-2.5951,-2.6259,-2.6666,-2.5918,-2.5014,-2.4646,-2.4221,-2.4063,-4.9658,-4.8609,-4.8129,-4.7906,-4.7838,-4.7906,-4.7513,-4.6853,-4.6735,-4.6346,-4.5686,-4.4993,-4.4733,-4.4699,-4.4632,-4.4598,-4.4598,-4.4598,-4.4598,-4.4598,-4.4598,-4.4598,-4.4598,-4.4598,-4.4598,-4.4598,-4.4598,-4.4598,-4.4598,-4.4598,-4.4215,-4.347,-4.2675,-4.2066,-4.21,-4.0815,-4.0096,-4.0011,-3.9677,-3.9385,-3.901,-3.8001,-3.674,-3.5785,-3.4684,-3.3743,-3.2884,-3.229,-3.2079,-3.1881,-3.1697,-3.1511,-3.1496,-3.1496,-3.1496,-3.1496,-3.1496,-3.1496,-3.1496,-3.1496,-3.1496,-3.1496,-3.1496,-3.1496,-3.1496,-3.1496,-3.1496,-3.1496,-3.1496,-3.1451,-3.1406,-3.1421,-3.1062,-3.0688,-3.0657,-3.0778,-3.0851,-3.1016,-3.1286,-3.1451,-3.1017,-3.0776,-3.1197,-3.1379,-3.1087,-3.0807,-3.0357,-3.0189,-3.028,-3.0127,-2.9943,-2.9991,-3.0036,-2.982,-2.969,-2.9118,-2.8736,-2.841,-2.7945,-2.7383,-2.6891,-2.6455,-2.6174,-2.6006,-2.6006,-2.6034,-2.5978,-2.5907,-2.6202,-2.6357,-2.5771,-2.5073,-2.4736,-2.4465,-2.4279,-4.8645,-4.8194,-4.7481,-4.6887,-4.6566,-4.6989,-4.6752,-4.6075,-4.5568,-4.5207,-4.4987,-4.4666,-4.4598,-4.4598,-4.4598,-4.4598,-4.4598,-4.4598,-4.4598,-4.4598,-4.4598,-4.4598,-4.4598,-4.4598,-4.4598,-4.4598,-4.4598,-4.4598,-4.4598,-4.4598,-4.4113,-4.3352,-4.2168,-4.1339,-4.0814,-4.0079,-3.9833,-3.9729,-3.9415,-3.9061,-3.8995,-3.8063,-3.7188,-3.6564,-3.5374,-3.4236,-3.3246,-3.2659,-3.2191,-3.1938,-3.1783,-3.1597,-3.1553,-3.1553,-3.1496,-3.1496,-3.1496,-3.1496,-3.1496,-3.1496,-3.1496,-3.1496,-3.1496,-3.1496,-3.1496,-3.1496,-3.1496,-3.1496,-3.1496,-3.1331,-3.0913,-3.1301,-3.1077,-3.0387,-3.0313,-3.0717,-3.0911,-3.1167,-3.1406,-3.1466,-3.1212,-3.1077,-3.1301,-3.1361,-3.1129,-3.1116,-3.0807,-3.0821,-3.091,-3.0642,-3.0431,-3.0507,-3.0507,-3.0219,-2.9864,-2.9158,-2.8542,-2.8129,-2.7537,-2.6863,-2.6399,-2.6117,-2.6074,-2.6045,-2.5976,-2.5921,-2.5948,-2.5989,-2.5991,-2.5896,-2.5536,-2.5314,-2.5104,-2.478,-2.4465,-4.7997,-4.7405,-4.6868,-4.6135,-4.5529,-4.6109,-4.5991,-4.5314,-4.4818,-4.4598,-4.4615,-4.4598,-4.4598,-4.4598,-4.4598,-4.4598,-4.4598,-4.4598,-4.4598,-4.4598,-4.4598,-4.4598,-4.4598,-4.4598,-4.4598,-4.4598,-4.4598,-4.4598,-4.4598,-4.4598,-4.3944,-4.2844,-4.1576,-4.0747,-4.0214,-3.9977,-3.9884,-3.9807,-3.9566,-3.9408,-3.9116,-3.8535,-3.7824,-3.707,-3.6093,-3.4936,-3.4205,-3.345,-3.2695,-3.2355,-3.212,-3.1868,-3.1796,-3.1726,-3.164,-3.1553,-3.1496,-3.1496,-3.1496,-3.1496,-3.1496,-3.1496,-3.1496,-3.1496,-3.1496,-3.1496,-3.1496,-3.1496,-3.1481,-3.1256,-3.0987,-3.1391,-3.1002,-3.0328,-3.0283,-3.0687,-3.0597,-3.0836,-3.1301,-3.1361,-3.1227,-3.1227,-3.1271,-3.1256,-3.1154,-3.1246,-3.1292,-3.1351,-3.1351,-3.1029,-3.0732,-3.0777,-3.0687,-3.0341,-2.9813,-2.9123,-2.852,-2.7905,-2.7272,-2.665,-2.6368,-2.6166,-2.6138,-2.6123,-2.6204,-2.6204,-2.6111,-2.6071,-2.6059,-2.595,-2.5716,-2.5564,-2.5453,-2.516,-2.4808,-4.7684,-4.6354,-4.6237,-4.5578,-4.4846,-4.5399,-4.5263,-4.4666,-4.4615,-4.4598,-4.4598,-4.4598,-4.4598,-4.4598,-4.4598,-4.4598,-4.4598,-4.4598,-4.4598,-4.4598,-4.4598,-4.4598,-4.4598,-4.4598,-4.4598,-4.4598,-4.4598,-4.4598,-4.4581,-4.4158,-4.343,-4.2286,-4.095,-4.035,-4.0104,-4.0062,-4.0037,-3.9969,-3.9841,-3.9696,-3.9456,-3.9176,-3.8384,-3.7546,-3.6416,-3.5302,-3.4376,-3.3454,-3.2982,-3.2749,-3.2652,-3.2465,-3.2287,-3.2163,-3.1868,-3.164,-3.1496,-3.1496,-3.1496,-3.1496,-3.1496,-3.1496,-3.1496,-3.1496,-3.1496,-3.1481,-3.1406,-3.1391,-3.1376,-3.1391,-3.1376,-3.1197,-3.1002,-3.0672,-3.0432,-3.0357,-3.0088,-3.0387,-3.0986,-3.1062,-3.0851,-3.0821,-3.0972,-3.1017,-3.1122,-3.1332,-3.1409,-3.1351,-3.1322,-3.1117,-3.091,-3.0851,-3.0702,-3.0371,-2.9847,-2.9419,-2.877,-2.8283,-2.7369,-2.6724,-2.6467,-2.6324,-2.6297,-2.6351,-2.6551,-2.6498,-2.615,-2.6069,-2.6111,-2.5975,-2.5811,-2.5784,-2.5674,-2.5564,-2.53,-4.6196,-4.5476,-4.521,-4.4896,-4.4649,-4.4852,-4.4773,-4.4615,-4.4598,-4.4598,-4.4598,-4.4598,-4.4598,-4.4598,-4.4598,-4.4598,-4.4598,-4.4598,-4.4598,-4.4598,-4.4598,-4.4598,-4.4598,-4.4598,-4.4598,-4.4598,-4.4598,-4.453,-4.4259,-4.3752,-4.2608,-4.1457,-4.0603,-4.0214,-4.0113,-4.0113,-4.0113,-4.0062,-3.9961,-3.979,-3.9566,-3.9179,-3.8586,-3.7915,-3.675,-3.5699,-3.499,-3.3841,-3.3303,-3.2911,-3.2574,-3.2302,-3.2247,-3.191,-3.1553,-3.1553,-3.1496,-3.1496,-3.1496,-3.1496,-3.1496,-3.1496,-3.1496,-3.1496,-3.1496,-3.1421,-3.1286,-3.1271,-3.1331,-3.1391,-3.1331,-3.1152,-3.0928,-3.0687,-3.0597,-3.0629,-3.0462,-3.0657,-3.1182,-3.1182,-3.0941,-3.0868,-3.1002,-3.0911,-3.1017,-3.1316,-3.1467,-3.1409,-3.1351,-3.1176,-3.1117,-3.1058,-3.0778,-3.0468,-3.0381,-3.0032,-2.9305,-2.861,-2.77,-2.6992,-2.6732,-2.659,-2.6522,-2.6563,-2.6695,-2.6445,-2.6015,-2.6069,-2.6326,-2.6056,-2.5893,-2.5893,-2.5866,-2.5757,-2.5619,-4.5727,-4.5177,-4.494,-4.4748,-4.4598,-4.4598,-4.4598,-4.4598,-4.4598,-4.4598,-4.4598,-4.4598,-4.4598,-4.4598,-4.4598,-4.4598,-4.4598,-4.4598,-4.4598,-4.4598,-4.4598,-4.4598,-4.4598,-4.4598,-4.4598,-4.4598,-4.453,-4.4367,-4.3809,-4.2692,-4.1542,-4.1238,-4.0468,-4.018,-4.0113,-4.0113,-4.0113,-4.0045,-3.9944,-3.9687,-3.9408,-3.9115,-3.8832,-3.8307,-3.7091,-3.6282,-3.5722,-3.4466,-3.366,-3.3335,-3.3007,-3.2861,-3.2672,-3.2191,-3.164,-3.1582,-3.1496,-3.1496,-3.1496,-3.1496,-3.1496,-3.1496,-3.1481,-3.1316,-3.1286,-3.1241,-3.1197,-3.1197,-3.1331,-3.1406,-3.1286,-3.1137,-3.0866,-3.0582,-3.0838,-3.1122,-3.1152,-3.1197,-3.1301,-3.1391,-3.1331,-3.1227,-3.1122,-3.0971,-3.0971,-3.1316,-3.1496,-3.1467,-3.1438,-3.1409,-3.1351,-3.1322,-3.0967,-3.0572,-3.054,-3.0261,-2.9356,-2.8631,-2.8134,-2.7491,-2.7097,-2.6893,-2.6878,-2.6852,-2.6841,-2.6578,-2.6365,-2.6445,-2.6566,-2.6299,-2.6165,-2.6245,-2.615,-2.5921,-2.5729,-4.5963,-4.5257,-4.5203,-4.4951,-4.4626,-4.4598,-4.4598,-4.4598,-4.4598,-4.4598,-4.4598,-4.4598,-4.4598,-4.4598,-4.4598,-4.4598,-4.4598,-4.4598,-4.4598,-4.4598,-4.4598,-4.4598,-4.4598,-4.4598,-4.4598,-4.4598,-4.4344,-4.3826,-4.298,-4.2006,-4.1305,-4.1102,-4.0443,-4.0113,-4.0113,-4.0113,-4.0113,-4.0087,-4.002,-3.9893,-3.9661,-3.9382,-3.9049,-3.8499,-3.7367,-3.6301,-3.5886,-3.5082,-3.4126,-3.4075,-3.3857,-3.3601,-3.2942,-3.2441,-3.1896,-3.164,-3.1496,-3.1496,-3.1496,-3.1496,-3.1496,-3.1496,-3.1481,-3.1152,-3.1047,-3.1017,-3.0987,-3.0823,-3.0868,-3.1062,-3.1017,-3.1227,-3.1137,-3.0987,-3.1122,-3.1227,-3.1197,-3.1271,-3.1406,-3.1466,-3.1451,-3.1376,-3.1361,-3.1197,-3.1167,-3.1436,-3.1496,-3.1496,-3.1496,-3.1496,-3.1496,-3.1496,-3.123,-3.0802,-3.0403,-2.9977,-2.9114,-2.8515,-2.8245,-2.7856,-2.7366,-2.7258,-2.7269,-2.71,-2.6945,-2.7023,-2.6959,-2.6855,-2.6709,-2.6604,-2.6525,-2.663,-2.6498,-2.6204,-2.6096,-4.6112,-4.5632,-4.5336,-4.4978,-4.4626,-4.4598,-4.4598,-4.4598,-4.4598,-4.4598,-4.4598,-4.4598,-4.4598,-4.4598,-4.4598,-4.4598,-4.4598,-4.4598,-4.4598,-4.4598,-4.4598,-4.4598,-4.4598,-4.4598,-4.4564,-4.4395,-4.3927,-4.3014,-4.2066,-4.1373,-4.0865,-4.0426,-4.0113,-4.0113,-4.0113,-4.0113,-4.0113,-4.0113,-4.007,-3.9969,-3.9738,-3.9525,-3.9208,-3.8375,-3.7291,-3.6549,-3.5982,-3.5053,-3.4339,-3.4,-3.3361,-3.2722,-3.1994,-3.1824,-3.1668,-3.1524,-3.1582,-3.1553,-3.1553,-3.1524,-3.1496,-3.1496,-3.1406,-3.1032,-3.0808,-3.0791,-3.0672,-3.0477,-3.0462,-3.0672,-3.0956,-3.1241,-3.1466,-3.1406,-3.1361,-3.1271,-3.1197,-3.1331,-3.1481,-3.1496,-3.1496,-3.1496,-3.1496,-3.1496,-3.1496,-3.1496,-3.1496,-3.1496,-3.1496,-3.1496,-3.1496,-3.1496,-3.1466,-3.1081,-3.0546,-2.9967,-2.9203,-2.8714,-2.8453,-2.8044,-2.7603,-2.7452,-2.7306,-2.7167,-2.7063,-2.7141,-2.71,-2.6841,-2.6736,-2.6814,-2.6841,-2.6919,-2.6841,-2.6604,-2.6578,-4.5912,-4.5503,-4.5096,-4.482,-4.4626,-4.4598,-4.4598,-4.4598,-4.4598,-4.4598,-4.4598,-4.4598,-4.4598,-4.4598,-4.4598,-4.4598,-4.4598,-4.4598,-4.4598,-4.4598,-4.4598,-4.4598,-4.4598,-4.4581,-4.4231,-4.3961,-4.2895,-4.1914,-4.1221,-4.0764,-4.0375,-4.0146,-4.0113,-4.0113,-4.0113,-4.0113,-4.0113,-4.0113,-4.0113,-3.9995,-3.9816,-3.9671,-3.9397,-3.8522,-3.7656,-3.6911,-3.6091,-3.5218,-3.4439,-3.405,-3.3662,-3.3245,-3.278,-3.259,-3.2342,-3.212,-3.1979,-3.1796,-3.1783,-3.1668,-3.1582,-3.1582,-3.1496,-3.121,-3.0966,-3.0905,-3.0597,-3.0432,-3.0447,-3.0627,-3.1077,-3.1436,-3.1481,-3.1451,-3.1436,-3.1406,-3.1376,-3.1436,-3.1496,-3.1496,-3.1496,-3.1496,-3.1496,-3.1496,-3.1496,-3.1496,-3.1496,-3.1496,-3.1496,-3.1496,-3.1496,-3.1466,-3.1421,-3.1137,-3.0586,-3.0033,-2.948,-2.9029,-2.8607,-2.8173,-2.7703,-2.7508,-2.7357,-2.7295,-2.7244,-2.7255,-2.7152,-2.7008,-2.706,-2.7229,-2.7188,-2.7137,-2.706,-2.7023,-2.6997,-4.5632,-4.5177,-4.4831,-4.4654,-4.4598,-4.4598,-4.4598,-4.4598,-4.4598,-4.4598,-4.4598,-4.4598,-4.4598,-4.4598,-4.4598,-4.4598,-4.4598,-4.4598,-4.4598,-4.4598,-4.4598,-4.4598,-4.4598,-4.4564,-4.4028,-4.3132,-4.2049,-4.1474,-4.0933,-4.051,-4.0231,-4.013,-4.0113,-4.0113,-4.0113,-4.0113,-4.0113,-4.0113,-4.0113,-4.0113,-4.0011,-3.9867,-3.951,-3.8835,-3.8074,-3.7193,-3.6455,-3.5662,-3.4702,-3.4134,-3.3917,-3.3507,-3.3288,-3.3007,-3.29,-3.2641,-3.2398,-3.2287,-3.2203,-3.2023,-3.1881,-3.1754,-3.1655,-3.147,-3.1247,-3.0897,-3.0618,-3.0591,-3.0606,-3.0718,-3.1197,-3.1466,-3.1496,-3.1496,-3.1496,-3.1496,-3.1496,-3.1496,-3.1496,-3.1496,-3.1496,-3.1496,-3.1496,-3.1496,-3.1496,-3.1496,-3.1496,-3.1496,-3.1496,-3.1496,-3.1496,-3.1406,-3.1331,-3.0972,-3.0567,-3.0223,-2.9744,-2.8996,-2.8532,-2.8158,-2.7829,-2.7614,-2.7484,-2.7534,-2.7509,-2.7433,-2.7458,-2.7408,-2.7509,-2.7509,-2.7458,-2.7357,-2.7382,-2.7357,-2.7423,-4.5862,-4.5177,-4.5096,-4.4896,-4.4626,-4.4598,-4.4598,-4.4598,-4.4598,-4.4598,-4.4598,-4.4598,-4.4598,-4.4598,-4.4598,-4.4598,-4.4598,-4.4598,-4.4598,-4.4598,-4.4598,-4.4598,-4.4479,-4.4242,-4.365,-4.2608,-4.1542,-4.095,-4.0612,-4.0282,-4.0113,-4.0113,-4.0113,-4.0113,-4.0113,-4.0113,-4.0113,-4.0113,-4.0113,-4.0113,-4.0113,-3.9919,-3.9614,-3.9168,-3.8806,-3.7855,-3.7009,-3.6339,-3.5485,-3.4652,-3.3869,-3.3553,-3.3387,-3.3272,-3.3097,-3.3044,-3.2819,-3.2738,-3.2602,-3.2465,-3.2355,-3.2327,-3.2198,-3.1918,-3.1534,-3.0988,-3.0862,-3.1031,-3.1024,-3.0969,-3.1271,-3.1436,-3.1496,-3.1496,-3.1496,-3.1496,-3.1496,-3.1496,-3.1496,-3.1496,-3.1496,-3.1496,-3.1496,-3.1496,-3.1496,-3.1496,-3.1496,-3.1496,-3.1496,-3.1496,-3.1496,-3.1406,-3.1286,-3.0957,-3.0642,-3.0507,-3.0043,-2.9205,-2.8502,-2.8173,-2.7914,-2.7675,-2.7585,-2.7585,-2.7585,-2.7534,-2.7585,-2.7585,-2.7585,-2.756,-2.756,-2.756,-2.7585,-2.7585,-2.7549]},{"header":{"parameterUnit":"m.s-1","parameterCategory":1,"la1":31.0,"la2":29.5877,"lo1":-88.7671,"lo2":-86.6584,"dy":0.0162,"dx":0.0185,"nx":115,"ny":88,"refTime":"2023-08-11T18:00:00:Z","depth":0,"parameterNumber":3,"parameterNumberName":"V-component_of_WINDS"},"data":[0.0,0.0,0.0,0.0,0.0,0.0,0.0,0.0,0.0,0.0,0.0,0.0,0.0,0.0,0.0,0.0,0.0,0.0,0.0,0.0,0.0,0.0,0.0,0.0,0.0,0.0,0.0,0.0,0.0,0.0,0.0,0.0,0.0,0.0,0.0,0.0,0.0,0.0,0.0,0.0,0.0,0.0,0.0,0.0,0.0,0.0,0.0,0.0,0.0,0.0,0.0,0.0,0.0,0.0,0.0,0.0,0.0,0.0,0.0,0.0,0.0,0.0,0.0,0.0,0.0,0.0,0.0,0.0,0.0,0.0,0.0,0.0,0.0,0.0,0.0,0.0,0.0,0.0,0.0,0.0,0.0,0.0,0.0,0.0,0.0,0.0,0.0,0.0,0.0,0.0,0.0,0.0,0.0,0.0,0.0,0.0,0.0,0.0,0.0,0.0,0.0,0.0,0.0,0.0,0.0,0.0,0.0,0.0,0.0,0.0,0.0,0.0,0.0,0.0,0.0,0.0,0.0,0.0,0.0,0.0,0.0,0.0,0.0,0.0,0.0,0.0,0.0,0.0,0.0,0.0,0.0,0.0,0.0,0.0,0.0,0.0,0.0,0.0,0.0,0.0,0.0,0.0,0.0,0.0,0.0,0.0,0.0,0.0,0.0,0.0,0.0,0.0,0.0,0.0,0.0,0.0,0.0,0.0,0.0,0.0,0.0,0.0,0.0,0.0,0.0,0.0,0.0,0.0,0.0,0.0,0.0,0.0,0.0,0.0,0.0,0.0,0.0,0.0,0.0,0.0,0.0,0.0,0.0,0.0,0.0,0.0,0.0,0.0,0.0,0.0,0.0,0.0,0.0,0.0,0.0,0.0,0.0,0.0,0.0,0.0,0.0,0.0,0.0,0.0,0.0,0.0,0.0,0.0,0.0,0.0,0.0,0.0,0.0,0.0,0.0,0.0,0.0,0.0,0.0,0.0,0.0,0.0,0.0,0.0,0.0,0.0,0.0,0.0,0.0,0.0,0.0,0.0,0.0,0.0,0.0,0.0,0.0,0.0,0.0,0.0,0.0,0.0,0.0,0.0,0.0,0.0,0.0,0.0,0.0,0.0,0.0,0.0,0.0,0.0,0.0,0.0,0.0,0.0,0.0,0.0,0.0,0.0,0.0,0.0,0.0,0.0,0.0,0.0,0.0,0.0,0.0,0.0,0.0,0.0,0.0,0.0,0.0,0.0,0.0,0.0,0.0,0.0,0.0,0.0,0.0,0.0,0.0,0.0,0.0,0.0,0.0,0.0,0.0,0.0,0.0,0.0,0.0,0.0,0.0,0.0,0.0,0.0,0.0,0.0,0.0,0.0,0.0,0.0,0.0,0.0,0.0,0.0,0.0,0.0,0.0,0.0,0.0,0.0,0.0,0.0,0.0,0.0,0.0,0.0,0.0,0.0,0.0,0.0,0.0,0.0,0.0,0.0,0.0,0.0,0.0,0.0,0.0,0.0,0.0,0.0,0.0,0.0,0.0,0.0,0.0,0.0,0.0,0.0,0.0,0.0,0.0,0.0,0.0,0.0,0.0,0.0,0.0,0.0,0.0,0.0,0.0,0.0,0.0,0.0,0.0,0.0,0.0,0.0,0.0,0.0,0.0,0.0,0.0,0.0,0.0,0.0,0.0,0.0,0.0,0.0,0.0,0.0,0.0,0.0,0.0,0.0,0.0,0.0,0.0,0.0,0.0,0.0,0.0,0.0,0.0,0.0,0.0,0.0,0.0,0.0,0.0,0.0,0.0,0.0,0.0,0.0,0.0,0.0,0.0,0.0,0.0,0.0,0.0,0.0,0.0,0.0,0.0,0.0,0.0,0.0,0.0,0.0,0.0,0.0,0.0,0.0,0.0,0.0,0.0,0.0,0.0,0.0,0.0,0.0,0.0,0.0,0.0,0.0,0.0,0.0,0.0,0.0,0.0,0.0,0.0,0.0,0.0,0.0,0.0,0.0,0.0,0.0,0.0,0.0,0.0,0.0,0.0,0.0,0.0,0.0,0.0,0.0,0.0,0.0,0.0,0.0,0.0,0.0,0.0,0.0,0.0,0.0,0.0,0.0,0.0,0.0,0.0,0.0,0.0,0.0,0.0,0.0,0.0,0.0,0.0,0.0,0.0,0.0,0.0,0.0,0.0,0.0,0.0,0.0,0.0,0.0,0.0,0.0,0.0,0.0,0.0,0.0,0.0,0.0,0.0,0.0,0.0,0.0,0.0,0.0,0.0,0.0,0.0,0.0,0.0,0.0,0.0,0.0,0.0,0.0,0.0,0.0,0.0,0.0,0.0,0.0,0.0,0.0,0.0,0.0,0.0,0.0,0.0,0.0,0.0,0.0,0.0,0.0,0.0,0.0,0.0,0.0,0.0,0.0,0.0,0.0,0.0,0.0,0.0,0.0,0.0,0.0,0.0,0.0,0.0,0.0,0.0,0.0,0.0,0.0,0.0,0.0,0.0,0.0,0.0,0.0,0.0,0.0,0.0,0.0,0.0,0.0,0.0,0.0,0.0,0.0,0.0,0.0,0.0,0.0,0.0,0.0,0.0,0.0,0.0,0.0,0.0,0.0,0.0,0.0,0.0,0.0,0.0,0.0,0.0,0.0,0.0,0.0,0.0,0.0,0.0,0.0,0.0,0.0,0.0,0.0,0.0,0.0,0.0,0.0,0.0,0.0,0.0,0.0,0.0,0.0,0.0,0.0,0.0,0.0,0.0,0.0,0.0,0.0,0.0,0.0,0.0,0.0,0.0,0.0,0.0,0.0,0.0,0.0,0.0,0.0,0.0,0.0,0.0,0.0,0.0,0.0,0.0,0.0,0.0,0.0,0.0,0.0,0.0,0.0,0.0,0.0,0.0,0.0,0.0,0.0,0.0,0.0,0.0,0.0,0.0,0.0,0.0,0.0,0.0,0.0,0.0,0.0,0.0,0.0,0.0,0.0,0.0,0.0,0.0,0.0,0.0,0.0,0.0,0.0,0.0,0.0,0.0,0.0,0.0,0.0,0.0,0.0,0.0,0.0,0.0,0.0,0.0,0.0,0.0,0.0,0.0,0.0,0.0,0.0,0.0,0.0,0.0,0.0,0.0,0.0,0.0,0.0,0.0,0.0,0.0,0.0,0.0,0.0,0.0,0.0,0.0,0.0,0.0,0.0,0.0,0.0,0.0,0.0,0.0,0.0,0.0,0.0,0.0,0.0,0.0,0.0,0.0,0.0,0.0,0.0,0.0,0.0,0.0,0.0,0.0,0.0,0.0,0.0,0.0,0.0,0.0,0.0,0.0,0.0,0.0,0.0,0.0,0.0,0.0,0.0,0.0,0.0,0.0,0.0,0.0,0.0,0.0,0.0,0.0,0.0,0.0,0.0,0.0,0.0,0.0,0.0,0.0,0.0,0.0,0.0,0.0,0.0,0.0,0.0,0.0,0.0,0.0,0.0,0.0,0.0,0.0,0.0,0.0,0.0,0.0,0.0,0.0,0.0,0.0,0.0,0.0,0.0,0.0,0.0,0.0,0.0,0.0,0.0,0.0,0.0,0.0,0.0,0.0,0.0,0.0,0.0,0.0,0.0,0.0,0.0,0.0,0.0,0.0,0.0,0.0,0.0,0.0,0.0,0.0,0.0,0.0,0.0,0.0,0.0,0.0,0.0,0.0,0.0,0.0,0.0,0.0,0.0,0.0,0.0,0.0,0.0,0.0,0.0,0.0,0.0,0.0,0.0,0.0,0.0,0.0,0.0,0.0,0.0,0.0,0.0,0.0,0.0,0.0,0.0,0.0,0.0,0.0,0.0,0.0,0.0,0.0,0.0,0.0,0.0,0.0,0.0,0.0,0.0,0.0,0.0,0.0,0.0,0.0,0.0,0.0,0.0,0.0,0.0,0.0,0.0,0.0,0.0,0.0,0.0,0.0,0.0,0.0,0.0,0.0,0.0,0.0,0.0,0.0,0.0,0.0,0.0,0.0,0.0,0.0,0.0,0.0,0.0,0.0,0.0,0.0,0.0,0.0,0.0,0.0,0.0,0.0,0.0,0.0,0.0,0.0,0.0,0.0,0.0,0.0,0.0,0.0,0.0,0.0,0.0,0.0,0.0,0.0,0.0,0.0,0.0,0.0,0.0,0.0,0.0,0.0,0.0,0.0,0.0,0.0,0.0,0.0,0.0,0.0,0.0,0.0,0.0,0.0,0.0,0.0,0.0,0.0,0.0,0.0,0.0,0.0,0.0,0.0,0.0,0.0,0.0,-0.7613,0.0,0.0,0.0,0.0,0.0,0.0,0.0,0.0,0.0,0.0,0.0,0.0,0.0,0.0,0.0,0.0,0.0,0.0,0.0,0.0,0.0,0.0,0.0,0.0,0.0,0.0,0.0,0.0,0.0,0.0,0.0,0.0,0.0,0.0,0.0,0.0,0.0,0.0,0.0,0.0,0.0,0.0,0.0,0.0,0.0,0.0,0.0,0.0,0.0,0.0,0.0,0.0,0.0,0.0,0.0,0.0,0.0,0.0,0.0,0.0,0.0,0.0,0.0,0.0,0.0,0.0,0.0,0.0,0.0,0.0,0.0,0.0,0.0,0.0,0.0,0.0,0.0,0.0,0.0,0.0,0.0,0.0,0.0,0.0,0.0,0.0,0.0,0.0,0.0,0.0,0.0,0.0,0.0,0.0,0.0,0.0,0.0,0.0,0.0,0.0,0.0,0.0,0.0,0.0,0.0,0.0,0.0,0.0,0.0,0.0,-0.7695,-0.7695,-0.7671,-0.7656,-0.7695,0.0,0.0,0.0,0.0,0.0,0.0,0.0,0.0,0.0,0.0,0.0,0.0,0.0,0.0,0.0,0.0,0.0,0.0,0.0,0.0,0.0,0.0,0.0,0.0,0.0,0.0,0.0,0.0,0.0,0.0,0.0,0.0,0.0,0.0,0.0,0.0,0.0,0.0,0.0,0.0,0.0,0.0,0.0,0.0,0.0,0.0,0.0,0.0,0.0,0.0,0.0,0.0,0.0,0.0,0.0,0.0,0.0,0.0,0.0,0.0,0.0,0.0,0.0,0.0,0.0,0.0,0.0,0.0,0.0,0.0,0.0,0.0,0.0,0.0,0.0,0.0,0.0,0.0,0.0,0.0,0.0,0.0,0.0,0.0,0.0,0.0,0.0,0.0,0.0,0.0,0.0,0.0,0.0,0.0,0.0,0.0,0.0,0.0,0.0,0.0,0.0,0.0,0.0,0.0,0.0,0.0,0.0,0.0,0.0,0.0,0.0,0.0,-0.7905,-0.7817,-0.7705,0.0,0.0,0.0,0.0,0.0,0.0,0.0,0.0,0.0,0.0,0.0,0.0,0.0,0.0,0.0,0.0,0.0,0.0,0.0,0.0,0.0,0.0,0.0,0.0,0.0,0.0,0.0,0.0,0.0,0.0,0.0,0.0,0.0,0.0,0.0,0.0,0.0,0.0,0.0,0.0,0.0,0.0,0.0,0.0,0.0,0.0,0.0,0.0,0.0,0.0,0.0,0.0,0.0,0.0,0.0,0.0,0.0,0.0,0.0,0.0,0.0,0.0,0.0,0.0,0.0,0.0,0.0,0.0,0.0,0.0,0.0,0.0,0.0,0.0,0.0,0.0,0.0,0.0,0.0,0.0,0.0,0.0,0.0,0.0,0.0,0.0,0.0,0.0,0.0,0.0,0.0,0.0,0.0,0.0,0.0,0.0,0.0,0.0,0.0,0.0,0.0,0.0,0.0,0.0,0.0,0.0,0.0,0.0,0.0,0.0,-0.8887,-0.8887,-0.8516,0.0,-0.7734,0.0,0.0,0.0,0.0,0.0,0.0,0.0,0.0,0.0,0.0,0.0,0.0,0.0,0.0,0.0,0.0,0.0,0.0,0.0,0.0,0.0,0.0,0.0,0.0,0.0,0.0,0.0,0.0,0.0,0.0,0.0,0.0,0.0,0.0,0.0,0.0,0.0,0.0,0.0,0.0,0.0,0.0,0.0,0.0,0.0,0.0,0.0,0.0,0.0,0.0,0.0,0.0,0.0,0.0,0.0,0.0,0.0,0.0,0.0,0.0,0.0,0.0,0.0,0.0,0.0,0.0,0.0,0.0,0.0,0.0,0.0,0.0,0.0,0.0,0.0,0.0,0.0,0.0,0.0,0.0,0.0,0.0,0.0,0.0,0.0,0.0,0.0,0.0,0.0,0.0,0.0,0.0,0.0,0.0,0.0,0.0,0.0,0.0,0.0,0.0,0.0,0.0,0.0,0.0,0.0,0.0,0.0,0.0,0.0,0.0,-0.9004,-0.9004,-0.861,-0.8316,0.0,0.0,0.0,0.0,0.0,0.0,0.0,0.0,0.0,0.0,0.0,0.0,0.0,0.0,0.0,0.0,0.0,0.0,0.0,0.0,0.0,0.0,0.0,0.0,0.0,0.0,0.0,0.0,0.0,0.0,0.0,0.0,0.0,0.0,0.0,0.0,0.0,0.0,0.0,0.0,0.0,0.0,0.0,0.0,0.0,0.0,0.0,0.0,0.0,0.0,0.0,0.0,0.0,0.0,0.0,0.0,0.0,0.0,0.0,0.0,0.0,0.0,0.0,0.0,0.0,0.0,0.0,0.0,0.0,0.0,0.0,0.0,0.0,0.0,0.0,0.0,0.0,0.0,0.0,0.0,0.0,0.0,0.0,0.0,0.0,0.0,0.0,0.0,0.0,0.0,0.0,0.0,0.0,0.0,0.0,0.0,0.0,0.0,0.0,0.0,0.0,0.0,0.0,0.0,0.0,0.0,0.0,0.0,0.0,0.0,-0.9297,-0.9307,-0.9162,-0.8887,-0.8639,-0.8404,0.0,0.0,0.0,0.0,0.0,0.0,0.0,0.0,0.0,0.0,0.0,0.0,0.0,0.0,0.0,0.0,0.0,0.0,0.0,0.0,0.0,0.0,0.0,0.0,0.0,0.0,0.0,0.0,0.0,0.0,0.0,0.0,0.0,0.0,0.0,0.0,0.0,0.0,0.0,0.0,0.0,0.0,0.0,0.0,0.0,0.0,0.0,0.0,0.0,0.0,0.0,0.0,0.0,0.0,0.0,0.0,0.0,0.0,0.0,0.0,0.0,0.0,0.0,0.0,0.0,0.0,0.0,0.0,0.0,0.0,0.0,0.0,0.0,0.0,0.0,0.0,0.0,0.0,0.0,0.0,0.0,0.0,0.0,0.0,0.0,0.0,0.0,0.0,0.0,0.0,0.0,0.0,0.0,0.0,0.0,0.0,0.0,0.0,0.0,0.0,0.0,0.0,0.0,0.0,0.0,0.0,0.0,0.0,-0.9592,-1.001,-1.0029,-0.9592,-0.9572,-0.9199,0.0,0.0,0.0,0.0,0.0,0.0,0.0,0.0,0.0,0.0,0.0,0.0,0.0,0.0,0.0,0.0,0.0,0.0,0.0,0.0,0.0,0.0,0.0,0.0,0.0,0.0,0.0,0.0,0.0,0.0,0.0,0.0,0.0,0.0,0.0,0.0,0.0,0.0,0.0,0.0,0.0,0.0,0.0,0.0,0.0,0.0,0.0,0.0,0.0,0.0,0.0,0.0,0.0,0.0,0.0,0.0,0.0,0.0,0.0,0.0,0.0,0.0,0.0,0.0,0.0,0.0,0.0,0.0,0.0,0.0,0.0,0.0,0.0,0.0,0.0,0.0,0.0,0.0,0.0,0.0,0.0,0.0,0.0,0.0,0.0,0.0,0.0,0.0,0.0,0.0,0.0,0.0,0.0,0.0,0.0,0.0,0.0,0.0,0.0,0.0,0.0,0.0,0.0,0.0,0.0,0.0,0.0,0.0,0.0,-1.042,-1.089,-1.0919,-1.0449,-1.0195,-0.9648,0.0,0.0,0.0,0.0,0.0,0.0,0.0,0.0,0.0,0.0,0.0,0.0,0.0,0.0,0.0,0.0,0.0,0.0,0.0,0.0,0.0,0.0,0.0,0.0,0.0,0.0,0.0,0.0,0.0,0.0,0.0,0.0,0.0,0.0,0.0,0.0,0.0,0.0,0.0,0.0,0.0,0.0,0.0,0.0,0.0,0.0,0.0,0.0,0.0,0.0,0.0,0.0,0.0,0.0,0.0,0.0,0.0,0.0,0.0,0.0,0.0,0.0,0.0,0.0,0.0,0.0,0.0,0.0,0.0,0.0,0.0,0.0,0.0,0.0,0.0,0.0,0.0,0.0,0.0,0.0,0.0,0.0,0.0,0.0,0.0,0.0,0.0,0.0,0.0,0.0,0.0,0.0,0.0,0.0,0.0,0.0,0.0,0.0,0.0,0.0,0.0,0.0,0.0,0.0,0.0,0.0,0.0,0.0,0.0,-1.1166,0.0,-1.1567,-1.1249,-1.0784,-1.0233,0.0,0.0,0.0,0.0,0.0,0.0,0.0,0.0,0.0,0.0,0.0,0.0,0.0,0.0,0.0,0.0,0.0,0.0,0.0,0.0,0.0,0.0,0.0,0.0,0.0,0.0,0.0,0.0,0.0,0.0,0.0,0.0,0.0,0.0,0.0,0.0,0.0,0.0,0.0,0.0,0.0,0.0,0.0,0.0,0.0,0.0,0.0,0.0,0.0,0.0,0.0,0.0,0.0,0.0,0.0,0.0,0.0,0.0,0.0,0.0,0.0,0.0,0.0,0.0,0.0,0.0,0.0,0.0,0.0,0.0,0.0,0.0,0.0,0.0,0.0,0.0,0.0,0.0,0.0,0.0,0.0,0.0,0.0,0.0,0.0,0.0,0.0,0.0,0.0,0.0,0.0,0.0,0.0,0.0,0.0,0.0,0.0,0.0,0.0,0.0,0.0,0.0,0.0,0.0,0.0,0.0,0.0,0.0,-1.1246,-1.1812,-1.2001,-1.2127,-1.2015,-1.1505,-1.0934,0.0,0.0,0.0,0.0,0.0,0.0,0.0,0.0,0.0,0.0,0.0,0.0,0.0,0.0,0.0,0.0,0.0,0.0,0.0,0.0,0.0,0.0,0.0,0.0,0.0,0.0,0.0,0.0,0.0,0.0,0.0,0.0,0.0,0.0,0.0,0.0,0.0,0.0,0.0,0.0,0.0,0.0,0.0,0.0,0.0,0.0,0.0,0.0,0.0,0.0,0.0,0.0,0.0,0.0,0.0,0.0,0.0,0.0,0.0,0.0,0.0,0.0,0.0,0.0,0.0,0.0,0.0,0.0,0.0,0.0,0.0,0.0,0.0,0.0,0.0,0.0,0.0,0.0,0.0,0.0,0.0,0.0,0.0,0.0,0.0,0.0,0.0,0.0,0.0,0.0,0.0,0.0,0.0,0.0,0.0,0.0,0.0,0.0,0.0,0.0,0.0,0.0,0.0,0.0,0.0,0.0,0.0,0.0,0.0,-1.3323,-1.3942,-1.4129,-1.3791,-1.3343,-1.2443,0.0,0.0,0.0,0.0,0.0,0.0,0.0,0.0,0.0,0.0,0.0,0.0,0.0,0.0,0.0,0.0,0.0,0.0,0.0,0.0,0.0,0.0,0.0,0.0,0.0,0.0,0.0,0.0,0.0,0.0,0.0,0.0,0.0,0.0,0.0,0.0,0.0,0.0,0.0,0.0,0.0,0.0,0.0,0.0,0.0,0.0,0.0,0.0,0.0,0.0,0.0,0.0,0.0,0.0,0.0,0.0,0.0,0.0,0.0,0.0,0.0,0.0,0.0,0.0,0.0,0.0,0.0,0.0,0.0,0.0,0.0,0.0,0.0,0.0,0.0,0.0,0.0,0.0,0.0,0.0,0.0,0.0,0.0,0.0,0.0,0.0,0.0,0.0,0.0,0.0,0.0,0.0,0.0,0.0,0.0,0.0,0.0,0.0,0.0,0.0,0.0,0.0,0.0,0.0,0.0,0.0,0.0,0.0,0.0,-1.5979,-1.6216,-1.6205,-1.5917,-1.5283,-1.4083,-1.238,0.0,0.0,0.0,0.0,0.0,0.0,0.0,0.0,0.0,0.0,0.0,0.0,0.0,0.0,0.0,0.0,0.0,0.0,0.0,0.0,0.0,0.0,0.0,0.0,0.0,0.0,0.0,0.0,0.0,0.0,0.0,0.0,0.0,0.0,0.0,0.0,0.0,0.0,0.0,0.0,0.0,0.0,0.0,0.0,0.0,0.0,0.0,0.0,0.0,0.0,0.0,0.0,0.0,0.0,0.0,0.0,0.0,0.0,0.0,0.0,0.0,0.0,0.0,0.0,0.0,0.0,0.0,0.0,0.0,0.0,0.0,0.0,0.0,0.0,0.0,0.0,0.0,0.0,0.0,0.0,0.0,0.0,0.0,0.0,0.0,0.0,0.0,0.0,0.0,0.0,0.0,0.0,0.0,0.0,0.0,0.0,0.0,0.0,0.0,0.0,0.0,0.0,0.0,0.0,0.0,0.0,0.0,0.0,-1.9556,-1.885,-1.8426,-1.8257,-1.7229,-1.5925,0.0,0.0,0.0,0.0,0.0,0.0,0.0,0.0,0.0,0.0,0.0,0.0,0.0,0.0,0.0,0.0,0.0,0.0,0.0,0.0,0.0,0.0,0.0,0.0,0.0,0.0,0.0,0.0,0.0,0.0,0.0,0.0,0.0,0.0,0.0,0.0,0.0,0.0,0.0,0.0,0.0,0.0,0.0,0.0,0.0,0.0,0.0,0.0,0.0,0.0,0.0,0.0,0.0,0.0,0.0,0.0,0.0,0.0,0.0,0.0,0.0,0.0,0.0,0.0,0.0,0.0,0.0,0.0,0.0,0.0,0.0,0.0,0.0,0.0,0.0,0.0,0.0,0.0,0.0,0.0,0.0,0.0,0.0,0.0,0.0,0.0,0.0,0.0,0.0,0.0,0.0,0.0,0.0,0.0,0.0,0.0,0.0,0.0,0.0,0.0,0.0,0.0,0.0,0.0,0.0,0.0,0.0,0.0,0.0,-2.1609,-2.2633,-2.2215,-2.0373,-1.935,-1.7751,0.0,0.0,0.0,0.0,0.0,0.0,0.0,0.0,0.0,0.0,0.0,0.0,0.0,0.0,0.0,0.0,0.0,0.0,0.0,0.0,0.0,0.0,0.0,0.0,0.0,0.0,0.0,0.0,0.0,0.0,0.0,0.0,0.0,0.0,0.0,0.0,0.0,0.0,0.0,0.0,0.0,0.0,0.0,0.0,0.0,0.0,0.0,0.0,0.0,0.0,0.0,0.0,0.0,0.0,0.0,0.0,0.0,0.0,0.0,0.0,0.0,0.0,0.0,0.0,0.0,0.0,0.0,0.0,0.0,0.0,0.0,0.0,0.0,0.0,0.0,0.0,0.0,0.0,0.0,0.0,0.0,0.0,0.0,0.0,0.0,0.0,0.0,0.0,0.0,0.0,0.0,0.0,0.0,0.0,0.0,0.0,0.0,0.0,0.0,0.0,0.0,0.0,0.0,0.0,0.0,0.0,0.0,0.0,-2.0863,-2.3165,-2.4785,-2.4923,-2.3416,-2.1836,-1.9855,0.0,0.0,0.0,0.0,0.0,0.0,0.0,0.0,0.0,0.0,0.0,0.0,0.0,0.0,0.0,0.0,0.0,0.0,0.0,0.0,0.0,0.0,0.0,0.0,0.0,0.0,0.0,0.0,0.0,0.0,0.0,0.0,0.0,0.0,0.0,0.0,0.0,0.0,0.0,0.0,0.0,0.0,0.0,0.0,0.0,0.0,0.0,0.0,0.0,0.0,0.0,0.0,0.0,0.0,0.0,0.0,0.0,0.0,0.0,0.0,0.0,0.0,0.0,0.0,0.0,0.0,0.0,0.0,0.0,0.0,0.0,0.0,0.0,0.0,0.0,0.0,0.0,0.0,0.0,0.0,0.0,0.0,0.0,0.0,0.0,0.0,0.0,0.0,0.0,0.0,0.0,0.0,0.0,0.0,0.0,0.0,0.0,0.0,0.0,0.0,0.0,0.0,0.0,0.0,0.0,0.0,0.0,0.0,-2.2258,-2.4313,-2.5961,-2.6763,-2.6587,-2.4271,-2.1892,0.0,0.0,0.0,0.0,0.0,0.0,0.0,0.0,0.0,0.0,0.0,0.0,0.0,0.0,0.0,0.0,0.0,0.0,0.0,0.0,0.0,0.0,0.0,0.0,0.0,0.0,0.0,0.0,0.0,0.0,0.0,0.0,0.0,0.0,0.0,0.0,0.0,0.0,0.0,0.0,0.0,0.0,0.0,0.0,0.0,0.0,0.0,0.0,0.0,0.0,0.0,0.0,0.0,0.0,0.0,0.0,0.0,0.0,0.0,0.0,0.0,0.0,0.0,0.0,0.0,0.0,0.0,0.0,0.0,0.0,0.0,0.0,0.0,0.0,0.0,0.0,0.0,0.0,0.0,0.0,0.0,0.0,0.0,0.0,0.0,0.0,0.0,0.0,0.0,0.0,0.0,0.0,0.0,0.0,0.0,0.0,0.0,0.0,0.0,0.0,0.0,0.0,0.0,0.0,0.0,0.0,0.0,0.0,-2.3202,-2.5256,-2.7301,-2.8119,-2.7693,-2.5498,-2.3057,0.0,0.0,0.0,0.0,0.0,0.0,0.0,0.0,0.0,0.0,0.0,0.0,0.0,0.0,0.0,0.0,0.0,0.0,0.0,0.0,0.0,0.0,0.0,0.0,0.0,0.0,0.0,0.0,0.0,0.0,0.0,0.0,0.0,0.0,0.0,0.0,0.0,0.0,0.0,0.0,0.0,0.0,0.0,0.0,0.0,0.0,0.0,0.0,-1.6302,0.0,0.0,0.0,0.0,0.0,0.0,0.0,0.0,0.0,0.0,0.0,0.0,0.0,0.0,0.0,0.0,0.0,0.0,0.0,0.0,0.0,0.0,0.0,0.0,0.0,0.0,0.0,0.0,0.0,0.0,0.0,0.0,0.0,0.0,0.0,0.0,0.0,0.0,0.0,0.0,0.0,0.0,0.0,0.0,0.0,0.0,0.0,0.0,0.0,0.0,0.0,0.0,0.0,0.0,0.0,0.0,0.0,0.0,0.0,-2.419,-2.6031,-2.7877,-2.8533,-2.7962,-2.6312,-2.4084,0.0,0.0,0.0,0.0,0.0,0.0,0.0,0.0,0.0,0.0,0.0,0.0,0.0,0.0,0.0,0.0,0.0,0.0,0.0,0.0,0.0,0.0,0.0,0.0,0.0,0.0,0.0,0.0,0.0,0.0,0.0,0.0,0.0,0.0,0.0,0.0,0.0,0.0,0.0,0.0,0.0,0.0,0.0,0.0,0.0,0.0,0.0,0.0,0.0,0.0,0.0,0.0,0.0,0.0,0.0,0.0,0.0,0.0,0.0,0.0,0.0,0.0,0.0,0.0,0.0,0.0,0.0,0.0,0.0,0.0,0.0,0.0,0.0,0.0,0.0,0.0,0.0,0.0,0.0,0.0,0.0,0.0,0.0,0.0,0.0,0.0,0.0,0.0,0.0,0.0,0.0,0.0,0.0,0.0,0.0,0.0,0.0,0.0,0.0,0.0,0.0,0.0,0.0,0.0,0.0,0.0,0.0,-2.2821,-2.5098,-2.6693,-2.8166,-2.8612,-2.8007,-2.6941,-2.5043,-2.2134,0.0,0.0,0.0,0.0,0.0,0.0,0.0,0.0,0.0,0.0,0.0,0.0,0.0,0.0,0.0,0.0,0.0,0.0,0.0,0.0,0.0,0.0,0.0,0.0,0.0,0.0,0.0,0.0,0.0,0.0,0.0,0.0,0.0,0.0,0.0,0.0,0.0,0.0,-1.3698,-1.5443,0.0,0.0,0.0,0.0,0.0,0.0,0.0,0.0,-1.935,0.0,0.0,0.0,0.0,0.0,0.0,0.0,0.0,0.0,0.0,0.0,0.0,0.0,0.0,0.0,0.0,0.0,0.0,0.0,0.0,0.0,0.0,0.0,0.0,0.0,0.0,0.0,0.0,0.0,0.0,0.0,0.0,0.0,0.0,0.0,0.0,0.0,0.0,0.0,0.0,0.0,0.0,0.0,0.0,0.0,0.0,0.0,0.0,0.0,0.0,0.0,0.0,0.0,0.0,0.0,0.0,-2.0834,-2.344,-2.5545,-2.7173,-2.8633,-2.8936,-2.8018,-2.755,-2.5681,-2.2284,0.0,0.0,0.0,0.0,0.0,0.0,0.0,0.0,0.0,0.0,0.0,0.0,0.0,0.0,0.0,0.0,0.0,0.0,0.0,0.0,0.0,0.0,0.0,0.0,0.0,0.0,0.0,0.0,0.0,0.0,0.0,0.0,0.0,0.0,0.0,0.0,0.0,0.0,0.0,-1.6751,-1.7893,0.0,0.0,0.0,0.0,0.0,0.0,0.0,0.0,-2.0171,0.0,0.0,0.0,0.0,0.0,0.0,0.0,0.0,0.0,0.0,0.0,0.0,0.0,0.0,0.0,0.0,0.0,0.0,0.0,0.0,0.0,0.0,0.0,0.0,0.0,0.0,0.0,0.0,0.0,0.0,0.0,0.0,0.0,0.0,0.0,0.0,0.0,0.0,0.0,0.0,0.0,0.0,0.0,0.0,0.0,0.0,0.0,0.0,0.0,0.0,0.0,0.0,0.0,0.0,0.0,-2.1596,-2.4375,-2.6248,-2.7293,-2.8229,-2.8488,-2.8007,-2.6975,-2.5113,0.0,0.0,0.0,0.0,0.0,0.0,0.0,0.0,0.0,0.0,0.0,0.0,0.0,0.0,0.0,0.0,0.0,0.0,0.0,0.0,0.0,0.0,0.0,0.0,0.0,0.0,0.0,0.0,0.0,0.0,0.0,0.0,0.0,0.0,0.0,0.0,0.0,0.0,0.0,0.0,-1.8329,-1.9512,-2.1295,0.0,0.0,0.0,0.0,0.0,0.0,-2.2501,-2.1513,0.0,0.0,0.0,0.0,0.0,0.0,0.0,0.0,0.0,0.0,0.0,0.0,0.0,0.0,0.0,0.0,0.0,0.0,0.0,0.0,0.0,0.0,0.0,0.0,0.0,0.0,0.0,0.0,0.0,0.0,0.0,0.0,0.0,0.0,0.0,0.0,0.0,0.0,0.0,0.0,0.0,0.0,0.0,0.0,0.0,0.0,0.0,0.0,0.0,0.0,0.0,0.0,0.0,0.0,0.0,-2.2107,-2.4973,-2.6704,-2.7162,-2.7609,-2.7877,-2.7818,-2.6332,-2.4465,0.0,0.0,0.0,0.0,0.0,0.0,0.0,0.0,0.0,0.0,0.0,0.0,0.0,0.0,0.0,0.0,0.0,0.0,0.0,0.0,0.0,0.0,0.0,0.0,0.0,0.0,0.0,0.0,0.0,0.0,0.0,0.0,0.0,0.0,0.0,0.0,0.0,0.0,0.0,0.0,0.0,-2.0979,-2.2617,-2.23,0.0,0.0,0.0,0.0,-2.4387,-2.3689,0.0,0.0,0.0,0.0,0.0,0.0,0.0,0.0,0.0,0.0,0.0,0.0,0.0,0.0,0.0,0.0,0.0,0.0,0.0,0.0,0.0,0.0,0.0,0.0,0.0,0.0,0.0,0.0,0.0,0.0,0.0,0.0,0.0,0.0,0.0,0.0,0.0,0.0,0.0,0.0,0.0,0.0,0.0,0.0,0.0,0.0,0.0,0.0,0.0,0.0,0.0,0.0,0.0,0.0,0.0,0.0,-2.2085,-2.4658,-2.6223,-2.6649,-2.7151,-2.7393,-2.7348,-2.6165,-2.4453,0.0,0.0,0.0,0.0,0.0,0.0,0.0,0.0,0.0,0.0,0.0,0.0,0.0,0.0,0.0,0.0,0.0,0.0,0.0,0.0,0.0,0.0,0.0,0.0,0.0,0.0,0.0,0.0,0.0,0.0,0.0,0.0,0.0,0.0,0.0,0.0,0.0,0.0,0.0,0.0,0.0,-2.1573,-2.3501,-2.3769,-2.3741,0.0,0.0,0.0,-2.4741,-2.4404,0.0,0.0,0.0,0.0,0.0,0.0,0.0,0.0,0.0,0.0,0.0,0.0,0.0,0.0,0.0,0.0,0.0,0.0,0.0,0.0,0.0,0.0,0.0,0.0,0.0,0.0,0.0,0.0,0.0,0.0,0.0,0.0,0.0,0.0,0.0,0.0,0.0,0.0,0.0,0.0,0.0,0.0,0.0,0.0,0.0,0.0,0.0,0.0,0.0,0.0,0.0,0.0,0.0,0.0,0.0,-2.0975,-2.2805,-2.5469,-2.6781,-2.6627,-2.678,-2.704,-2.7269,-2.5843,-2.4153,0.0,0.0,0.0,0.0,0.0,0.0,0.0,0.0,0.0,0.0,0.0,0.0,0.0,0.0,0.0,0.0,0.0,0.0,0.0,0.0,0.0,0.0,0.0,0.0,0.0,0.0,0.0,0.0,0.0,0.0,0.0,0.0,0.0,0.0,0.0,0.0,0.0,0.0,0.0,0.0,0.0,0.0,-2.3981,-2.4513,0.0,0.0,0.0,-2.521,-2.5602,0.0,0.0,0.0,0.0,0.0,0.0,0.0,0.0,0.0,0.0,0.0,0.0,0.0,0.0,0.0,0.0,0.0,0.0,0.0,0.0,0.0,0.0,0.0,0.0,0.0,0.0,0.0,0.0,0.0,0.0,0.0,0.0,0.0,0.0,0.0,0.0,0.0,0.0,0.0,0.0,0.0,0.0,0.0,0.0,0.0,0.0,0.0,0.0,0.0,0.0,0.0,0.0,0.0,0.0,0.0,0.0,0.0,-2.3324,-2.6021,-2.7099,-2.6441,-2.6399,-2.6623,-2.6919,-2.5484,0.0,0.0,0.0,0.0,0.0,0.0,0.0,0.0,0.0,0.0,0.0,0.0,0.0,0.0,0.0,0.0,0.0,0.0,0.0,0.0,0.0,0.0,0.0,0.0,0.0,0.0,0.0,-1.1043,0.0,0.0,0.0,0.0,0.0,0.0,0.0,0.0,0.0,0.0,0.0,0.0,0.0,0.0,-2.2969,-2.4537,-2.5314,-2.5899,0.0,0.0,-2.5833,-2.6318,-2.5818,-2.4911,0.0,0.0,0.0,0.0,0.0,0.0,0.0,0.0,0.0,0.0,0.0,0.0,0.0,0.0,0.0,0.0,0.0,0.0,0.0,0.0,0.0,0.0,0.0,0.0,0.0,0.0,0.0,0.0,0.0,0.0,0.0,0.0,0.0,0.0,0.0,0.0,0.0,0.0,0.0,0.0,0.0,0.0,0.0,0.0,0.0,0.0,0.0,0.0,0.0,0.0,0.0,0.0,0.0,0.0,0.0,-2.3346,-2.5695,-2.6606,-2.5992,-2.595,-2.595,-2.597,-2.5158,-2.3924,0.0,0.0,0.0,0.0,0.0,0.0,0.0,0.0,0.0,0.0,0.0,0.0,0.0,0.0,0.0,0.0,0.0,0.0,0.0,0.0,0.0,0.0,0.0,0.0,0.0,0.0,0.0,0.0,0.0,0.0,0.0,0.0,0.0,0.0,0.0,0.0,0.0,0.0,0.0,0.0,0.0,-2.4115,-2.5369,-2.64,-2.6953,0.0,0.0,-2.6493,-2.6628,-2.6229,-2.5496,-2.4396,0.0,0.0,0.0,0.0,0.0,0.0,0.0,0.0,0.0,0.0,0.0,0.0,0.0,0.0,0.0,0.0,0.0,0.0,0.0,0.0,0.0,0.0,0.0,0.0,0.0,0.0,0.0,0.0,0.0,0.0,0.0,0.0,0.0,0.0,0.0,0.0,0.0,0.0,0.0,0.0,0.0,0.0,0.0,0.0,0.0,0.0,0.0,0.0,0.0,0.0,0.0,0.0,0.0,-2.2329,-2.4034,-2.5737,-2.6563,-2.6509,-2.6104,-2.5895,-2.5895,-2.5136,-2.3946,0.0,0.0,0.0,0.0,0.0,0.0,0.0,0.0,0.0,0.0,0.0,0.0,0.0,0.0,0.0,0.0,0.0,0.0,0.0,0.0,0.0,0.0,0.0,0.0,0.0,0.0,0.0,0.0,-1.6859,-1.7764,-1.7542,0.0,0.0,0.0,0.0,0.0,0.0,0.0,0.0,0.0,0.0,-2.4451,-2.5888,-2.6804,0.0,0.0,-2.7089,-2.7052,-2.7011,-2.675,-2.6136,-2.478,-2.3755,0.0,0.0,0.0,0.0,0.0,0.0,0.0,0.0,0.0,0.0,0.0,0.0,0.0,0.0,0.0,0.0,0.0,0.0,0.0,0.0,0.0,0.0,0.0,0.0,0.0,0.0,0.0,0.0,0.0,0.0,0.0,0.0,0.0,0.0,0.0,0.0,0.0,0.0,0.0,0.0,0.0,0.0,0.0,0.0,0.0,0.0,0.0,0.0,0.0,0.0,0.0,0.0,-2.2913,-2.4528,-2.622,-2.711,-2.7156,-2.6704,-2.6385,-2.6166,-2.5485,-2.4307,0.0,0.0,0.0,0.0,0.0,0.0,0.0,0.0,0.0,0.0,0.0,0.0,0.0,0.0,0.0,0.0,0.0,0.0,0.0,0.0,0.0,0.0,0.0,0.0,0.0,0.0,0.0,0.0,-1.7967,-1.8796,-1.8276,0.0,0.0,0.0,0.0,0.0,0.0,0.0,0.0,0.0,0.0,-2.5164,-2.65,-2.714,-2.7478,-2.7478,-2.7463,-2.7437,-2.7335,-2.717,-2.6634,-2.5373,0.0,0.0,0.0,0.0,0.0,0.0,0.0,0.0,0.0,0.0,0.0,0.0,0.0,0.0,0.0,0.0,0.0,0.0,0.0,0.0,0.0,0.0,0.0,0.0,0.0,0.0,0.0,0.0,0.0,0.0,0.0,0.0,0.0,0.0,0.0,0.0,0.0,0.0,0.0,0.0,0.0,0.0,0.0,0.0,0.0,0.0,0.0,0.0,0.0,0.0,0.0,0.0,0.0,0.0,-2.4719,-2.7318,-2.8398,-2.781,-2.777,-2.7418,-2.6869,-2.6249,-2.5112,-2.329,0.0,0.0,0.0,0.0,0.0,0.0,0.0,0.0,0.0,0.0,0.0,0.0,0.0,0.0,0.0,0.0,0.0,0.0,0.0,0.0,0.0,0.0,0.0,0.0,0.0,0.0,-1.6817,-1.8099,-1.8968,0.0,0.0,0.0,0.0,0.0,0.0,0.0,0.0,0.0,0.0,-2.5141,-2.6445,-2.7268,-2.7514,-2.76,-2.7585,-2.76,-2.76,-2.7575,-2.7346,-2.6971,0.0,0.0,0.0,0.0,0.0,0.0,0.0,0.0,0.0,0.0,0.0,0.0,0.0,0.0,0.0,0.0,0.0,0.0,0.0,0.0,0.0,0.0,0.0,0.0,0.0,0.0,0.0,-1.3264,-1.4471,0.0,0.0,0.0,0.0,0.0,0.0,0.0,0.0,0.0,0.0,0.0,-2.0432,-2.1247,0.0,0.0,0.0,0.0,0.0,0.0,0.0,0.0,0.0,0.0,0.0,0.0,-2.4251,-2.5889,-2.7198,-2.785,-2.7787,-2.7429,-2.6921,-2.6271,-2.5655,-2.4356,-2.2319,0.0,0.0,0.0,0.0,0.0,0.0,0.0,0.0,0.0,0.0,0.0,0.0,0.0,0.0,0.0,0.0,0.0,0.0,0.0,0.0,0.0,0.0,0.0,0.0,0.0,-1.8174,0.0,0.0,0.0,0.0,0.0,0.0,0.0,0.0,0.0,0.0,0.0,-2.3949,-2.5214,-2.5948,-2.6614,-2.7434,-2.7575,-2.7585,0.0,0.0,0.0,0.0,0.0,0.0,0.0,0.0,0.0,0.0,0.0,0.0,0.0,0.0,-2.0767,-2.0078,-2.026,-2.0632,-2.1036,0.0,0.0,0.0,0.0,0.0,0.0,0.0,0.0,0.0,0.0,0.0,0.0,0.0,0.0,0.0,0.0,-1.6979,0.0,0.0,0.0,0.0,0.0,0.0,0.0,0.0,-2.1462,-2.2383,-2.251,-2.3526,-2.3848,0.0,-2.2989,-2.1445,0.0,0.0,0.0,0.0,0.0,0.0,0.0,0.0,-2.4995,-2.6649,-2.7484,-2.798,-2.8131,-2.7551,-2.6921,-2.626,-2.526,-2.4007,-2.2332,-2.0931,-1.9451,0.0,0.0,0.0,0.0,0.0,0.0,0.0,0.0,0.0,0.0,0.0,0.0,0.0,0.0,0.0,0.0,0.0,0.0,0.0,0.0,0.0,0.0,0.0,-1.9407,0.0,0.0,0.0,0.0,0.0,0.0,0.0,0.0,0.0,-2.2784,-2.4307,-2.5742,-2.6519,-2.7119,-2.7693,-2.8218,0.0,0.0,0.0,0.0,0.0,0.0,0.0,-2.7988,-2.7454,-2.738,-2.7073,-2.6174,-2.5584,-2.5085,-2.4614,0.0,0.0,-2.2592,-2.2672,-2.3077,-2.3491,-2.4098,-2.4683,-2.5055,-2.5425,-2.5837,0.0,0.0,0.0,0.0,0.0,0.0,0.0,0.0,-1.8117,-1.8625,0.0,-1.9116,0.0,0.0,0.0,0.0,0.0,0.0,0.0,0.0,-2.304,-2.3766,-2.3842,-2.474,-2.518,-2.5247,-2.4554,-2.4236,-2.4189,-2.1342,0.0,0.0,0.0,0.0,0.0,0.0,-2.6228,-2.7071,-2.8231,-2.8791,-2.8712,-2.8143,-2.7487,-2.6789,-2.5206,-2.4055,-2.3383,-2.1853,-2.0753,-2.0216,-1.7974,0.0,0.0,0.0,0.0,0.0,0.0,0.0,0.0,0.0,0.0,0.0,0.0,0.0,0.0,0.0,0.0,0.0,0.0,0.0,0.0,-1.8965,0.0,0.0,0.0,0.0,0.0,0.0,0.0,0.0,0.0,0.0,-2.3402,-2.6065,-2.8039,-2.7535,0.0,0.0,0.0,0.0,-2.9606,-2.9577,-2.9606,-2.9592,-2.9564,-2.9592,-2.9549,-2.9549,0.0,0.0,-2.7709,-2.7354,-2.6819,-2.5653,-2.5957,-2.5932,-2.442,-2.4637,-2.5192,-2.5672,-2.6302,-2.6972,-2.7661,-2.787,-2.8159,-1.9336,0.0,0.0,0.0,0.0,-1.8061,-1.9262,-2.115,-2.0936,-2.1223,-2.1843,-2.1747,0.0,0.0,0.0,0.0,0.0,0.0,-2.3036,-2.3079,-2.4692,-2.5413,-2.5464,-2.6999,-2.7531,-2.7186,-2.7421,-2.7321,-2.6976,-2.5726,-2.4008,-2.1922,0.0,0.0,0.0,0.0,-2.7171,-2.8189,-2.9059,-2.904,-2.8103,-2.7931,-2.7099,-2.5577,-2.5072,-2.4344,-2.3453,-2.2949,-2.208,-2.0765,-1.9731,0.0,0.0,0.0,0.0,0.0,0.0,0.0,0.0,0.0,0.0,0.0,0.0,0.0,0.0,0.0,0.0,0.0,0.0,0.0,-1.9693,-2.0261,-2.0616,0.0,0.0,0.0,0.0,0.0,0.0,0.0,0.0,0.0,-2.6119,-2.7439,-2.8618,0.0,0.0,-2.9621,-2.9621,-2.9621,-2.9621,-2.9621,0.0,0.0,0.0,-2.9621,-2.9621,-2.9621,-2.9621,-2.9445,-2.9017,-2.8543,-2.8085,-2.7682,-2.7449,-2.734,-2.7773,-2.7595,-2.7697,-2.8261,-2.8903,-2.9434,-2.9663,-3.0108,-3.0577,-2.3353,-2.1679,-2.0575,-2.0372,-2.0878,-2.1129,-2.2237,-2.3902,-2.3621,-2.3661,-2.3864,-2.3798,-2.3037,-2.1829,-2.1988,0.0,0.0,0.0,-2.4654,-2.4891,-2.5669,-2.611,-2.6393,-2.7493,-2.7989,-2.7942,-2.8098,-2.8261,-2.8423,-2.764,-2.6404,-2.4764,0.0,0.0,-2.5761,-2.6747,-2.7656,-2.8383,-2.8809,-2.8474,-2.7458,-2.7174,-2.637,-2.5044,-2.4999,-2.4608,-2.3763,-2.3351,-2.2651,-2.1658,-2.0694,-1.9299,0.0,0.0,0.0,0.0,0.0,0.0,0.0,0.0,0.0,0.0,0.0,-1.5542,0.0,0.0,0.0,0.0,-1.8864,-1.9779,-2.1419,-2.1543,0.0,0.0,0.0,0.0,0.0,0.0,0.0,-2.5393,-2.7173,-2.8383,-2.8426,-2.8967,-2.9505,-2.9894,-3.0178,-3.0357,-3.0357,0.0,-3.0357,-3.0357,-3.0357,-3.0357,-3.0357,-3.0357,-3.0357,-3.0357,-3.0357,-3.0238,-2.9968,-2.9415,-2.8974,-2.8752,-2.8413,-2.8465,-2.9388,-2.9474,-2.9567,-3.0069,-3.0489,-3.0855,-3.1126,-3.1596,-3.1937,-2.6946,-2.6326,-2.3135,-2.2439,-2.3512,-2.4049,-2.4919,-2.6005,-2.6016,-2.5742,-2.5336,-2.5284,-2.477,-2.3902,-2.4432,0.0,0.0,-2.5786,-2.6234,-2.6617,-2.6223,-2.6234,-2.6594,-2.683,-2.7231,-2.7718,-2.738,-2.7804,-2.8812,-2.789,-2.7668,-2.8235,-2.7563,-2.7193,-2.717,-2.7566,-2.7859,-2.8023,-2.7933,-2.7551,-2.6891,-2.6229,-2.5642,-2.5032,-2.4977,-2.4686,-2.4129,-2.3201,-2.2696,-2.2638,-2.1197,-2.0021,-1.9221,0.0,0.0,0.0,0.0,0.0,0.0,0.0,0.0,0.0,0.0,0.0,0.0,0.0,0.0,0.0,-2.1011,0.0,-2.2828,-2.2738,0.0,0.0,0.0,-2.4135,-2.4503,-2.5519,-2.6534,-2.7324,0.0,0.0,0.0,0.0,-3.0582,-3.0582,-3.1107,-3.1496,-3.1496,-3.1451,-3.1496,-3.1421,-3.1481,-3.1481,-3.1361,-3.1391,-3.1376,-3.1376,-3.1496,-3.1227,-3.0672,-2.9968,-2.9477,-2.9104,-2.9011,-2.9144,-2.9676,-3.031,-3.0951,-3.1265,-3.1309,-3.1492,-3.2038,-3.2317,-3.2554,-2.6628,-2.6513,-2.5993,-2.5792,-2.5815,-2.6314,-2.6715,-2.6977,-2.6977,-2.6715,-2.6289,-2.6278,-2.5961,-2.5415,-2.5895,-2.6179,-2.631,-2.6758,-2.7042,-2.7097,-2.7031,-2.6846,-2.6627,-2.7166,-2.7326,-2.7167,-2.7996,-2.853,-2.8844,-2.9082,-2.9263,-2.939,-2.9214,-2.8812,-2.8238,-2.8184,-2.8208,-2.8397,-2.8176,-2.7725,-2.6944,-2.6229,-2.5631,-2.5032,-2.4652,-2.4202,-2.3589,-2.3006,-2.2636,-2.2474,-2.2101,-2.1385,-2.027,-1.9373,0.0,0.0,0.0,0.0,0.0,0.0,0.0,0.0,0.0,-1.8984,-2.0221,0.0,-2.2114,0.0,-2.2446,-2.2801,-2.3377,-2.3395,0.0,0.0,-2.4559,-2.5287,-2.6301,-2.6947,-2.7627,-2.8418,-2.9113,-2.9693,-3.0226,-3.0872,-3.1271,-3.1256,-3.1391,-3.1496,-3.1496,-3.1496,-3.1496,-3.1496,-3.1496,-3.1496,-3.1496,-3.1496,-3.1496,-3.1496,-3.1496,-3.1436,-3.1286,-3.0328,-2.9574,-2.9447,-2.9012,-2.9063,-2.9852,-3.0648,-3.1548,-3.2253,-3.2253,-3.2086,-3.226,-3.2703,-3.3103,-2.8153,-2.8122,-2.8211,-2.8102,-2.7877,-2.7956,-2.796,-2.7949,-2.8005,-2.7697,-2.7206,-2.6988,-2.678,-2.6562,-2.6998,-2.7216,-2.7249,-2.7741,-2.7949,-2.7938,-2.7741,-2.7456,-2.7239,-2.7202,-2.7302,-2.7642,-2.8141,-2.8673,-2.9248,-2.9624,-2.9779,-2.9779,-2.9779,-2.95,-2.8984,-2.8598,-2.8406,-2.8498,-2.7805,-2.729,-2.6891,-2.624,-2.5631,-2.5016,-2.4753,-2.4348,-2.3774,-2.3133,-2.2738,-2.2626,-2.2345,-2.1811,-2.1083,-2.0242,-1.9233,0.0,0.0,0.0,0.0,0.0,0.0,0.0,0.0,0.0,0.0,0.0,-2.3573,0.0,-2.3448,0.0,-2.464,-2.4475,-2.46,-2.5349,-2.5861,-2.6575,-2.758,-2.8077,-2.8711,-2.9623,-3.0017,-3.0396,-3.0786,-3.1199,-3.1496,-3.1496,-3.1496,-3.1496,-3.1496,-3.1496,-3.1496,-3.1496,-3.1496,-3.1496,-3.1496,-3.1496,-3.1496,-3.1496,-3.1496,-3.1496,-3.1481,-3.0687,-3.0038,-3.0117,-2.9889,-2.9913,-3.0676,-3.1462,-3.2311,-3.2828,-3.2903,-3.2756,-3.2766,-3.304,-3.3293,-3.0112,-3.0068,-2.9654,-2.9495,-2.9503,-2.9077,-2.8858,-2.8803,-2.8803,-2.8517,-2.8102,-2.7676,-2.749,-2.7523,-2.7893,-2.8089,-2.8167,-2.8571,-2.8803,-2.8781,-2.832,-2.8056,-2.7969,-2.7151,-2.7359,-2.8367,-2.8035,-2.8483,-2.9675,-2.9753,-2.974,-2.9675,-2.9675,-2.9573,-2.9302,-2.8764,-2.851,-2.8471,-2.7267,-2.6745,-2.6933,-2.6354,-2.5713,-2.5116,-2.4982,-2.4691,-2.4095,-2.3306,-2.2865,-2.2873,-2.2315,-2.1937,-2.1769,-2.0807,-2.0138,0.0,-1.8796,0.0,0.0,0.0,0.0,0.0,0.0,0.0,0.0,-2.405,-2.4901,-2.4846,-2.447,-2.4776,-2.6092,-2.5735,-2.5842,-2.6782,-2.7207,-2.7728,-2.8432,-2.882,-2.9454,-3.06,-3.0658,-3.0807,-3.1292,-3.1409,-3.1409,-3.1467,-3.1496,-3.1496,-3.1496,-3.1496,-3.1496,-3.1496,-3.1496,-3.1496,-3.1496,-3.1496,-3.1496,-3.1496,-3.1496,-3.1496,-3.1496,-3.0928,-3.0561,-3.0824,-3.0876,-3.1097,-3.1663,-3.2344,-3.2931,-3.316,-3.3224,-3.3245,-3.3245,-3.3261,-3.3293,-2.9561,-2.9561,-2.9464,-2.9451,-2.9478,-2.9379,-2.9175,-2.8803,-2.8803,-2.876,-2.8661,-2.8563,-2.8519,-2.8541,-2.8628,-2.8672,-2.8672,-2.876,-2.8803,-2.8803,-2.8705,-2.8418,-2.7991,-2.7805,-2.7745,-2.7797,-2.8161,-2.86,-2.9,-2.9546,-2.9507,-2.9,-2.9,-2.8961,-2.891,0.0,0.0,0.0,-2.7632,-2.7278,-2.7144,-2.6891,-2.6253,-2.5339,-2.4921,0.0,-2.3591,-2.3041,-2.2747,-2.2734,-2.2598,0.0,0.0,0.0,0.0,0.0,0.0,0.0,0.0,0.0,0.0,0.0,-2.2758,-2.3578,-2.4448,-2.5761,-2.6591,-2.6665,-2.6612,-2.6622,-2.6818,-2.672,-2.6892,-2.7464,-2.7591,-2.8026,-2.8983,-2.8892,-2.9087,-3.0101,-2.9856,-2.9948,-3.0822,-3.0925,-3.1087,-3.1453,-3.1496,-3.1496,-3.1496,-3.1496,-3.1496,-3.1496,-3.1496,-3.1496,-3.1496,-3.1496,-3.1496,-3.1496,-3.1496,-3.1496,-3.1451,-3.0957,-3.0621,-3.0928,-3.0995,-3.1092,-3.1455,-3.2237,-3.2912,-3.2978,-3.315,-3.3293,-3.3293,-3.3293,-3.3293,-3.0497,0.0,-3.0249,-3.0149,0.0,-2.9674,-2.9336,-2.9153,-2.8902,-2.8803,-2.8803,-2.8803,-2.8803,-2.8803,-2.8803,-2.8803,-2.8803,-2.8803,-2.8803,-2.8803,-2.8803,-2.8672,-2.8386,-2.8111,-2.8088,-2.83,-2.8141,-2.839,-2.9027,-2.9218,-2.9096,-2.8645,-2.8766,-2.8633,-2.8291,-2.8183,-2.8207,-2.8339,-2.8139,-2.7834,-2.7499,-2.7126,-2.6569,-2.5887,0.0,0.0,0.0,0.0,0.0,0.0,0.0,0.0,0.0,0.0,0.0,-2.218,-2.1378,-2.1026,-2.1384,-2.1453,-2.1987,-2.3171,-2.4456,-2.5324,-2.5539,-2.6489,-2.7237,-2.7495,-2.7292,-2.7286,-2.7752,-2.753,-2.7581,-2.8058,-2.8139,-2.8452,-2.916,-2.9324,-2.9637,-3.0297,-3.0418,-3.0598,-3.1058,-3.1146,-3.1204,-3.1438,-3.1496,-3.1496,-3.1496,-3.1496,-3.1496,-3.1496,-3.1496,-3.1496,-3.1496,-3.1496,-3.1496,-3.1496,-3.1496,-3.1496,-3.1496,-3.1227,-3.1044,-3.12,-3.1244,-3.1354,-3.1823,-3.2334,-3.273,-3.3016,-3.3187,-3.3293,-3.3293,-3.3293,-3.3293,-3.1567,-3.1586,-3.1192,-3.0974,-3.0832,-3.0067,-2.9631,-2.9493,0.0,0.0,0.0,-2.8803,-2.8803,-2.8803,-2.8803,-2.8803,-2.8803,-2.8803,-2.8803,-2.8803,-2.8803,-2.8803,-2.8781,-2.8353,-2.8441,-2.8936,-2.8221,-2.829,-2.9136,-2.8865,-2.8562,-2.8275,-2.8357,-2.8183,-2.7701,-2.777,-2.7983,-2.8339,-2.8459,-2.8287,-2.7891,-2.7441,-2.7007,-2.649,-2.5712,-2.5192,-2.4858,-2.4514,-2.3979,-2.328,-2.3574,-2.371,-2.344,-2.2978,-2.2882,-2.3183,-2.2435,-2.2083,-2.2406,-2.246,-2.2979,-2.4236,-2.6015,-2.6794,-2.6296,-2.6987,-2.7605,-2.7984,-2.7482,-2.753,-2.8497,-2.8058,-2.7936,-2.8519,-2.8587,-2.8766,-2.9135,-2.9574,-2.9884,-3.0388,-3.0703,-3.1161,-3.1176,-3.1292,-3.1409,-3.1467,-3.1496,-3.1496,-3.1496,-3.1496,-3.1496,-3.1496,-3.1496,-3.1496,-3.1496,-3.1496,-3.1496,-3.1496,-3.1496,-3.1496,-3.1496,-3.1496,-3.1539,-3.158,-3.1582,-3.1823,-3.2342,-3.2508,-3.2687,-3.3187,-3.3293,-3.3293,-3.3293,-3.3293,-3.3293,-3.1567,-3.1567,-3.1542,-3.128,-3.0887,-3.0756,-3.0231,-2.9456,-2.9011,-2.8803,-2.8803,-2.8803,-2.8803,-2.8803,-2.8803,-2.8803,-2.8803,-2.8803,-2.8803,0.0,-2.8803,-2.8803,-2.8803,-2.8727,-2.8807,-2.8992,-2.8878,-2.874,-2.8637,-2.8563,-2.8069,-2.7234,-2.7161,-2.7126,-2.7085,-2.7539,-2.781,-2.7891,-2.8287,-2.8379,-2.8167,-2.8395,-2.7957,-2.6813,-2.6591,-2.6313,-2.5819,-2.4989,-2.4535,-2.4448,-2.4304,-2.4289,-2.4389,-2.43,-2.4179,-2.3885,-2.3728,-2.3464,-2.302,-2.2995,-2.3371,-2.4364,-2.6122,-2.7077,-2.6922,-2.7816,-2.8434,-2.847,-2.794,-2.7872,-2.8465,-2.8071,-2.7976,-2.8505,-2.8587,-2.8619,-2.8716,-2.8862,-2.9004,-2.9071,-2.9324,-2.9931,-3.0433,-3.0762,-3.1117,-3.1409,-3.1496,-3.1496,-3.1496,-3.1496,-3.1496,-3.1496,-3.1496,-3.1496,-3.1496,-3.1496,-3.1496,-3.1496,-3.1496,-3.1496,-3.1496,-3.1496,-3.1597,-3.184,-3.1855,-3.2094,-3.2636,-3.2843,-3.2908,-3.316,-3.3256,-3.3282,-3.3282,-3.3282,-3.3309,-3.1567,-3.1567,-3.1567,-3.1498,-3.1269,-3.1007,-3.0504,-2.9871,-2.9642,-2.9285,-2.8825,-2.8803,-2.8803,-2.8803,-2.8803,-2.8803,-2.8803,-2.8803,-2.8803,-2.8803,-2.8803,-2.8803,-2.8803,-2.8803,-2.8822,-2.8865,-2.861,-2.8511,-2.8642,-2.8491,-2.7944,-2.7142,-2.6632,-2.652,-2.6891,-2.6816,-2.7092,-2.7758,-2.8035,-2.8075,-2.7983,-2.7834,-2.7648,-2.7334,-2.6878,-2.6662,-2.6768,-2.6401,-2.5806,-2.5055,-2.5334,-2.5269,-2.4854,-2.4752,-2.4748,-2.4845,-2.4594,-2.4173,-2.3627,-2.3725,-2.3839,-2.4021,-2.5775,-2.6794,-2.6641,-2.7818,-2.8587,-2.8587,-2.8329,-2.8288,-2.8573,-2.8343,-2.8302,-2.8573,-2.8587,-2.8587,-2.8651,-2.9135,-2.9387,-2.9481,-3.0054,-3.0569,-3.0836,-3.1029,-3.1248,-3.1467,-3.1496,-3.1496,-3.1496,-3.1496,-3.1496,-3.1496,-3.1496,-3.1496,-3.1496,-3.1496,-3.1496,-3.1496,-3.1496,-3.1496,-3.1496,-3.1496,-3.1553,-3.1668,-3.1741,-3.1912,-3.2361,-3.2416,-3.2511,-3.2742,-3.2989,-3.3058,-3.3085,-3.3192,-3.3309,-3.1665,-3.1567,-3.1567,-3.1567,-3.1586,-3.1214,-3.0788,-3.0384,-3.0351,-2.9882,-2.9197,-2.9121,-2.9077,-2.8967,-2.8967,-2.8902,-2.8814,-2.8803,-2.8803,-2.8803,-2.8803,-2.8803,-2.8803,-2.8803,-2.8803,-2.876,-2.8375,-2.8342,-2.8565,-2.8366,-2.7887,-2.7141,-2.6321,-2.6146,-2.6644,-2.6146,-2.6385,-2.7336,-2.7366,-2.7447,-2.7568,-2.7278,-2.7307,-2.7695,-2.7115,-2.7037,-2.7666,-2.7585,-2.6987,-2.6019,-2.6442,-2.6357,-2.5586,-2.5419,-2.5448,-2.5561,-2.5222,-2.4713,-2.4255,-2.4513,-2.4498,-2.4134,-2.5574,-2.6517,-2.6643,-2.761,-2.8387,-2.8546,-2.8451,-2.841,-2.8532,-2.8438,-2.8438,-2.856,-2.8587,-2.8587,-2.8683,-2.9293,-2.9822,-2.9962,-3.0673,-3.1176,-3.1307,-3.1438,-3.1496,-3.1496,-3.1496,-3.1496,-3.1496,-3.1496,-3.1496,-3.1496,-3.1496,-3.1496,-3.1496,-3.1496,-3.1496,-3.1496,-3.1496,-3.1496,-3.1496,-3.1496,-3.1496,-3.1524,-3.1496,-3.1683,-3.194,-3.204,-3.215,-3.2413,-3.2648,-3.2827,-3.2978,-3.3229,-3.3346,-3.2044,-3.16,-3.1578,-3.1567,-3.1567,-3.1564,-3.1269,-3.0865,-3.0832,-3.0559,-3.01,-3.0078,-2.9827,-2.9456,-2.946,-2.9219,-2.8836,-2.8803,-2.8803,-2.8803,-2.8803,-2.8803,-2.8803,-2.8803,-2.8803,-2.8803,-2.8738,-2.8473,-2.8189,-2.807,-2.7589,-2.6682,-2.6157,-2.5948,-2.5979,-2.5937,-2.5979,-2.6093,-2.6063,-2.6354,-2.6974,-2.747,-2.773,-2.7799,-2.7723,-2.798,-2.8591,-2.787,-2.7519,-2.7704,-2.752,-2.7309,-2.7066,-2.7045,-2.6603,-2.5686,-2.5548,-2.531,-2.4833,-2.5184,-2.5438,-2.5451,-2.5894,-2.6543,-2.7223,-2.7319,-2.7685,-2.8287,-2.8125,-2.8112,-2.8478,-2.8166,-2.8112,-2.8532,-2.8587,-2.8587,-2.8619,-2.8651,-2.8908,-2.9341,-3.0023,-3.0403,-3.0881,-3.1248,-3.1482,-3.1409,-3.1467,-3.1496,-3.1496,-3.1496,-3.1496,-3.1496,-3.1496,-3.1496,-3.1496,-3.1496,-3.1496,-3.1496,-3.1511,-3.157,-3.1615,-3.1615,-3.1511,-3.1705,-3.1585,-3.1716,-3.187,-3.2012,-3.2066,-3.2219,-3.2385,-3.2578,-3.2989,-3.3335,-3.3529,-3.2263,-3.2044,-3.1749,-3.1567,-3.1567,-3.1567,-3.1509,-3.1334,-3.1334,-3.1214,-3.1061,-3.105,-3.0635,-2.9915,-2.9609,-2.9416,-2.9219,-2.8935,-2.8803,-2.8803,-2.8803,-2.8803,-2.8803,-2.8803,-2.8803,-2.8803,-2.8803,-2.8705,-2.8451,-2.8132,-2.7642,-2.7009,-2.6562,-2.619,-2.5928,-2.5895,-2.5895,-2.5895,-2.5895,-2.6032,-2.6313,-2.6539,-2.7062,-2.7718,-2.7799,-2.8343,-2.9248,-2.8999,-2.8586,-2.8039,-2.7903,-2.7506,-2.6733,-2.6791,-2.6625,-2.616,-2.5774,-2.5511,-2.5285,-2.5485,-2.5473,-2.5159,-2.5895,-2.6506,-2.6723,-2.694,-2.744,-2.8149,-2.8255,-2.8356,-2.8532,-2.837,-2.8343,-2.856,-2.8587,-2.8587,-2.8587,-2.9117,-2.9481,-2.9421,-3.0282,-3.0851,-3.0866,-3.1219,-3.1351,-3.1234,-3.1292,-3.1467,-3.1496,-3.1496,-3.1496,-3.1496,-3.1496,-3.1496,-3.1496,-3.1496,-3.1511,-3.157,-3.1839,-3.2079,-3.2108,-3.2497,-3.2557,-3.2153,-3.2049,-3.1884,-3.1685,-3.1727,-3.1754,-3.191,-3.2122,-3.233,-3.2962,-3.3229,-3.3398,-3.2601,-3.2328,-3.1837,-3.1567,-3.1567,-3.1567,-3.1567,-3.1567,-3.1567,-3.1567,-3.1567,-3.1567,-3.1258,-3.0592,-3.0089,-2.9751,-2.9467,-2.9153,-2.8924,-2.8825,-2.8803,-2.8803,-2.8803,-2.8803,-2.8803,-2.8803,-2.8803,-2.8803,-2.8749,-2.8276,-2.7751,-2.7304,-2.6856,-2.6387,-2.595,-2.5895,-2.5979,-2.6146,-2.6199,-2.6133,-2.6,-2.6091,-2.671,-2.7718,-2.7799,-2.8362,-2.9476,-2.9541,-2.9099,-2.8073,-2.8089,-2.7628,-2.6661,-2.6669,-2.665,-2.6474,-2.6109,-2.5871,-2.5837,-2.5824,-2.5674,-2.5372,-2.5912,-2.6329,-2.6432,-2.666,-2.7121,-2.7835,-2.8276,-2.8444,-2.8587,-2.8587,-2.8587,-2.8587,-2.8587,-2.8587,-2.8651,-2.9293,-2.9543,-2.9453,-3.0115,-3.0851,-3.0688,-3.0866,-3.094,-3.0896,-3.1087,-3.1365,-3.1482,-3.1496,-3.1496,-3.1496,-3.1496,-3.1496,-3.1496,-3.1496,-3.1525,-3.1839,-3.2213,-3.2512,-3.2706,-3.323,-3.344,-3.2811,-3.2647,-3.2407,-3.2032,-3.1824,-3.1524,-3.1597,-3.1826,-3.2178,-3.2648,-3.2893,-3.3145,-3.3213,-3.235,-3.1848,-3.1589,-3.1567,-3.1567,-3.1567,-3.1567,-3.1567,-3.1567,-3.1567,-3.1567,-3.1545,-3.1425,-3.0935,-3.033,-2.9576,-2.9445,-2.9208,-2.8836,-2.8803,-2.8803,-2.8803,-2.8803,-2.8803,-2.8803,-2.8803,-2.8803,-2.8771,-2.8287,-2.7751,-2.7304,-2.6878,-2.6409,-2.6056,-2.6021,-2.6229,-2.6809,-2.6809,-2.6635,-2.6245,-2.6644,-2.713,-2.7756,-2.7775,-2.8162,-2.8849,-2.8925,-2.8675,-2.8123,-2.806,-2.7784,-2.7283,-2.7231,-2.6989,-2.6562,-2.6449,-2.6436,-2.6424,-2.6399,-2.6373,-2.6323,-2.595,-2.6042,-2.6739,-2.6529,-2.6696,-2.7451,-2.7835,-2.821,-2.8522,-2.8587,-2.8587,-2.8587,-2.8587,-2.8587,-2.8587,-2.8734,-2.8881,-2.9153,-2.9467,-2.9777,-3.0099,-3.0129,-3.0418,-3.0628,-3.0807,-3.0984,-3.1351,-3.1467,-3.1496,-3.1496,-3.1496,-3.1496,-3.1496,-3.1496,-3.178,-3.2034,-3.2228,-3.2632,-3.3125,-3.3484,-3.344,-3.329,-3.2796,-3.2482,-3.2333,-3.2049,-3.163,-3.1611,-3.184,-3.2178,-3.2385,-3.2629,-3.2857,-3.3235,-3.2372,-3.2186,-3.1924,-3.1589,-3.1567,-3.1567,-3.1567,-3.1567,-3.1567,-3.1567,-3.1567,-3.1414,-3.1084,-3.0912,-3.0532,-2.9969,-2.9631,-2.9263,-2.8847,-2.8803,-2.8803,-2.8803,-2.8803,-2.8803,-2.8803,-2.8803,-2.8803,-2.8792,-2.8571,-2.8091,-2.7502,-2.7578,-2.7325,-2.6737,-2.6899,-2.7255,-2.7429,-2.7126,-2.6982,-2.7082,-2.6668,-2.6837,-2.7843,-2.757,-2.7673,-2.8374,-2.8411,-2.8147,-2.7607,-2.7582,-2.7331,-2.6864,-2.6788,-2.67,-2.6524,-2.6487,-2.6487,-2.6487,-2.6487,-2.6487,-2.6474,-2.6311,-2.6269,-2.6569,-2.6515,-2.6625,-2.7069,-2.7276,-2.7623,-2.8197,-2.8471,-2.8587,-2.8587,-2.8587,-2.8587,-2.8651,-2.883,-2.9008,-2.8944,-2.9103,-2.9404,-2.9623,-3.0146,-3.0343,-3.0009,-3.0628,-3.1102,-3.1131,-3.1292,-3.1496,-3.1496,-3.1496,-3.1496,-3.1496,-3.1496,-3.163,-3.1854,-3.2108,-3.2437,-3.2856,-3.335,-3.344,-3.3095,-3.2662,-3.2318,-3.2108,-3.1839,-3.1496,-3.1553,-3.1783,-3.1953,-3.2135,-3.2315,-3.252,-3.342,-3.2874,-3.2667,-3.2317,-3.1902,-3.187,-3.1771,-3.1589,-3.1567,-3.1567,-3.1578,-3.1414,-3.1146,-3.0785,-3.0588,-3.0289,-2.9895,-2.9451,-2.8967,-2.8516,-2.8344,-2.8279,-2.8326,-2.8466,-2.8571,-2.856,-2.8746,-2.8803,-2.8803,-2.8803,-2.8244,-2.7359,-2.7788,-2.7514,-2.6843,-2.7185,-2.758,-2.7689,-2.7592,-2.7584,-2.7538,-2.7191,-2.6943,-2.7209,-2.7164,-2.7372,-2.7809,-2.7833,-2.7582,-2.714,-2.7052,-2.6876,-2.6537,-2.6487,-2.6487,-2.6487,-2.6487,-2.6487,-2.6487,-2.6487,-2.6487,-2.6487,-2.6487,-2.6487,-2.6487,-2.6487,-2.6624,-2.6782,-2.696,-2.7242,-2.7656,-2.8033,-2.8327,-2.8522,-2.8587,-2.8587,-2.8619,-2.8894,-2.8894,-2.8748,-2.8862,-2.904,-2.9121,-2.9639,-2.9825,-2.956,-3.0493,-3.0911,-3.1073,-3.1263,-3.1496,-3.1496,-3.1496,-3.1496,-3.1496,-3.1496,-3.175,-3.1989,-3.2064,-3.2348,-3.2632,-3.3125,-3.326,-3.2886,-3.2512,-3.2153,-3.1839,-3.1585,-3.1496,-3.1496,-3.1553,-3.1697,-3.184,-3.1925,-3.2092,-3.3803,-3.3661,-3.3321,-3.2743,-3.2328,-3.2263,-3.2044,-3.1662,-3.1567,-3.1567,-3.1516,-3.1105,-3.0836,-3.064,-3.0193,-2.9735,-2.929,-2.8773,-2.8346,-2.7987,-2.7571,-2.7373,-2.7468,-2.794,-2.8186,-2.8186,-2.856,-2.8803,-2.8803,-2.8781,-2.8311,-2.7479,-2.7448,-2.7094,-2.599,-2.6757,-2.7278,-2.7742,-2.8223,-2.8135,-2.7468,-2.8074,-2.768,-2.6308,-2.6836,-2.7308,-2.7318,-2.7329,-2.7042,-2.6625,-2.6537,-2.6499,-2.6499,-2.6487,-2.6487,-2.6487,-2.6487,-2.6487,-2.6487,-2.6487,-2.6487,-2.6487,-2.6487,-2.6487,-2.6487,-2.6487,-2.6521,-2.6589,-2.6782,-2.704,-2.7108,-2.739,-2.7835,-2.8471,-2.8522,-2.8522,-2.8587,-2.8587,-2.8587,-2.8587,-2.8651,-2.8619,-2.8619,-2.8862,-2.9198,-2.9699,-3.016,-3.0553,-3.1073,-3.1322,-3.1467,-3.1496,-3.1496,-3.1496,-3.1496,-3.154,-3.1899,-3.2228,-3.2213,-3.2348,-3.2542,-3.2931,-3.3021,-3.2736,-3.2617,-3.2258,-3.172,-3.1496,-3.1496,-3.1496,-3.1511,-3.1511,-3.1611,-3.1697,-3.164,-3.4109,-3.3748,-3.3278,-3.2862,-3.2361,-3.2022,-3.176,-3.1629,-3.1567,-3.1567,-3.1516,-3.1043,-3.0588,-3.0193,-2.9669,-2.9114,-2.8555,-2.7879,-2.7623,-2.7827,-2.7735,-2.7704,-2.7809,-2.8279,-2.8571,-2.8571,-2.8699,-2.8803,-2.8803,-2.8803,-2.8311,-2.7523,-2.7744,-2.746,-2.6617,-2.7185,-2.7649,-2.777,-2.7592,-2.7686,-2.8113,-2.783,-2.7633,-2.7841,-2.7548,-2.7329,-2.7304,-2.6952,-2.6675,-2.6487,-2.6487,-2.6487,-2.6487,-2.6487,-2.6487,-2.6487,-2.6487,-2.6487,-2.6487,-2.6487,-2.6487,-2.6487,-2.6487,-2.6487,-2.6487,-2.6487,-2.6487,-2.6487,-2.6611,-2.6714,-2.6973,-2.7074,-2.749,-2.8164,-2.8243,-2.8373,-2.8554,-2.8587,-2.8587,-2.8587,-2.8587,-2.8587,-2.8651,-2.8798,-2.904,-2.9212,-2.9901,-3.0598,-3.0613,-3.1102,-3.1467,-3.1496,-3.1496,-3.1438,-3.1365,-3.1336,-3.1573,-3.1811,-3.1915,-3.2034,-3.2288,-3.2422,-3.2527,-3.2587,-3.2482,-3.2228,-3.1705,-3.1496,-3.1496,-3.1496,-3.1496,-3.1496,-3.1496,-3.1496,-3.1496,-3.4349,-3.4021,-3.3541,-3.306,-3.2601,-3.211,-3.1793,-3.1589,-3.1567,-3.1527,-3.1208,-3.0754,-3.0183,-2.9617,-2.9026,-2.8611,-2.8203,-2.7402,-2.721,-2.7509,-2.7452,-2.7441,-2.7526,-2.7951,-2.8466,-2.8699,-2.8617,-2.8617,-2.8803,-2.8771,-2.8265,-2.7546,-2.7744,-2.7439,-2.6693,-2.7156,-2.747,-2.7458,-2.7603,-2.79,-2.8316,-2.8198,-2.8128,-2.8237,-2.7833,-2.7406,-2.7017,-2.6663,-2.6487,-2.6487,-2.6487,-2.6487,-2.6487,-2.6487,-2.6487,-2.6487,-2.6487,-2.6487,-2.6487,-2.6487,-2.6487,-2.6487,-2.6487,-2.6487,-2.6487,-2.6487,-2.6487,-2.6487,-2.6487,-2.6589,-2.676,-2.6816,-2.7154,-2.7815,-2.8046,-2.8243,-2.8522,-2.8587,-2.8587,-2.8587,-2.8587,-2.8587,-2.8683,-2.8798,-2.9008,-2.9008,-2.9654,-3.0343,-3.0221,-3.0628,-3.0925,-3.1161,-3.119,-3.1161,-3.1204,-3.1219,-3.1219,-3.1352,-3.1455,-3.1602,-3.178,-3.1824,-3.1899,-3.2019,-3.1989,-3.1944,-3.1511,-3.1496,-3.1496,-3.1496,-3.1436,-3.1496,-3.1496,-3.1496,-3.1496,-3.4468,-3.4402,-3.3956,-3.3431,-3.2973,-3.247,-3.2001,-3.1662,-3.1567,-3.1311,-3.0795,-3.0349,-2.9722,-2.9132,-2.8611,-2.8344,-2.8144,-2.7412,-2.7002,-2.699,-2.6802,-2.6678,-2.687,-2.7231,-2.7846,-2.8513,-2.8279,-2.8326,-2.8803,-2.8803,-2.8311,-2.7413,-2.7327,-2.6846,-2.6281,-2.6561,-2.685,-2.6962,-2.7834,-2.8139,-2.7963,-2.8723,-2.8785,-2.7491,-2.7603,-2.7329,-2.6671,-2.6417,-2.643,-2.6487,-2.6487,-2.6487,-2.6487,-2.6487,-2.6487,-2.6487,-2.6487,-2.6487,-2.6487,-2.6487,-2.6487,-2.6487,-2.6487,-2.6487,-2.6487,-2.6487,-2.6487,-2.6487,-2.6487,-2.6499,-2.6533,-2.6521,-2.6863,-2.7403,-2.7914,-2.8308,-2.8522,-2.8587,-2.8587,-2.8587,-2.8587,-2.8587,-2.8587,-2.8651,-2.883,-2.9071,-2.931,-2.9623,-2.9915,-3.019,-3.0328,-3.0539,-3.0762,-3.0762,-3.0762,-3.0762,-3.0807,-3.1058,-3.1146,-3.1203,-3.1377,-3.1421,-3.1316,-3.1421,-3.172,-3.163,-3.1391,-3.1256,-3.1241,-3.1212,-3.1256,-3.1421,-3.1496,-3.1496,-3.1496,-3.4468,-3.4436,-3.3617,-3.3234,-3.2993,-3.2186,-3.176,-3.1578,-3.1567,-3.1249,-3.0744,-3.0245,-2.9617,-2.9069,-2.8548,-2.8301,-2.8086,-2.7402,-2.7012,-2.6916,-2.6664,-2.6709,-2.6955,-2.7146,-2.7563,-2.8139,-2.8092,-2.829,-2.8757,-2.8803,-2.8289,-2.7348,-2.7304,-2.6835,-2.6079,-2.6115,-2.6157,-2.6188,-2.6467,-2.6946,-2.7232,-2.7165,-2.7321,-2.7642,-2.6825,-2.643,-2.6272,-2.6007,-2.606,-2.6452,-2.6487,-2.6487,-2.6487,-2.6487,-2.6487,-2.6487,-2.6487,-2.6487,-2.6487,-2.6487,-2.6487,-2.6487,-2.6487,-2.6487,-2.6487,-2.6487,-2.6487,-2.6487,-2.6487,-2.6487,-2.6487,-2.6487,-2.6748,-2.7142,-2.7868,-2.8425,-2.8522,-2.8587,-2.8587,-2.8587,-2.8587,-2.8587,-2.8587,-2.8587,-2.8638,-2.883,-2.9071,-2.9296,-2.9498,-2.9792,-2.9993,-3.0129,-3.0282,-3.0282,-3.0267,-3.0282,-3.0433,-3.0777,-3.0852,-3.085,-3.1053,-3.1227,-3.1032,-3.0913,-3.1705,-3.1854,-3.1152,-3.0702,-3.0733,-3.0928,-3.1122,-3.1286,-3.1436,-3.1496,-3.1496,-3.4468,-3.4447,-3.3475,-3.3124,-3.2993,-3.2044,-3.1465,-3.1311,-3.1259,-3.0785,-3.0172,-2.9764,-2.93,-2.8761,-2.8451,-2.8291,-2.8184,-2.7402,-2.7031,-2.6926,-2.6428,-2.6575,-2.6993,-2.7051,-2.7289,-2.7893,-2.7752,-2.8092,-2.8664,-2.8803,-2.8267,-2.7479,-2.7315,-2.6824,-2.5961,-2.5895,-2.5895,-2.5979,-2.6146,-2.6561,-2.6857,-2.6869,-2.7014,-2.7364,-2.659,-2.6318,-2.6348,-2.6135,-2.6072,-2.6176,-2.6349,-2.6487,-2.6487,-2.6487,-2.6487,-2.6487,-2.6487,-2.6487,-2.6487,-2.6487,-2.6487,-2.6487,-2.6487,-2.6487,-2.6487,-2.6487,-2.6487,-2.6487,-2.6487,-2.6487,-2.6533,-2.6624,-2.6782,-2.704,-2.7689,-2.8183,-2.8373,-2.849,-2.8587,-2.8587,-2.8587,-2.8587,-2.8587,-2.8587,-2.8587,-2.8651,-2.8798,-2.8912,-2.9053,-2.9355,-2.9605,-2.973,-2.9792,-2.9777,-2.9747,-2.9747,-2.9976,-3.0328,-3.0631,-3.0616,-3.0864,-3.1066,-3.0913,-3.0914,-3.163,-3.1735,-3.0735,-3.0197,-3.0597,-3.0806,-3.1016,-3.1152,-3.1301,-3.1227,-3.1256,-3.4468,-3.4436,-3.3519,-3.3115,-3.2887,-3.1995,-3.1221,-3.0795,-3.0681,-3.0172,-2.9343,-2.9132,-2.8867,-2.8291,-2.8344,-2.8291,-2.8242,-2.7402,-2.6973,-2.6621,-2.6182,-2.6149,-2.6754,-2.6678,-2.7156,-2.7809,-2.7478,-2.7951,-2.8617,-2.8803,-2.8222,-2.7389,-2.7172,-2.6704,-2.5912,-2.577,-2.5853,-2.5979,-2.6354,-2.6561,-2.6693,-2.688,-2.689,-2.6709,-2.6526,-2.6202,-2.6136,-2.6141,-2.6141,-2.5606,-2.6164,-2.6452,-2.6487,-2.6487,-2.6487,-2.6487,-2.6487,-2.6487,-2.6487,-2.6487,-2.6487,-2.6487,-2.6487,-2.6487,-2.6487,-2.6487,-2.6487,-2.6487,-2.6487,-2.6487,-2.6533,-2.676,-2.6837,-2.6939,-2.7289,-2.7656,-2.8013,-2.8341,-2.8554,-2.8554,-2.8554,-2.8587,-2.8587,-2.8587,-2.8587,-2.8587,-2.8716,-2.8748,-2.878,-2.8894,-2.9117,-2.923,-2.9261,-2.9261,-2.9247,-2.9216,-2.9529,-2.9872,-3.0278,-3.047,-3.0778,-3.0923,-3.08,-3.0932,-3.1219,-3.0729,-2.9614,-2.961,-3.0244,-3.0387,-3.0402,-3.0776,-3.1092,-3.0851,-3.0776,-3.4468,-3.4469,-3.3879,-3.315,-3.2373,-3.1752,-3.0979,-3.0203,-3.0203,-2.9774,-2.9185,-2.9079,-2.8761,-2.8291,-2.8301,-2.8301,-2.8184,-2.7402,-2.6699,-2.5996,-2.583,-2.5781,-2.6149,-2.6352,-2.7061,-2.7668,-2.7846,-2.8139,-2.8617,-2.8577,-2.8071,-2.6935,-2.6752,-2.6301,-2.5551,-2.5464,-2.5549,-2.5853,-2.6104,-2.6146,-2.611,-2.601,-2.5941,-2.5775,-2.5524,-2.5032,-2.4763,-2.5324,-2.5676,-2.5781,-2.6129,-2.6487,-2.6487,-2.6487,-2.6487,-2.6487,-2.6487,-2.6487,-2.6487,-2.6487,-2.6487,-2.6487,-2.6487,-2.6487,-2.6487,-2.6487,-2.6487,-2.6487,-2.6487,-2.6487,-2.6521,-2.6568,-2.6624,-2.6748,-2.7087,-2.7456,-2.7669,-2.7967,-2.8243,-2.8308,-2.8471,-2.8587,-2.8587,-2.8587,-2.8587,-2.8587,-2.8587,-2.8587,-2.8587,-2.8587,-2.8716,-2.8894,-2.8894,-2.8926,-2.8958,-2.9008,-2.931,-2.9623,-3.0007,-3.0279,-3.0587,-3.0676,-3.0527,-3.0498,-3.0602,-2.9837,-2.9045,-2.9328,-3.002,-2.9892,-2.9819,-3.0163,-3.0387,-3.0268,-3.0283,-3.4149,-3.3968,-3.3073,-3.2383,-3.1704,-3.1063,-3.0307,-2.97,-2.9564,-2.9248,-2.8824,-2.8708,-2.8548,-2.8291,-2.8301,-2.8301,-2.8096,-2.7402,-2.6512,-2.5869,-2.5684,-2.583,-2.6072,-2.6352,-2.6832,-2.7289,-2.7299,-2.7584,-2.794,-2.8006,-2.7519,-2.6713,-2.6594,-2.6258,-2.5636,-2.5506,-2.5675,-2.5853,-2.5895,-2.5895,-2.583,-2.5666,-2.5591,-2.5757,-2.573,-2.5624,-2.5336,-2.5711,-2.6002,-2.6107,-2.6314,-2.6487,-2.6487,-2.6487,-2.6487,-2.6487,-2.6487,-2.6487,-2.6487,-2.6487,-2.6487,-2.6487,-2.6487,-2.6487,-2.6487,-2.6487,-2.6487,-2.6487,-2.6487,-2.6487,-2.6487,-2.6487,-2.6487,-2.6521,-2.6794,-2.7032,-2.7167,-2.7769,-2.8341,-2.8373,-2.849,-2.8554,-2.8587,-2.8554,-2.8587,-2.8587,-2.8587,-2.8587,-2.8587,-2.8587,-2.8587,-2.8683,-2.8651,-2.8651,-2.8716,-2.8862,-2.9153,-2.9498,-2.9875,-3.0063,-3.027,-3.0277,-3.0207,-3.0265,-3.028,-2.9777,-2.9193,-2.9523,-2.9466,-2.928,-2.9235,-2.952,-2.9789,-3.0013,-2.9983,-3.348,-3.3244,-3.2028,-3.1367,-3.1006,-3.0323,-2.9613,-2.9026,-2.8973,-2.8761,-2.8344,-2.8301,-2.8344,-2.8301,-2.8301,-2.8252,-2.7891,-2.7402,-2.6502,-2.5771,-2.5684,-2.5878,-2.6169,-2.6265,-2.6362,-2.641,-2.6688,-2.7003,-2.7231,-2.7169,-2.7034,-2.6584,-2.6481,-2.6137,-2.5849,-2.577,-2.577,-2.5853,-2.5895,-2.5895,-2.5895,-2.5883,-2.5913,-2.5935,-2.614,-2.6305,-2.6064,-2.628,-2.6452,-2.6487,-2.6487,-2.6487,-2.6487,-2.6487,-2.6487,-2.6487,-2.6487,-2.6487,-2.6487,-2.6487,-2.6487,-2.6487,-2.6487,-2.6487,-2.6487,-2.6487,-2.6487,-2.6487,-2.6487,-2.6487,-2.6487,-2.6487,-2.6487,-2.6533,-2.6533,-2.6555,-2.6782,-2.7689,-2.8197,-2.8229,-2.8164,-2.8229,-2.836,-2.8438,-2.8522,-2.8587,-2.8587,-2.8587,-2.8587,-2.8587,-2.8587,-2.8587,-2.8587,-2.8587,-2.8619,-2.8651,-2.8944,-2.9166,-2.9574,-2.9668,-2.9777,-2.965,-2.9604,-2.997,-2.9929,-2.9432,-2.9019,-2.8851,-2.8715,-2.8545,-2.8483,-2.8583,-2.9056,-2.9717,-2.9549,-3.2399,-3.2309,-3.1694,-3.0952,-3.0198,-2.9971,-2.9303,-2.8534,-2.8504,-2.8398,-2.8291,-2.8301,-2.8301,-2.8301,-2.8301,-2.792,-2.7412,-2.7002,-2.6473,-2.5801,-2.5684,-2.583,-2.5878,-2.5927,-2.5888,-2.611,-2.6486,-2.6955,-2.7088,-2.7132,-2.6775,-2.6218,-2.6066,-2.5807,-2.5584,-2.5327,-2.5633,-2.5853,-2.5895,-2.5895,-2.583,-2.5972,-2.5798,-2.567,-2.5741,-2.5802,-2.5959,-2.6245,-2.6487,-2.6487,-2.6487,-2.6487,-2.6487,-2.6487,-2.6487,-2.6487,-2.6487,-2.6487,-2.6487,-2.6487,-2.6487,-2.6487,-2.6487,-2.6487,-2.6487,-2.6487,-2.6487,-2.6487,-2.6487,-2.6487,-2.6487,-2.6487,-2.6487,-2.6555,-2.6692,-2.685,-2.6952,-2.7289,-2.7623,-2.7543,-2.7656,-2.7901,-2.8131,-2.8373,-2.8471,-2.8554,-2.8587,-2.8587,-2.8587,-2.8587,-2.8587,-2.8587,-2.8587,-2.8587,-2.8587,-2.8619,-2.8716,-2.8734,-2.8958,-2.8958,-2.9022,-2.8862,-2.8975,-2.9426,-2.9513,-2.9155,-2.8755,-2.8354,-2.8184,-2.8134,-2.7894,-2.7591,-2.8289,-2.8951,-2.8573,-3.0937,-3.1211,-3.0493,-2.9904,-2.9376,-2.9124,-2.8765,-2.8374,-2.8301,-2.8301,-2.8301,-2.8301,-2.8301,-2.8301,-2.8301,-2.7812,-2.7158,-2.6758,-2.6338,-2.5781,-2.5684,-2.5684,-2.5684,-2.5684,-2.5684,-2.583,-2.6207,-2.662,-2.6764,-2.6534,-2.6482,-2.6545,-2.6166,-2.5845,-2.584,-2.572,-2.5707,-2.5895,-2.5895,-2.5764,-2.5681,-2.6047,-2.6097,-2.5669,-2.6017,-2.6308,-2.6074,-2.628,-2.6487,-2.6487,-2.6487,-2.6487,-2.6487,-2.6487,-2.6487,-2.6487,-2.6487,-2.6487,-2.6487,-2.6487,-2.6487,-2.6487,-2.6487,-2.6487,-2.6487,-2.6487,-2.6487,-2.6487,-2.6487,-2.6487,-2.6487,-2.6487,-2.6487,-2.6521,-2.6658,-2.676,-2.6794,-2.693,-2.6952,-2.704,-2.7556,-2.7901,-2.8112,-2.8276,-2.8438,-2.8522,-2.8587,-2.8587,-2.8587,-2.8587,-2.8587,-2.8587,-2.8587,-2.8519,-2.8532,-2.856,-2.8478,-2.8465,-2.8587,-2.8587,-2.8587,-2.8619,-2.8679,-2.8923,-2.8874,-2.8743,-2.8451,-2.8011,-2.7855,-2.77,-2.746,-2.7362,-2.7794,-2.8004,-2.7824,-2.9455,-2.9873,-2.9196,-2.8906,-2.8755,-2.8447,-2.8301,-2.8301,-2.8301,-2.8301,-2.8301,-2.8301,-2.8301,-2.8271,-2.8096,-2.7685,-2.6914,-2.6523,-2.6172,-2.5771,-2.5684,-2.5684,-2.5684,-2.5684,-2.5684,-2.5732,-2.5781,-2.5917,-2.6207,-2.6014,-2.6292,-2.6398,-2.6057,-2.5981,-2.6163,-2.5934,-2.5919,-2.5895,-2.5884,-2.5655,-2.5599,-2.5922,-2.622,-2.5575,-2.6785,-2.6875,-2.6471,-2.6452,-2.6487,-2.6487,-2.6487,-2.6487,-2.6487,-2.6487,-2.6487,-2.6487,-2.6487,-2.6487,-2.6487,-2.6487,-2.6487,-2.6487,-2.6487,-2.6487,-2.6487,-2.6487,-2.6487,-2.6487,-2.6487,-2.6487,-2.6487,-2.6487,-2.6487,-2.6487,-2.6487,-2.6487,-2.6521,-2.6624,-2.6726,-2.6985,-2.757,-2.7868,-2.8046,-2.8177,-2.8341,-2.8522,-2.8587,-2.8587,-2.8587,-2.8587,-2.8587,-2.8587,-2.856,-2.8465,-2.8451,-2.8505,-2.837,-2.8207,-2.8438,-2.8587,-2.8587,-2.8587,-2.8624,-2.8615,-2.8332,-2.8227,-2.7933,-2.7726,-2.7548,-2.7335,-2.7045,-2.7159,-2.7642,-2.7874,-2.7839,-2.8108,-2.7955,-2.8271,-2.8374,-2.8369,-2.832,-2.8301,-2.8301,-2.8301,-2.8301,-2.8301,-2.8291,-2.8291,-2.8164,-2.7832,-2.7236,-2.668,-2.6357,-2.6113,-2.5723,-2.5684,-2.5684,-2.5684,-2.5684,-2.5684,-2.5684,-2.5684,-2.5732,-2.583,-2.5781,-2.5816,-2.606,-2.6017,-2.5868,-2.5954,-2.5861,-2.5917,-2.5895,-2.5884,-2.5633,-2.519,-2.4675,-2.4895,-2.5189,-2.5479,-2.5707,-2.6213,-2.6314,-2.6383,-2.6418,-2.6452,-2.6487,-2.6487,-2.6487,-2.6487,-2.6487,-2.6487,-2.6487,-2.6487,-2.6487,-2.6487,-2.6487,-2.6487,-2.6487,-2.6487,-2.6487,-2.6487,-2.6487,-2.6487,-2.6487,-2.6487,-2.6487,-2.6487,-2.6487,-2.6487,-2.6487,-2.6487,-2.6487,-2.6602,-2.676,-2.7255,-2.7669,-2.7914,-2.8079,-2.8243,-2.8438,-2.8587,-2.8587,-2.8587,-2.8554,-2.8587,-2.8587,-2.8573,-2.8478,-2.8451,-2.8492,-2.8383,-2.8112,-2.8302,-2.8573,-2.8546,-2.8519,-2.841,-2.8329,-2.8001,-2.7789,-2.7727,-2.7513,-2.7243,-2.7108,-2.7037,-2.7228,-2.7514,-2.7679,-2.7693,-2.7104,-2.7296,-2.7498,-2.7853,-2.8291,-2.8301,-2.8301,-2.8301,-2.8301,-2.8301,-2.8301,-2.8291,-2.8174,-2.7894,-2.7327,-2.6758,-2.6387,-2.6152,-2.5937,-2.5732,-2.5684,-2.5684,-2.5684,-2.5684,-2.5684,-2.5684,-2.5684,-2.5684,-2.5684,-2.5771,-2.5933,-2.6361,-2.5854,-2.5597,-2.5727,-2.5594,-2.554,-2.5473,-2.5456,-2.5251,-2.4912,-2.4726,-2.4608,-2.463,-2.4985,-2.5302,-2.5537,-2.5851,-2.5955,-2.6072,-2.6245,-2.6487,-2.6487,-2.6487,-2.6487,-2.6487,-2.6487,-2.6487,-2.6487,-2.6487,-2.6487,-2.6487,-2.6487,-2.6487,-2.6487,-2.6487,-2.6487,-2.6487,-2.6487,-2.6487,-2.6487,-2.6487,-2.6487,-2.6487,-2.6487,-2.6487,-2.6487,-2.6499,-2.6568,-2.676,-2.6918,-2.7289,-2.7636,-2.7868,-2.7967,-2.8099,-2.8327,-2.8522,-2.849,-2.849,-2.8522,-2.8587,-2.856,-2.8519,-2.8505,-2.8519,-2.8519,-2.8343,-2.8343,-2.8532,-2.8478,-2.8424,-2.8139,-2.761,-2.7019,-2.7001,-2.7343,-2.7337,-2.7116,-2.7115,-2.7122,-2.7181,-2.7251,-2.7214,-2.7314,-2.6093,-2.6718,-2.7152,-2.7691,-2.8301,-2.8301,-2.8301,-2.8301,-2.8301,-2.8232,-2.8115,-2.7988,-2.7705,-2.7366,-2.6728,-2.6377,-2.6182,-2.583,-2.5713,-2.5684,-2.5684,-2.5684,-2.5684,-2.5684,-2.5684,-2.5684,-2.5684,-2.5684,-2.5684,-2.5781,-2.6062,-2.6771,-2.5835,-2.5483,-2.5509,-2.538,-2.5221,-2.5031,-2.5024,-2.4862,-2.4625,-2.4759,-2.4657,-2.4694,-2.4912,-2.5312,-2.5266,-2.5594,-2.5851,-2.6002,-2.628,-2.6487,-2.6487,-2.6487,-2.6487,-2.6487,-2.6487,-2.6487,-2.6487,-2.6487,-2.6487,-2.6487,-2.6487,-2.6487,-2.6487,-2.6487,-2.6487,-2.6487,-2.6487,-2.6487,-2.6487,-2.6487,-2.6487,-2.6487,-2.6487,-2.6487,-2.6487,-2.6499,-2.6533,-2.6624,-2.6748,-2.685,-2.7222,-2.7556,-2.7689,-2.7769,-2.8,-2.836,-2.8425,-2.8425,-2.849,-2.8587,-2.8573,-2.8478,-2.8302,-2.8343,-2.841,-2.8438,-2.8438,-2.8343,-2.8193,-2.7854,-2.7461,-2.6837,-2.628,-2.6573,-2.7099,-2.7072,-2.704,-2.7145,-2.7143,-2.6917,-2.684,-2.687,-2.7071,-2.4962,-2.5898,-2.753,-2.8247,-2.8301,-2.8301,-2.8291,-2.8232,-2.8262,-2.8037,-2.7728,-2.7305,-2.6943,-2.6572,-2.6416,-2.6123,-2.5762,-2.5703,-2.5684,-2.5684,-2.5684,-2.5684,-2.5684,-2.5684,-2.5684,-2.5684,-2.5684,-2.5684,-2.5684,-2.5684,-2.5781,-2.5732,-2.555,-2.5418,-2.528,-2.5132,-2.4971,-2.4807,-2.4827,-2.4757,-2.4463,-2.4377,-2.4361,-2.4957,-2.4988,-2.5206,-2.6198,-2.6129,-2.6094,-2.6094,-2.6383,-2.6487,-2.6487,-2.6487,-2.6487,-2.6487,-2.6487,-2.6487,-2.6487,-2.6487,-2.6487,-2.6487,-2.6487,-2.6487,-2.6487,-2.6487,-2.6487,-2.6487,-2.6487,-2.6436,-2.6449,-2.6487,-2.6474,-2.6348,-2.6361,-2.6487,-2.6487,-2.6487,-2.6487,-2.6521,-2.6589,-2.6714,-2.685,-2.7188,-2.7356,-2.7403,-2.7835,-2.8197,-2.836,-2.8392,-2.849,-2.8554,-2.8587,-2.841,-2.8003,-2.8071,-2.8343,-2.8193,-2.803,-2.7908,-2.7746,-2.7294,-2.6766,-2.6633,-2.6267,-2.6535,-2.6633,-2.6411,-2.6437,-2.7029,-2.7173,-2.6938,-2.6804,-2.6841,-2.7086,-2.5679,-2.6609,-2.7809,-2.8301,-2.8301,-2.8301,-2.8144,-2.793,-2.7953,-2.7666,-2.7236,-2.6826,-2.6543,-2.6348,-2.6074,-2.5918,-2.5703,-2.5684,-2.5684,-2.5684,-2.5684,-2.5684,-2.5684,-2.5684,-2.5684,-2.5684,-2.5684,-2.5684,-2.5684,-2.5684,-2.5684,-2.5595,-2.5265,-2.491,-2.4725,-2.4771,-2.4747,-2.4998,-2.5082,-2.5213,-2.4841,-2.4465,-2.4271,-2.4261,-2.3913,-2.3849,-2.4335,-2.5052,-2.53,-2.5616,-2.6164,-2.6418,-2.6487,-2.6487,-2.6487,-2.6487,-2.6487,-2.6487,-2.6487,-2.6487,-2.6487,-2.6487,-2.6487,-2.6487,-2.6487,-2.6487,-2.6487,-2.6487,-2.6487,-2.6424,-2.6034,-2.6248,-2.6411,-2.6197,-2.6185,-2.6361,-2.6411,-2.6373,-2.6474,-2.6461,-2.6474,-2.6555,-2.6679,-2.6837,-2.6952,-2.7066,-2.7556,-2.7987,-2.8197,-2.8392,-2.849,-2.8522,-2.8554,-2.8587,-2.8234,-2.8261,-2.8343,-2.8017,-2.7664,-2.7393,-2.7162,-2.6633,-2.6199,-2.6158,-2.6077,-2.6022,-2.5848,-2.5569,-2.5795,-2.642,-2.6835,-2.7008,-2.6893,-2.6788,-2.6982,-2.61,-2.6866,-2.7733,-2.8096,-2.8105,-2.8105,-2.7871,-2.751,-2.7471,-2.7226,-2.6807,-2.6396,-2.6191,-2.6094,-2.5918,-2.5713,-2.5684,-2.5684,-2.5684,-2.5684,-2.5684,-2.5684,-2.5684,-2.5684,-2.5684,-2.5684,-2.5684,-2.5684,-2.5684,-2.5684,-2.5615,-2.5322,-2.4844,-2.4512,-2.4366,-2.4171,-2.4251,-2.4594,-2.4956,-2.5136,-2.469,-2.46,-2.459,-2.4321,-2.4146,-2.429,-2.4657,-2.53,-2.5476,-2.5721,-2.6047,-2.6418,-2.6487,-2.6487,-2.6487,-2.6487,-2.6487,-2.6487,-2.6487,-2.6487,-2.6487,-2.6487,-2.6487,-2.6487,-2.6487,-2.6487,-2.6487,-2.6487,-2.6474,-2.6311,-2.5871,-2.6273,-2.6235,-2.5996,-2.5959,-2.6084,-2.6097,-2.6097,-2.6298,-2.6436,-2.6373,-2.6235,-2.6543,-2.6701,-2.6892,-2.7108,-2.7669,-2.8,-2.8066,-2.8295,-2.849,-2.8522,-2.8522,-2.8554,-2.8573,-2.8302,-2.7985,-2.7732,-2.7352,-2.685,-2.6484,-2.5982,-2.5656,-2.5588,-2.548,-2.5331,-2.5264,-2.5226,-2.5469,-2.5864,-2.6202,-2.6533,-2.6662,-2.6549,-2.6666,-2.5919,-2.6393,-2.7299,-2.7728,-2.7689,-2.7728,-2.7432,-2.7051,-2.6982,-2.6758,-2.6377,-2.5977,-2.5762,-2.5742,-2.5703,-2.5684,-2.5684,-2.5684,-2.5684,-2.5684,-2.5684,-2.5684,-2.5684,-2.5684,-2.5684,-2.5684,-2.5684,-2.5684,-2.5684,-2.5684,-2.5527,-2.5098,-2.4639,-2.4287,-2.4307,-2.3564,-2.3208,-2.3276,-2.3841,-2.4135,-2.4258,-2.4501,-2.4781,-2.4999,-2.4797,-2.4798,-2.529,-2.5512,-2.5746,-2.599,-2.6245,-2.6499,-2.6487,-2.6487,-2.6487,-2.6487,-2.6487,-2.6487,-2.6487,-2.6487,-2.6487,-2.6487,-2.6487,-2.6487,-2.6487,-2.6487,-2.6487,-2.6487,-2.6487,-2.6449,-2.6411,-2.6424,-2.6122,-2.5808,-2.5724,-2.5883,-2.5887,-2.6025,-2.6311,-2.6449,-2.6084,-2.5824,-2.6235,-2.6564,-2.6845,-2.7196,-2.7756,-2.7967,-2.7868,-2.8033,-2.8229,-2.8151,-2.8131,-2.836,-2.8298,-2.7935,-2.7629,-2.7375,-2.6986,-2.6443,-2.5968,-2.5548,-2.5276,-2.5113,-2.5113,-2.5141,-2.5086,-2.5018,-2.5303,-2.5564,-2.5715,-2.5964,-2.6123,-2.6351,-2.6496,-2.4987,-2.5222,-2.6659,-2.707,-2.6885,-2.7129,-2.6992,-2.6602,-2.6309,-2.6035,-2.5908,-2.5723,-2.5684,-2.5684,-2.5684,-2.5684,-2.5684,-2.5684,-2.5684,-2.5684,-2.5684,-2.5684,-2.5684,-2.5684,-2.5684,-2.5684,-2.5684,-2.5684,-2.5684,-2.5684,-2.5469,-2.5029,-2.4346,-2.3867,-2.3683,-2.3432,-2.358,-2.3754,-2.4272,-2.4765,-2.4723,-2.4836,-2.5025,-2.5247,-2.4769,-2.4817,-2.5396,-2.5516,-2.5606,-2.5921,-2.6141,-2.6396,-2.6418,-2.6418,-2.6487,-2.6487,-2.6487,-2.6487,-2.6487,-2.6487,-2.6487,-2.6487,-2.6487,-2.6487,-2.6487,-2.6487,-2.6487,-2.6487,-2.6487,-2.6348,-2.5996,-2.6323,-2.6135,-2.5498,-2.5435,-2.5774,-2.5937,-2.621,-2.6411,-2.6461,-2.6248,-2.6135,-2.6323,-2.6373,-2.6587,-2.6812,-2.7255,-2.7268,-2.7167,-2.7469,-2.7703,-2.759,-2.759,-2.7934,-2.7971,-2.761,-2.7323,-2.7104,-2.6592,-2.5941,-2.5493,-2.5111,-2.5015,-2.4932,-2.4975,-2.4977,-2.4948,-2.4934,-2.5044,-2.5227,-2.5425,-2.5591,-2.577,-2.6055,-2.6351,-2.4324,-2.4875,-2.5913,-2.6301,-2.622,-2.6621,-2.6553,-2.6162,-2.581,-2.5684,-2.5693,-2.5684,-2.5684,-2.5684,-2.5684,-2.5684,-2.5684,-2.5684,-2.5684,-2.5684,-2.5684,-2.5684,-2.5684,-2.5684,-2.5684,-2.5684,-2.5684,-2.5684,-2.5684,-2.5684,-2.5371,-2.4736,-2.4004,-2.3525,-2.3276,-2.3373,-2.3493,-2.3624,-2.395,-2.4209,-2.4383,-2.4609,-2.4916,-2.4886,-2.469,-2.4576,-2.4794,-2.4865,-2.4862,-2.5335,-2.5664,-2.6037,-2.6094,-2.6211,-2.6314,-2.6418,-2.6487,-2.6487,-2.6487,-2.6487,-2.6487,-2.6487,-2.6487,-2.6487,-2.6487,-2.6487,-2.6487,-2.6487,-2.6474,-2.6285,-2.6059,-2.6399,-2.6072,-2.5448,-2.541,-2.5749,-2.5674,-2.5875,-2.6323,-2.6373,-2.626,-2.626,-2.6298,-2.6285,-2.6316,-2.651,-2.6726,-2.6658,-2.6658,-2.7032,-2.7369,-2.7289,-2.739,-2.7802,-2.774,-2.7277,-2.7006,-2.683,-2.6164,-2.5401,-2.5131,-2.4776,-2.475,-2.4736,-2.465,-2.465,-2.4778,-2.4848,-2.4946,-2.5059,-2.5216,-2.5342,-2.5453,-2.5715,-2.6028,-2.4034,-2.5103,-2.5236,-2.546,-2.5762,-2.6211,-2.6133,-2.5723,-2.5693,-2.5684,-2.5684,-2.5684,-2.5684,-2.5684,-2.5684,-2.5684,-2.5684,-2.5684,-2.5684,-2.5684,-2.5684,-2.5684,-2.5684,-2.5684,-2.5684,-2.5684,-2.5684,-2.5684,-2.5674,-2.543,-2.5011,-2.4414,-2.3643,-2.3237,-2.3154,-2.3188,-2.3232,-2.3309,-2.3527,-2.3734,-2.3943,-2.4361,-2.4808,-2.491,-2.4911,-2.5007,-2.509,-2.4925,-2.4741,-2.4791,-2.4886,-2.5194,-2.5453,-2.5641,-2.6037,-2.6314,-2.6487,-2.6487,-2.6487,-2.6487,-2.6487,-2.6487,-2.6487,-2.6487,-2.6487,-2.6474,-2.6411,-2.6399,-2.6386,-2.6399,-2.6386,-2.6235,-2.6072,-2.5737,-2.5536,-2.5473,-2.5247,-2.5498,-2.6,-2.6122,-2.5887,-2.5862,-2.6047,-2.6084,-2.6172,-2.6408,-2.6589,-2.6658,-2.6692,-2.693,-2.7167,-2.7235,-2.7403,-2.7769,-2.753,-2.6958,-2.6653,-2.6432,-2.5578,-2.4866,-2.4627,-2.4494,-2.4523,-2.4465,-2.4276,-2.4334,-2.4708,-2.4793,-2.4778,-2.492,-2.509,-2.5118,-2.523,-2.5342,-2.5578,-2.3856,-2.4756,-2.5319,-2.5595,-2.5713,-2.583,-2.585,-2.5693,-2.5684,-2.5684,-2.5684,-2.5684,-2.5684,-2.5684,-2.5684,-2.5684,-2.5684,-2.5684,-2.5684,-2.5684,-2.5684,-2.5684,-2.5684,-2.5684,-2.5684,-2.5684,-2.5684,-2.5645,-2.5489,-2.5196,-2.46,-2.3935,-2.3383,-2.3159,-2.3101,-2.3101,-2.3101,-2.3188,-2.3363,-2.3614,-2.395,-2.4541,-2.4998,-2.5274,-2.4905,-2.5054,-2.5074,-2.4531,-2.4307,-2.4576,-2.5052,-2.5465,-2.5535,-2.5955,-2.6418,-2.6418,-2.6487,-2.6487,-2.6487,-2.6487,-2.6487,-2.6487,-2.6487,-2.6487,-2.6487,-2.6424,-2.6311,-2.6298,-2.6348,-2.6399,-2.6348,-2.6197,-2.6009,-2.5749,-2.5674,-2.5757,-2.5561,-2.5724,-2.6223,-2.6223,-2.5963,-2.5959,-2.6072,-2.5937,-2.6084,-2.6336,-2.6521,-2.6589,-2.6658,-2.6863,-2.693,-2.6998,-2.6992,-2.7254,-2.7116,-2.6628,-2.6328,-2.5931,-2.5161,-2.4518,-2.4281,-2.4205,-2.425,-2.4234,-2.4089,-2.4392,-2.485,-2.4793,-2.4549,-2.4835,-2.5005,-2.5005,-2.5033,-2.5146,-2.5286,-2.3488,-2.4529,-2.5039,-2.5382,-2.5684,-2.5684,-2.5684,-2.5684,-2.5684,-2.5684,-2.5684,-2.5684,-2.5684,-2.5684,-2.5684,-2.5684,-2.5684,-2.5684,-2.5684,-2.5684,-2.5684,-2.5684,-2.5684,-2.5684,-2.5684,-2.5684,-2.5645,-2.5615,-2.5293,-2.4648,-2.3984,-2.3809,-2.3305,-2.314,-2.3101,-2.3101,-2.3101,-2.3178,-2.3353,-2.3787,-2.4209,-2.468,-2.5158,-2.5355,-2.4784,-2.4761,-2.4781,-2.4022,-2.3844,-2.3998,-2.4479,-2.4707,-2.4957,-2.5606,-2.6314,-2.6383,-2.6487,-2.6487,-2.6487,-2.6487,-2.6487,-2.6487,-2.6474,-2.6336,-2.6311,-2.6273,-2.6235,-2.6235,-2.6348,-2.6411,-2.6311,-2.6185,-2.59,-2.5661,-2.5933,-2.6172,-2.6197,-2.6235,-2.6323,-2.6399,-2.6348,-2.626,-2.6172,-2.5988,-2.5988,-2.6336,-2.6487,-2.6521,-2.6555,-2.6589,-2.6658,-2.6692,-2.6566,-2.6575,-2.6373,-2.6248,-2.5858,-2.5499,-2.5,-2.4429,-2.4079,-2.3897,-2.3884,-2.3914,-2.3956,-2.4247,-2.4478,-2.4392,-2.429,-2.4578,-2.4721,-2.4635,-2.4708,-2.4977,-2.5174,-2.2979,-2.4381,-2.448,-2.4981,-2.5635,-2.5684,-2.5684,-2.5684,-2.5684,-2.5684,-2.5684,-2.5684,-2.5684,-2.5684,-2.5684,-2.5684,-2.5684,-2.5684,-2.5684,-2.5684,-2.5684,-2.5684,-2.5684,-2.5684,-2.5684,-2.5684,-2.5538,-2.5303,-2.4814,-2.4313,-2.3848,-2.373,-2.335,-2.3101,-2.3101,-2.3101,-2.3101,-2.3144,-2.3222,-2.344,-2.3831,-2.4251,-2.4638,-2.4882,-2.4616,-2.4313,-2.4092,-2.3607,-2.2964,-2.3038,-2.3324,-2.3692,-2.4599,-2.5288,-2.6002,-2.6314,-2.6487,-2.6487,-2.6487,-2.6487,-2.6487,-2.6487,-2.6474,-2.6197,-2.6109,-2.6084,-2.6059,-2.5921,-2.5959,-2.6122,-2.6084,-2.626,-2.6185,-2.6059,-2.6172,-2.626,-2.6235,-2.6298,-2.6411,-2.6461,-2.6449,-2.6386,-2.6373,-2.6235,-2.621,-2.6436,-2.6487,-2.6487,-2.6487,-2.6487,-2.6487,-2.6487,-2.6438,-2.6308,-2.6024,-2.583,-2.5364,-2.4952,-2.4607,-2.4162,-2.3684,-2.3539,-2.3497,-2.3662,-2.3839,-2.375,-2.3852,-2.3969,-2.4102,-2.4218,-2.4305,-2.4189,-2.4334,-2.465,-2.4765,-2.2677,-2.3628,-2.4233,-2.4932,-2.5635,-2.5684,-2.5684,-2.5684,-2.5684,-2.5684,-2.5684,-2.5684,-2.5684,-2.5684,-2.5684,-2.5684,-2.5684,-2.5684,-2.5684,-2.5684,-2.5684,-2.5684,-2.5684,-2.5684,-2.5664,-2.5567,-2.5361,-2.4834,-2.4287,-2.3887,-2.3594,-2.334,-2.3101,-2.3101,-2.3101,-2.3101,-2.3101,-2.3101,-2.3135,-2.3309,-2.3701,-2.3867,-2.4086,-2.4096,-2.3872,-2.3509,-2.32,-2.2873,-2.2891,-2.315,-2.3961,-2.4826,-2.5851,-2.606,-2.628,-2.6452,-2.6383,-2.6418,-2.6418,-2.6452,-2.6487,-2.6487,-2.6411,-2.6097,-2.5908,-2.5837,-2.5737,-2.5573,-2.5561,-2.5737,-2.5975,-2.6273,-2.6461,-2.6411,-2.6373,-2.6298,-2.6235,-2.6348,-2.6474,-2.6487,-2.6487,-2.6487,-2.6487,-2.6487,-2.6487,-2.6487,-2.6487,-2.6487,-2.6487,-2.6487,-2.6487,-2.6487,-2.6461,-2.6312,-2.5916,-2.5481,-2.5052,-2.4633,-2.4247,-2.3793,-2.3316,-2.3343,-2.3424,-2.3616,-2.3734,-2.3645,-2.3662,-2.3956,-2.4073,-2.3985,-2.3956,-2.3868,-2.3956,-2.4218,-2.4247,-2.3079,-2.3877,-2.4677,-2.5294,-2.5635,-2.5684,-2.5684,-2.5684,-2.5684,-2.5684,-2.5684,-2.5684,-2.5684,-2.5684,-2.5684,-2.5684,-2.5684,-2.5684,-2.5684,-2.5684,-2.5684,-2.5684,-2.5684,-2.5674,-2.5537,-2.5381,-2.4766,-2.4199,-2.3799,-2.3535,-2.331,-2.312,-2.3101,-2.3101,-2.3101,-2.3101,-2.3101,-2.3101,-2.3101,-2.3266,-2.357,-2.3661,-2.3965,-2.3896,-2.3587,-2.3121,-2.2993,-2.2762,-2.2741,-2.3075,-2.357,-2.4154,-2.4814,-2.5064,-2.5382,-2.5664,-2.5838,-2.6094,-2.6141,-2.628,-2.6383,-2.6383,-2.6487,-2.6189,-2.5413,-2.5363,-2.5674,-2.5536,-2.5548,-2.5699,-2.6135,-2.6436,-2.6474,-2.6449,-2.6436,-2.6411,-2.6386,-2.6436,-2.6487,-2.6487,-2.6487,-2.6487,-2.6487,-2.6487,-2.6487,-2.6487,-2.6487,-2.6487,-2.6487,-2.6487,-2.6487,-2.6461,-2.6424,-2.6185,-2.5778,-2.5313,-2.4847,-2.4412,-2.4004,-2.364,-2.3349,-2.3338,-2.3365,-2.3467,-2.3526,-2.3484,-2.3603,-2.3738,-2.3679,-2.3514,-2.3531,-2.359,-2.3679,-2.375,-2.378,-2.3628,-2.4529,-2.5235,-2.5586,-2.5684,-2.5684,-2.5684,-2.5684,-2.5684,-2.5684,-2.5684,-2.5684,-2.5684,-2.5684,-2.5684,-2.5684,-2.5684,-2.5684,-2.5684,-2.5684,-2.5684,-2.5684,-2.5684,-2.5664,-2.542,-2.4902,-2.4277,-2.3945,-2.3633,-2.3389,-2.3169,-2.311,-2.3101,-2.3101,-2.3101,-2.3101,-2.3101,-2.3101,-2.3101,-2.3101,-2.3276,-2.3484,-2.374,-2.3798,-2.3618,-2.3297,-2.3113,-2.2939,-2.2589,-2.2916,-2.3202,-2.379,-2.4129,-2.4479,-2.4623,-2.4933,-2.5312,-2.5453,-2.5558,-2.5816,-2.599,-2.6176,-2.6327,-2.5999,-2.5191,-2.5188,-2.5465,-2.5498,-2.5511,-2.5833,-2.6235,-2.6461,-2.6487,-2.6487,-2.6487,-2.6487,-2.6487,-2.6487,-2.6487,-2.6487,-2.6487,-2.6487,-2.6487,-2.6487,-2.6487,-2.6487,-2.6487,-2.6487,-2.6487,-2.6487,-2.6487,-2.6411,-2.6348,-2.6047,-2.5649,-2.536,-2.4958,-2.433,-2.3941,-2.3627,-2.3351,-2.3273,-2.3215,-2.3155,-2.3185,-2.3275,-2.3245,-2.3305,-2.3185,-2.3185,-2.3245,-2.3365,-2.3335,-2.3365,-2.3318,-2.3179,-2.4529,-2.4677,-2.5079,-2.5635,-2.5684,-2.5684,-2.5684,-2.5684,-2.5684,-2.5684,-2.5684,-2.5684,-2.5684,-2.5684,-2.5684,-2.5684,-2.5684,-2.5684,-2.5684,-2.5684,-2.5684,-2.5615,-2.5479,-2.5138,-2.46,-2.3984,-2.3643,-2.3447,-2.3198,-2.3101,-2.3101,-2.3101,-2.3101,-2.3101,-2.3101,-2.3101,-2.3101,-2.3101,-2.3101,-2.3101,-2.3163,-2.2987,-2.2899,-2.2745,-2.2243,-2.1909,-2.1888,-2.2012,-2.245,-2.3169,-2.3658,-2.3925,-2.4118,-2.4324,-2.4396,-2.4731,-2.4838,-2.5016,-2.5194,-2.5335,-2.537,-2.544,-2.5446,-2.5083,-2.5262,-2.5385,-2.5241,-2.5404,-2.5929,-2.6298,-2.6436,-2.6487,-2.6487,-2.6487,-2.6487,-2.6487,-2.6487,-2.6487,-2.6487,-2.6487,-2.6487,-2.6487,-2.6487,-2.6487,-2.6487,-2.6487,-2.6487,-2.6487,-2.6487,-2.6487,-2.6411,-2.6311,-2.6034,-2.5711,-2.5598,-2.5209,-2.4506,-2.3916,-2.364,-2.3371,-2.317,-2.3095,-2.3095,-2.3095,-2.3155,-2.3095,-2.3095,-2.3095,-2.3125,-2.3125,-2.3125,-2.3095,-2.3095,-2.3168]}]]